GFSGL_prec_precacc24_015.txt.gz
Total_Precipitation_Accumulation
0.00 0.00 0.00 0.00 0.00 0.00 0.00 0.00 0.00 0.00 0.00 0.01 0.00 0.00 0.00 0.00 0.00 0.00 0.00 0.00 0.00 0.00 0.00 0.00 0.00 0.01 0.01 0.02 0.03 0.02 0.01 0.03 0.07 0.01 0.00 0.00 0.00 0.00 0.00 0.00 0.00 0.02 0.04
0.00 0.00 0.00 0.00 0.00 0.00 0.00 0.00 0.00 0.00 0.00 0.00 0.01 0.00 0.00 0.00 0.00 0.00 0.00 0.00 0.00 0.01 0.00 0.00 0.00 0.00 0.00 0.00 0.00 0.00 0.00 0.00 0.00 0.01 0.00 0.00 0.00 0.00 0.00 0.00 0.00 0.00 0.01
0.00 0.00 0.00 0.00 0.00 0.00 0.00 0.00 0.00 0.00 0.01 0.01 0.00 0.00 0.00 0.00 0.00 0.00 0.00 0.00 0.00 0.00 0.00 0.00 0.00 0.00 0.00 0.00 0.00 0.00 0.00 0.00 0.02 0.05 0.02 0.00 0.00 0.00 0.00 0.00 0.01 0.01 0.00
0.00 0.00 0.01 0.01 0.01 0.00 0.00 0.01 0.01 0.02 0.03 0.00 0.00 0.00 0.00 0.00 0.00 0.00 0.00 0.00 0.00 0.00 0.00 0.00 0.00 0.00 0.00 0.00 0.01 0.01 0.03 0.04 0.03 0.02 0.01 0.00 0.00 0.00 0.00 0.00 0.00 0.00 0.00
0.00 0.00 0.00 0.01 0.01 0.02 0.04 0.02 0.03 0.02 0.00 0.00 0.00 0.00 0.00 0.00 0.00 0.00 0.00 0.00 0.00 0.00 0.00 0.00 0.00 0.00 0.00 0.01 0.02 0.03 0.03 0.03 0.04 0.04 0.03 0.03 0.02 0.02 0.03 0.02 0.01 0.00 0.00
0.00 0.00 0.01 0.01 0.03 0.04 0.02 0.04 0.02 0.01 0.00 0.00 0.00 0.00 0.00 0.00 0.00 0.00 0.00 0.00 0.00 0.00 0.00 0.00 0.00 0.00 0.00 0.00 0.01 0.01 0.03 0.06 0.08 0.05 0.03 0.03 0.02 0.02 0.02 0.04 0.03 0.01 0.00
0.00 0.00 0.01 0.01 0.02 0.02 0.04 0.02 0.00 0.01 0.00 0.00 0.00 0.00 0.00 0.00 0.00 0.00 0.00 0.00 0.00 0.00 0.00 0.00 0.00 0.00 0.00 0.00 0.00 0.00 0.01 0.02 0.06 0.08 0.07 0.03 0.02 0.01 0.01 0.01 0.01 0.00 0.00
0.00 0.00 0.00 0.01 0.01 0.04 0.03 0.01 0.01 0.00 0.00 0.00 0.00 0.00 0.00 0.00 0.00 0.00 0.00 0.00 0.00 0.00 0.00 0.00 0.00 0.00 0.00 0.01 0.07 0.06 0.02 0.00 0.01 0.01 0.03 0.02 0.01 0.01 0.01 0.01 0.01 0.00 0.00
0.00 0.00 0.00 0.01 0.01 0.01 0.01 0.02 0.01 0.00 0.00 0.00 0.00 0.00 0.00 0.00 0.00 0.00 0.00 0.00 0.00 0.00 0.00 0.00 0.00 0.01 0.01 0.07 0.09 0.03 0.01 0.00 0.00 0.01 0.03 0.04 0.05 0.06 0.06 0.11 0.07 0.04 0.02
0.00 0.00 0.00 0.00 0.00 0.01 0.01 0.00 0.00 0.00 0.00 0.00 0.00 0.00 0.00 0.00 0.00 0.00 0.00 0.00 0.00 0.00 0.00 0.00 0.00 0.03 0.10 0.08 0.09 0.06 0.04 0.02 0.01 0.01 0.00 0.01 0.00 0.00 0.00 0.03 0.05 0.11 0.09
0.00 0.00 0.00 0.00 0.00 0.00 0.00 0.00 0.00 0.00 0.00 0.00 0.00 0.00 0.00 0.00 0.00 0.00 0.00 0.00 0.00 0.01 0.00 0.00 0.01 0.06 0.08 0.05 0.05 0.06 0.12 0.06 0.02 0.01 0.01 0.01 0.01 0.00 0.00 0.00 0.00 0.01 0.02
0.00 0.00 0.00 0.00 0.00 0.00 0.00 0.00 0.00 0.00 0.00 0.00 0.00 0.00 0.00 0.00 0.00 0.00 0.00 0.00 0.00 0.01 0.02 0.02 0.03 0.06 0.04 0.03 0.05 0.09 0.05 0.02 0.02 0.03 0.03 0.02 0.02 0.02 0.01 0.01 0.02 0.01 0.00
0.00 0.00 0.00 0.00 0.00 0.00 0.00 0.00 0.00 0.00 0.00 0.00 0.00 0.00 0.00 0.00 0.00 0.00 0.00 0.00 0.00 0.01 0.02 0.03 0.04 0.03 0.02 0.03 0.06 0.05 0.04 0.06 0.07 0.06 0.05 0.04 0.05 0.05 0.05 0.04 0.02 0.01 0.01
0.00 0.00 0.00 0.00 0.00 0.00 0.00 0.00 0.00 0.00 0.00 0.00 0.00 0.00 0.00 0.00 0.00 0.00 0.00 0.00 0.00 0.00 0.00 0.01 0.01 0.01 0.02 0.05 0.03 0.03 0.05 0.05 0.07 0.08 0.06 0.06 0.06 0.09 0.11 0.12 0.09 0.07 0.08
0.00 0.00 0.00 0.00 0.00 0.00 0.00 0.00 0.00 0.00 0.00 0.00 0.00 0.00 0.00 0.00 0.00 0.00 0.00 0.00 0.01 0.01 0.01 0.01 0.00 0.00 0.01 0.02 0.01 0.01 0.02 0.02 0.03 0.04 0.05 0.06 0.07 0.08 0.11 0.13 0.15 0.14 0.10
0.00 0.00 0.02 0.03 0.02 0.01 0.00 0.00 0.00 0.00 0.00 0.00 0.00 0.00 0.00 0.00 0.00 0.00 0.00 0.00 0.01 0.00 0.00 0.01 0.00 0.00 0.00 0.01 0.01 0.01 0.01 0.03 0.03 0.04 0.05 0.05 0.06 0.07 0.07 0.05 0.08 0.10 0.11
0.01 0.02 0.03 0.05 0.03 0.01 0.00 0.00 0.00 0.00 0.00 0.00 0.00 0.00 0.00 0.00 0.00 0.00 0.00 0.00 0.00 0.00 0.00 0.00 0.00 0.00 0.00 0.00 0.00 0.01 0.02 0.03 0.02 0.03 0.05 0.05 0.05 0.04 0.03 0.02 0.01 0.02 0.03
0.00 0.01 0.03 0.02 0.02 0.01 0.01 0.00 0.00 0.01 0.00 0.00 0.00 0.00 0.00 0.00 0.00 0.00 0.00 0.00 0.00 0.00 0.00 0.00 0.00 0.00 0.00 0.00 0.00 0.00 0.00 0.01 0.00 0.01 0.02 0.03 0.04 0.04 0.02 0.02 0.01 0.01 0.02
0.00 0.01 0.00 0.00 0.00 0.00 0.00 0.00 0.00 0.00 0.01 0.00 0.00 0.00 0.00 0.00 0.00 0.00 0.00 0.00 0.00 0.00 0.00 0.00 0.00 0.00 0.00 0.00 0.00 0.00 0.00 0.00 0.00 0.00 0.01 0.02 0.03 0.03 0.02 0.02 0.01 0.00 0.00
0.00 0.01 0.01 0.00 0.00 0.00 0.00 0.00 0.00 0.01 0.01 0.01 0.00 0.00 0.00 0.00 0.00 0.00 0.00 0.00 0.00 0.00 0.00 0.00 0.00 0.00 0.00 0.00 0.00 0.00 0.00 0.00 0.00 0.00 0.00 0.00 0.01 0.02 0.03 0.02 0.00 0.00 0.00
0.00 0.01 0.01 0.02 0.01 0.01 0.01 0.01 0.00 0.01 0.01 0.00 0.00 0.00 0.00 0.00 0.00 0.00 0.00 0.00 0.00 0.00 0.00 0.00 0.00 0.00 0.00 0.00 0.00 0.00 0.00 0.00 0.00 0.00 0.00 0.00 0.00 0.00 0.01 0.02 0.00 0.00 0.00
0.01 0.02 0.02 0.02 0.02 0.02 0.01 0.01 0.00 0.01 0.01 0.01 0.01 0.00 0.00 0.00 0.00 0.00 0.00 0.00 0.00 0.00 0.00 0.00 0.00 0.00 0.00 0.00 0.00 0.00 0.00 0.00 0.00 0.00 0.00 0.00 0.00 0.00 0.00 0.00 0.00 0.00 0.00
0.01 0.01 0.02 0.02 0.03 0.03 0.02 0.01 0.01 0.01 0.01 0.01 0.00 0.00 0.00 0.00 0.01 0.01 0.00 0.00 0.00 0.00 0.00 0.00 0.00 0.00 0.00 0.00 0.00 0.00 0.00 0.00 0.00 0.00 0.00 0.00 0.00 0.00 0.00 0.00 0.00 0.00 0.00
0.02 0.02 0.03 0.03 0.03 0.03 0.02 0.01 0.01 0.00 0.00 0.01 0.01 0.01 0.01 0.01 0.00 0.00 0.00 0.00 0.00 0.00 0.00 0.00 0.00 0.00 0.00 0.00 0.00 0.00 0.00 0.00 0.00 0.00 0.00 0.00 0.00 0.00 0.00 0.00 0.00 0.00 0.00
0.02 0.03 0.04 0.03 0.03 0.03 0.02 0.01 0.02 0.01 0.01 0.01 0.01 0.01 0.01 0.00 0.00 0.00 0.00 0.00 0.00 0.00 0.00 0.00 0.00 0.00 0.00 0.00 0.00 0.00 0.00 0.00 0.00 0.00 0.00 0.00 0.00 0.00 0.00 0.00 0.00 0.00 0.00
0.03 0.04 0.04 0.03 0.03 0.03 0.03 0.03 0.03 0.03 0.04 0.04 0.04 0.04 0.02 0.02 0.01 0.00 0.00 0.00 0.00 0.00 0.00 0.00 0.00 0.00 0.00 0.00 0.00 0.00 0.00 0.00 0.00 0.00 0.00 0.00 0.00 0.00 0.00 0.00 0.00 0.00 0.00

GFSGL_prec_precacc24_021.txt.gz
Total_Precipitation_Accumulation
0.00 0.00 0.00 0.00 0.00 0.00 0.00 0.00 0.00 0.00 0.00 0.01 0.00 0.01 0.01 0.00 0.01 0.02 0.04 0.05 0.04 0.02 0.01 0.00 0.01 0.01 0.01 0.02 0.03 0.02 0.01 0.03 0.07 0.01 0.00 0.00 0.00 0.00 0.00 0.00 0.00 0.02 0.05
0.00 0.00 0.00 0.00 0.00 0.00 0.00 0.00 0.00 0.00 0.00 0.00 0.01 0.00 0.00 0.01 0.03 0.05 0.05 0.03 0.02 0.01 0.00 0.00 0.00 0.00 0.00 0.00 0.00 0.00 0.00 0.00 0.01 0.01 0.00 0.00 0.00 0.00 0.00 0.00 0.01 0.00 0.02
0.00 0.00 0.00 0.00 0.00 0.00 0.00 0.00 0.00 0.00 0.01 0.01 0.00 0.00 0.00 0.01 0.02 0.02 0.01 0.00 0.00 0.00 0.00 0.00 0.00 0.00 0.00 0.00 0.00 0.00 0.00 0.01 0.03 0.06 0.02 0.00 0.00 0.00 0.01 0.01 0.01 0.02 0.03
0.00 0.00 0.01 0.01 0.01 0.00 0.00 0.01 0.01 0.02 0.03 0.00 0.00 0.01 0.01 0.00 0.00 0.00 0.00 0.00 0.00 0.00 0.00 0.00 0.00 0.00 0.00 0.00 0.01 0.01 0.03 0.05 0.04 0.03 0.02 0.01 0.00 0.00 0.01 0.02 0.03 0.03 0.03
0.00 0.00 0.00 0.01 0.01 0.02 0.04 0.02 0.03 0.02 0.00 0.01 0.01 0.00 0.00 0.02 0.00 0.00 0.00 0.00 0.00 0.00 0.00 0.00 0.00 0.00 0.00 0.01 0.02 0.03 0.03 0.04 0.05 0.05 0.05 0.04 0.04 0.04 0.05 0.05 0.04 0.02 0.02
0.00 0.00 0.01 0.01 0.03 0.04 0.02 0.04 0.02 0.01 0.00 0.00 0.00 0.01 0.04 0.03 0.00 0.00 0.00 0.00 0.00 0.00 0.00 0.00 0.00 0.00 0.00 0.00 0.01 0.01 0.03 0.07 0.11 0.08 0.05 0.05 0.05 0.04 0.06 0.09 0.10 0.05 0.03
0.00 0.00 0.01 0.01 0.02 0.02 0.04 0.02 0.00 0.01 0.00 0.00 0.00 0.01 0.01 0.00 0.00 0.00 0.00 0.00 0.00 0.00 0.00 0.00 0.00 0.00 0.00 0.00 0.00 0.01 0.02 0.03 0.08 0.10 0.10 0.05 0.05 0.05 0.05 0.05 0.05 0.04 0.04
0.00 0.00 0.00 0.01 0.01 0.04 0.03 0.01 0.01 0.00 0.00 0.00 0.00 0.00 0.00 0.00 0.00 0.00 0.00 0.00 0.00 0.00 0.00 0.00 0.00 0.00 0.00 0.01 0.08 0.07 0.02 0.01 0.01 0.02 0.04 0.05 0.04 0.05 0.05 0.05 0.04 0.03 0.02
0.00 0.00 0.00 0.01 0.01 0.01 0.01 0.02 0.01 0.00 0.00 0.00 0.00 0.00 0.00 0.00 0.00 0.00 0.00 0.00 0.00 0.00 0.00 0.00 0.00 0.01 0.01 0.07 0.10 0.03 0.01 0.00 0.01 0.01 0.03 0.04 0.05 0.06 0.07 0.14 0.10 0.09 0.07
0.00 0.00 0.00 0.00 0.00 0.01 0.01 0.00 0.00 0.00 0.00 0.00 0.00 0.00 0.00 0.00 0.00 0.00 0.00 0.00 0.00 0.00 0.00 0.00 0.00 0.03 0.10 0.08 0.09 0.06 0.04 0.03 0.02 0.01 0.01 0.01 0.01 0.01 0.01 0.04 0.07 0.15 0.13
0.00 0.00 0.00 0.00 0.00 0.00 0.00 0.00 0.00 0.00 0.00 0.00 0.00 0.00 0.00 0.00 0.00 0.00 0.00 0.00 0.00 0.01 0.00 0.00 0.01 0.06 0.08 0.05 0.05 0.06 0.12 0.06 0.02 0.02 0.02 0.02 0.02 0.02 0.03 0.03 0.04 0.05 0.05
0.00 0.00 0.00 0.00 0.00 0.00 0.00 0.00 0.00 0.00 0.00 0.00 0.00 0.00 0.00 0.00 0.00 0.00 0.00 0.00 0.00 0.01 0.02 0.02 0.03 0.06 0.04 0.03 0.05 0.09 0.06 0.02 0.03 0.04 0.04 0.03 0.04 0.03 0.03 0.04 0.05 0.05 0.03
0.00 0.00 0.00 0.00 0.00 0.00 0.00 0.00 0.00 0.00 0.00 0.00 0.00 0.00 0.01 0.01 0.01 0.00 0.00 0.00 0.00 0.01 0.02 0.03 0.04 0.03 0.02 0.03 0.06 0.05 0.04 0.06 0.07 0.07 0.06 0.05 0.06 0.07 0.08 0.11 0.09 0.05 0.03
0.00 0.00 0.00 0.00 0.00 0.00 0.00 0.00 0.00 0.00 0.00 0.00 0.00 0.00 0.01 0.00 0.01 0.01 0.00 0.00 0.00 0.00 0.00 0.01 0.01 0.01 0.02 0.05 0.03 0.03 0.05 0.05 0.07 0.09 0.07 0.07 0.08 0.11 0.16 0.20 0.19 0.20 0.14
0.00 0.00 0.00 0.00 0.00 0.00 0.00 0.00 0.00 0.00 0.00 0.00 0.00 0.00 0.01 0.01 0.01 0.00 0.01 0.01 0.02 0.01 0.01 0.01 0.00 0.00 0.01 0.02 0.01 0.01 0.02 0.02 0.03 0.05 0.06 0.07 0.08 0.09 0.12 0.16 0.21 0.28 0.25
0.00 0.00 0.02 0.03 0.02 0.01 0.00 0.00 0.00 0.00 0.00 0.00 0.00 0.00 0.00 0.00 0.00 0.00 0.00 0.00 0.01 0.00 0.00 0.01 0.01 0.01 0.01 0.01 0.01 0.01 0.01 0.03 0.03 0.04 0.05 0.06 0.07 0.08 0.08 0.07 0.10 0.14 0.18
0.01 0.02 0.04 0.05 0.03 0.02 0.01 0.01 0.01 0.01 0.00 0.00 0.00 0.00 0.00 0.00 0.00 0.00 0.00 0.00 0.00 0.00 0.00 0.01 0.01 0.01 0.00 0.00 0.00 0.01 0.02 0.03 0.02 0.03 0.05 0.05 0.06 0.05 0.05 0.03 0.03 0.04 0.04
0.00 0.01 0.03 0.02 0.02 0.02 0.02 0.02 0.03 0.03 0.03 0.02 0.01 0.00 0.00 0.00 0.00 0.00 0.00 0.00 0.01 0.01 0.01 0.00 0.01 0.01 0.00 0.00 0.00 0.00 0.00 0.01 0.00 0.01 0.03 0.04 0.05 0.04 0.03 0.03 0.03 0.02 0.02
0.00 0.01 0.01 0.01 0.01 0.01 0.01 0.02 0.03 0.03 0.03 0.02 0.01 0.01 0.00 0.00 0.00 0.00 0.00 0.02 0.01 0.01 0.01 0.01 0.01 0.00 0.00 0.00 0.00 0.00 0.00 0.00 0.00 0.00 0.01 0.03 0.03 0.03 0.03 0.03 0.02 0.01 0.01
0.00 0.01 0.01 0.01 0.01 0.01 0.02 0.02 0.03 0.03 0.03 0.03 0.02 0.01 0.01 0.00 0.01 0.01 0.02 0.03 0.02 0.01 0.01 0.00 0.00 0.00 0.00 0.00 0.01 0.01 0.00 0.00 0.00 0.00 0.00 0.00 0.01 0.02 0.03 0.03 0.01 0.01 0.01
0.00 0.01 0.01 0.03 0.03 0.03 0.03 0.03 0.03 0.03 0.03 0.02 0.02 0.01 0.00 0.01 0.01 0.02 0.02 0.03 0.02 0.01 0.01 0.01 0.01 0.01 0.01 0.01 0.01 0.01 0.00 0.00 0.00 0.00 0.00 0.00 0.00 0.01 0.01 0.02 0.01 0.00 0.00
0.01 0.03 0.03 0.03 0.04 0.04 0.04 0.03 0.04 0.04 0.04 0.04 0.03 0.01 0.00 0.00 0.01 0.01 0.01 0.02 0.02 0.02 0.01 0.02 0.01 0.01 0.01 0.00 0.00 0.01 0.01 0.00 0.00 0.00 0.00 0.00 0.00 0.00 0.00 0.00 0.00 0.00 0.00
0.02 0.03 0.04 0.04 0.05 0.05 0.04 0.04 0.06 0.05 0.04 0.04 0.03 0.03 0.03 0.03 0.02 0.01 0.01 0.01 0.01 0.01 0.01 0.01 0.01 0.01 0.00 0.00 0.00 0.00 0.00 0.00 0.00 0.00 0.00 0.00 0.00 0.01 0.00 0.00 0.00 0.00 0.00
0.03 0.04 0.04 0.04 0.04 0.06 0.07 0.06 0.05 0.03 0.03 0.04 0.04 0.04 0.04 0.03 0.02 0.01 0.01 0.01 0.01 0.01 0.01 0.01 0.00 0.00 0.00 0.00 0.00 0.00 0.00 0.00 0.00 0.00 0.00 0.00 0.00 0.00 0.00 0.00 0.00 0.00 0.00
0.04 0.04 0.06 0.07 0.08 0.09 0.08 0.07 0.06 0.05 0.06 0.06 0.06 0.05 0.04 0.05 0.04 0.03 0.02 0.03 0.03 0.03 0.02 0.02 0.01 0.00 0.00 0.00 0.00 0.00 0.00 0.00 0.00 0.00 0.00 0.00 0.00 0.00 0.00 0.00 0.00 0.00 0.00
0.08 0.09 0.09 0.09 0.09 0.09 0.09 0.09 0.09 0.08 0.08 0.07 0.08 0.08 0.07 0.06 0.05 0.04 0.03 0.04 0.05 0.05 0.04 0.04 0.03 0.02 0.01 0.00 0.00 0.00 0.00 0.00 0.00 0.00 0.00 0.00 0.00 0.00 0.00 0.00 0.00 0.00 0.00

GFSGL_prec_precacc24_024.txt.gz
Total_Precipitation_Accumulation
0.00 0.00 0.00 0.00 0.00 0.00 0.00 0.00 0.00 0.00 0.00 0.01 0.00 0.01 0.01 0.00 0.01 0.02 0.04 0.05 0.05 0.04 0.03 0.02 0.02 0.01 0.02 0.03 0.03 0.02 0.01 0.03 0.07 0.01 0.00 0.00 0.00 0.00 0.00 0.00 0.00 0.02 0.05
0.00 0.00 0.00 0.00 0.00 0.00 0.00 0.00 0.00 0.00 0.00 0.00 0.01 0.00 0.00 0.01 0.03 0.05 0.05 0.03 0.03 0.02 0.01 0.01 0.01 0.00 0.00 0.00 0.00 0.00 0.00 0.00 0.01 0.01 0.00 0.00 0.00 0.00 0.00 0.00 0.01 0.00 0.02
0.00 0.00 0.00 0.00 0.00 0.00 0.00 0.00 0.00 0.00 0.01 0.01 0.00 0.00 0.00 0.01 0.02 0.02 0.01 0.00 0.00 0.00 0.00 0.00 0.00 0.00 0.00 0.00 0.00 0.00 0.00 0.01 0.03 0.06 0.02 0.00 0.00 0.00 0.01 0.01 0.01 0.02 0.03
0.00 0.00 0.01 0.01 0.01 0.00 0.00 0.01 0.01 0.02 0.03 0.00 0.00 0.01 0.01 0.00 0.00 0.00 0.00 0.00 0.00 0.01 0.00 0.00 0.00 0.00 0.00 0.00 0.01 0.01 0.03 0.05 0.04 0.03 0.02 0.01 0.00 0.00 0.02 0.03 0.03 0.04 0.03
0.00 0.00 0.00 0.01 0.01 0.02 0.04 0.02 0.03 0.02 0.00 0.01 0.01 0.00 0.00 0.02 0.00 0.00 0.00 0.01 0.01 0.00 0.00 0.00 0.00 0.00 0.00 0.01 0.02 0.03 0.03 0.04 0.05 0.05 0.05 0.04 0.04 0.04 0.05 0.05 0.04 0.03 0.02
0.00 0.00 0.01 0.01 0.03 0.04 0.02 0.04 0.02 0.01 0.00 0.00 0.00 0.01 0.04 0.03 0.00 0.00 0.00 0.00 0.00 0.00 0.00 0.00 0.00 0.00 0.00 0.00 0.01 0.01 0.03 0.07 0.11 0.08 0.06 0.06 0.05 0.05 0.07 0.10 0.11 0.06 0.03
0.00 0.00 0.01 0.01 0.02 0.02 0.04 0.02 0.00 0.01 0.00 0.00 0.00 0.01 0.01 0.00 0.00 0.00 0.00 0.00 0.00 0.00 0.00 0.00 0.00 0.00 0.00 0.00 0.00 0.01 0.02 0.03 0.09 0.11 0.10 0.06 0.06 0.06 0.05 0.05 0.05 0.05 0.04
0.00 0.00 0.00 0.01 0.01 0.04 0.03 0.01 0.01 0.00 0.00 0.00 0.00 0.00 0.00 0.00 0.00 0.00 0.00 0.00 0.00 0.00 0.00 0.00 0.00 0.00 0.00 0.01 0.08 0.07 0.02 0.01 0.01 0.02 0.05 0.05 0.05 0.05 0.05 0.05 0.04 0.04 0.02
0.00 0.00 0.01 0.01 0.01 0.01 0.01 0.02 0.01 0.00 0.00 0.00 0.00 0.00 0.00 0.00 0.00 0.00 0.00 0.00 0.00 0.00 0.00 0.00 0.00 0.01 0.01 0.07 0.10 0.03 0.01 0.00 0.01 0.01 0.03 0.04 0.05 0.06 0.07 0.14 0.11 0.10 0.07
0.00 0.00 0.00 0.00 0.00 0.01 0.01 0.00 0.00 0.00 0.00 0.00 0.00 0.00 0.00 0.00 0.00 0.00 0.00 0.00 0.00 0.00 0.00 0.00 0.00 0.03 0.10 0.08 0.09 0.06 0.04 0.03 0.02 0.01 0.01 0.01 0.01 0.01 0.02 0.06 0.08 0.16 0.15
0.01 0.00 0.00 0.00 0.01 0.00 0.00 0.00 0.00 0.00 0.00 0.00 0.00 0.00 0.00 0.00 0.00 0.00 0.00 0.00 0.00 0.01 0.00 0.00 0.01 0.06 0.08 0.05 0.05 0.06 0.12 0.06 0.02 0.02 0.02 0.02 0.02 0.03 0.04 0.04 0.06 0.08 0.09
0.00 0.00 0.00 0.00 0.00 0.00 0.00 0.00 0.00 0.00 0.00 0.00 0.00 0.00 0.00 0.00 0.00 0.00 0.00 0.00 0.00 0.01 0.02 0.02 0.03 0.06 0.04 0.03 0.05 0.09 0.06 0.02 0.03 0.04 0.05 0.04 0.04 0.03 0.03 0.04 0.07 0.09 0.08
0.01 0.00 0.00 0.00 0.00 0.00 0.00 0.00 0.00 0.00 0.00 0.00 0.00 0.00 0.01 0.01 0.02 0.00 0.00 0.00 0.00 0.01 0.02 0.03 0.04 0.03 0.02 0.03 0.06 0.05 0.04 0.06 0.07 0.07 0.07 0.06 0.06 0.07 0.08 0.12 0.10 0.07 0.05
0.00 0.00 0.00 0.00 0.00 0.00 0.00 0.00 0.00 0.00 0.00 0.00 0.00 0.01 0.01 0.01 0.01 0.01 0.00 0.00 0.00 0.00 0.00 0.01 0.01 0.01 0.02 0.05 0.03 0.03 0.05 0.05 0.07 0.09 0.08 0.07 0.08 0.11 0.16 0.20 0.19 0.21 0.17
0.00 0.00 0.00 0.00 0.00 0.00 0.00 0.00 0.00 0.00 0.00 0.00 0.00 0.01 0.02 0.01 0.01 0.00 0.02 0.02 0.03 0.02 0.01 0.01 0.00 0.01 0.01 0.02 0.01 0.01 0.02 0.02 0.03 0.05 0.06 0.07 0.08 0.10 0.12 0.16 0.21 0.28 0.31
0.00 0.00 0.02 0.03 0.02 0.01 0.00 0.00 0.00 0.00 0.00 0.00 0.00 0.00 0.00 0.00 0.00 0.00 0.00 0.00 0.01 0.00 0.00 0.01 0.01 0.02 0.01 0.01 0.01 0.01 0.01 0.03 0.03 0.04 0.05 0.06 0.07 0.08 0.09 0.07 0.10 0.15 0.18
0.01 0.02 0.04 0.05 0.03 0.02 0.01 0.01 0.01 0.01 0.00 0.00 0.00 0.00 0.00 0.00 0.00 0.00 0.00 0.00 0.00 0.00 0.00 0.01 0.01 0.01 0.01 0.00 0.00 0.01 0.02 0.03 0.02 0.03 0.05 0.05 0.06 0.05 0.05 0.03 0.03 0.04 0.04
0.00 0.01 0.03 0.02 0.02 0.02 0.02 0.03 0.03 0.04 0.04 0.02 0.01 0.00 0.00 0.00 0.00 0.00 0.00 0.00 0.01 0.01 0.01 0.01 0.01 0.01 0.01 0.00 0.00 0.00 0.00 0.01 0.00 0.01 0.03 0.04 0.05 0.04 0.04 0.03 0.03 0.02 0.02
0.00 0.01 0.01 0.01 0.01 0.01 0.01 0.02 0.03 0.03 0.03 0.02 0.01 0.01 0.00 0.00 0.00 0.00 0.00 0.02 0.01 0.01 0.01 0.01 0.01 0.01 0.00 0.00 0.00 0.00 0.01 0.01 0.00 0.00 0.01 0.03 0.03 0.04 0.03 0.03 0.02 0.01 0.01
0.00 0.01 0.01 0.01 0.01 0.01 0.02 0.03 0.03 0.04 0.04 0.04 0.03 0.02 0.01 0.02 0.02 0.01 0.02 0.03 0.02 0.01 0.01 0.01 0.01 0.01 0.01 0.01 0.01 0.01 0.00 0.00 0.01 0.00 0.00 0.00 0.01 0.02 0.04 0.03 0.01 0.01 0.01
0.01 0.01 0.02 0.03 0.03 0.04 0.04 0.04 0.04 0.05 0.04 0.03 0.03 0.02 0.02 0.03 0.04 0.03 0.03 0.03 0.02 0.01 0.01 0.01 0.01 0.01 0.01 0.01 0.01 0.01 0.00 0.00 0.00 0.00 0.00 0.00 0.00 0.01 0.01 0.02 0.01 0.00 0.00
0.02 0.03 0.03 0.04 0.04 0.05 0.04 0.04 0.05 0.05 0.05 0.05 0.03 0.02 0.01 0.02 0.02 0.02 0.02 0.02 0.02 0.02 0.02 0.02 0.01 0.01 0.01 0.00 0.00 0.01 0.01 0.01 0.00 0.00 0.00 0.00 0.00 0.00 0.01 0.01 0.01 0.00 0.00
0.02 0.03 0.04 0.05 0.05 0.05 0.04 0.04 0.06 0.07 0.07 0.06 0.05 0.05 0.05 0.07 0.07 0.04 0.03 0.01 0.01 0.01 0.01 0.01 0.01 0.01 0.01 0.00 0.00 0.00 0.01 0.00 0.00 0.00 0.00 0.01 0.00 0.01 0.01 0.01 0.00 0.00 0.00
0.04 0.06 0.07 0.08 0.07 0.07 0.07 0.07 0.07 0.05 0.06 0.06 0.06 0.06 0.06 0.06 0.08 0.09 0.06 0.04 0.03 0.02 0.02 0.02 0.02 0.01 0.01 0.00 0.00 0.00 0.00 0.00 0.00 0.00 0.00 0.00 0.01 0.00 0.00 0.00 0.00 0.00 0.00
0.11 0.14 0.16 0.17 0.17 0.14 0.11 0.08 0.08 0.09 0.10 0.11 0.10 0.08 0.05 0.06 0.06 0.05 0.05 0.05 0.05 0.04 0.04 0.03 0.03 0.02 0.01 0.02 0.02 0.00 0.00 0.00 0.00 0.00 0.00 0.00 0.00 0.00 0.00 0.00 0.00 0.00 0.00
0.10 0.13 0.13 0.13 0.15 0.16 0.14 0.11 0.10 0.09 0.09 0.09 0.09 0.09 0.08 0.07 0.06 0.05 0.04 0.05 0.07 0.06 0.05 0.05 0.05 0.03 0.03 0.03 0.04 0.03 0.00 0.00 0.00 0.00 0.00 0.00 0.00 0.00 0.00 0.00 0.00 0.00 0.00

GFSGL_prec_precacc24_027.txt.gz
Total_Precipitation_Accumulation
0.00 0.00 0.00 0.00 0.00 0.00 0.00 0.00 0.00 0.00 0.00 0.01 0.00 0.01 0.01 0.00 0.01 0.02 0.04 0.05 0.05 0.04 0.03 0.02 0.01 0.01 0.01 0.01 0.00 0.00 0.01 0.03 0.07 0.01 0.00 0.00 0.00 0.00 0.00 0.00 0.00 0.01 0.02
0.00 0.00 0.00 0.00 0.00 0.00 0.00 0.00 0.00 0.00 0.00 0.00 0.01 0.00 0.00 0.01 0.03 0.05 0.05 0.03 0.02 0.01 0.01 0.00 0.00 0.00 0.00 0.00 0.00 0.00 0.00 0.00 0.00 0.01 0.00 0.00 0.00 0.00 0.00 0.00 0.01 0.00 0.01
0.00 0.00 0.00 0.00 0.00 0.00 0.00 0.00 0.00 0.00 0.01 0.01 0.00 0.00 0.00 0.01 0.02 0.02 0.01 0.00 0.00 0.00 0.00 0.00 0.00 0.00 0.00 0.00 0.00 0.00 0.00 0.01 0.03 0.06 0.02 0.00 0.00 0.00 0.01 0.01 0.01 0.02 0.03
0.00 0.00 0.00 0.00 0.00 0.00 0.00 0.00 0.01 0.02 0.03 0.00 0.00 0.01 0.01 0.00 0.00 0.00 0.00 0.00 0.00 0.01 0.00 0.00 0.00 0.00 0.00 0.00 0.01 0.01 0.03 0.05 0.04 0.03 0.02 0.01 0.00 0.00 0.02 0.03 0.03 0.04 0.03
0.00 0.00 0.00 0.00 0.00 0.01 0.02 0.01 0.02 0.02 0.00 0.01 0.01 0.00 0.00 0.02 0.00 0.00 0.00 0.01 0.01 0.00 0.00 0.00 0.00 0.00 0.00 0.01 0.02 0.03 0.03 0.04 0.05 0.05 0.05 0.04 0.04 0.04 0.05 0.06 0.04 0.03 0.02
0.00 0.00 0.00 0.00 0.00 0.00 0.00 0.03 0.02 0.01 0.00 0.00 0.00 0.01 0.04 0.03 0.00 0.00 0.00 0.00 0.00 0.00 0.00 0.00 0.00 0.00 0.00 0.00 0.00 0.01 0.03 0.07 0.11 0.08 0.06 0.06 0.05 0.05 0.08 0.10 0.11 0.06 0.03
0.00 0.00 0.00 0.00 0.00 0.00 0.00 0.01 0.00 0.01 0.00 0.00 0.00 0.01 0.01 0.00 0.00 0.00 0.00 0.00 0.00 0.00 0.00 0.00 0.00 0.00 0.00 0.00 0.00 0.01 0.02 0.03 0.09 0.11 0.10 0.06 0.07 0.06 0.05 0.05 0.05 0.05 0.04
0.00 0.00 0.00 0.00 0.00 0.00 0.00 0.00 0.01 0.00 0.00 0.00 0.00 0.00 0.00 0.00 0.00 0.00 0.00 0.00 0.00 0.00 0.00 0.00 0.00 0.00 0.00 0.01 0.08 0.07 0.02 0.01 0.01 0.02 0.05 0.05 0.05 0.05 0.05 0.05 0.04 0.04 0.02
0.00 0.00 0.00 0.00 0.00 0.00 0.01 0.02 0.01 0.00 0.00 0.00 0.00 0.00 0.00 0.00 0.00 0.00 0.00 0.00 0.00 0.00 0.00 0.00 0.00 0.01 0.01 0.07 0.09 0.03 0.01 0.00 0.01 0.01 0.02 0.03 0.04 0.05 0.06 0.13 0.11 0.12 0.08
0.00 0.00 0.00 0.00 0.01 0.01 0.01 0.00 0.00 0.00 0.00 0.00 0.00 0.00 0.00 0.00 0.00 0.00 0.00 0.00 0.00 0.00 0.00 0.00 0.00 0.01 0.05 0.07 0.08 0.05 0.03 0.03 0.02 0.01 0.01 0.01 0.01 0.01 0.02 0.06 0.08 0.16 0.16
0.02 0.04 0.04 0.01 0.01 0.00 0.00 0.00 0.00 0.00 0.00 0.00 0.00 0.00 0.00 0.00 0.00 0.00 0.00 0.00 0.00 0.00 0.00 0.00 0.00 0.02 0.04 0.04 0.05 0.06 0.12 0.06 0.02 0.02 0.02 0.02 0.02 0.03 0.04 0.04 0.06 0.09 0.15
0.05 0.03 0.01 0.00 0.00 0.00 0.00 0.00 0.00 0.00 0.00 0.00 0.00 0.00 0.00 0.00 0.00 0.00 0.00 0.00 0.00 0.00 0.01 0.01 0.01 0.02 0.02 0.02 0.04 0.06 0.04 0.02 0.03 0.04 0.04 0.03 0.03 0.03 0.03 0.03 0.06 0.09 0.10
0.01 0.01 0.00 0.00 0.00 0.00 0.00 0.00 0.00 0.00 0.00 0.00 0.00 0.00 0.01 0.01 0.02 0.00 0.00 0.00 0.00 0.00 0.01 0.02 0.01 0.00 0.01 0.01 0.02 0.03 0.02 0.03 0.03 0.04 0.05 0.05 0.06 0.07 0.08 0.11 0.10 0.07 0.04
0.00 0.00 0.00 0.00 0.00 0.00 0.00 0.00 0.00 0.00 0.00 0.00 0.00 0.01 0.01 0.01 0.01 0.01 0.00 0.00 0.00 0.00 0.00 0.00 0.00 0.00 0.00 0.02 0.01 0.02 0.03 0.03 0.06 0.07 0.07 0.07 0.08 0.10 0.15 0.19 0.18 0.20 0.15
0.00 0.00 0.00 0.00 0.00 0.00 0.00 0.00 0.00 0.00 0.00 0.00 0.00 0.01 0.02 0.02 0.02 0.01 0.01 0.02 0.02 0.02 0.00 0.00 0.00 0.00 0.00 0.00 0.01 0.01 0.01 0.01 0.03 0.04 0.06 0.06 0.08 0.09 0.12 0.15 0.20 0.28 0.30
0.00 0.00 0.02 0.03 0.02 0.01 0.00 0.00 0.00 0.00 0.00 0.00 0.00 0.00 0.00 0.00 0.00 0.00 0.00 0.00 0.00 0.00 0.00 0.00 0.01 0.01 0.01 0.00 0.00 0.00 0.00 0.02 0.02 0.03 0.04 0.06 0.07 0.07 0.08 0.07 0.09 0.13 0.17
0.01 0.02 0.04 0.05 0.03 0.02 0.01 0.01 0.01 0.01 0.00 0.00 0.00 0.00 0.00 0.00 0.00 0.00 0.00 0.00 0.00 0.00 0.00 0.01 0.01 0.01 0.01 0.00 0.00 0.00 0.01 0.01 0.02 0.03 0.04 0.05 0.05 0.05 0.04 0.03 0.03 0.04 0.04
0.00 0.01 0.03 0.02 0.02 0.02 0.02 0.03 0.03 0.03 0.03 0.02 0.01 0.00 0.00 0.00 0.00 0.00 0.00 0.02 0.02 0.01 0.01 0.01 0.01 0.01 0.01 0.00 0.00 0.00 0.00 0.00 0.00 0.01 0.02 0.03 0.04 0.03 0.03 0.03 0.03 0.02 0.02
0.00 0.01 0.01 0.01 0.01 0.01 0.01 0.02 0.02 0.03 0.03 0.02 0.01 0.00 0.00 0.00 0.00 0.00 0.01 0.04 0.02 0.01 0.01 0.01 0.01 0.01 0.00 0.00 0.00 0.00 0.01 0.00 0.00 0.00 0.01 0.02 0.02 0.03 0.02 0.02 0.02 0.01 0.00
0.00 0.01 0.01 0.01 0.02 0.02 0.02 0.04 0.04 0.04 0.04 0.04 0.03 0.02 0.01 0.02 0.04 0.02 0.03 0.04 0.03 0.01 0.01 0.01 0.01 0.01 0.01 0.01 0.01 0.01 0.00 0.00 0.01 0.00 0.00 0.00 0.01 0.02 0.03 0.02 0.01 0.00 0.01
0.01 0.02 0.02 0.04 0.04 0.05 0.05 0.05 0.04 0.04 0.05 0.04 0.03 0.02 0.02 0.04 0.06 0.06 0.04 0.04 0.03 0.02 0.01 0.01 0.01 0.01 0.01 0.01 0.01 0.01 0.00 0.00 0.00 0.00 0.00 0.00 0.00 0.01 0.01 0.01 0.01 0.00 0.00
0.02 0.03 0.03 0.04 0.05 0.06 0.05 0.05 0.05 0.06 0.04 0.04 0.03 0.02 0.01 0.03 0.03 0.04 0.07 0.07 0.04 0.03 0.02 0.02 0.01 0.01 0.01 0.00 0.00 0.01 0.01 0.01 0.00 0.00 0.00 0.00 0.00 0.00 0.01 0.01 0.00 0.00 0.00
0.03 0.04 0.05 0.06 0.06 0.06 0.06 0.07 0.11 0.10 0.06 0.05 0.05 0.05 0.05 0.09 0.09 0.07 0.07 0.06 0.09 0.09 0.06 0.04 0.03 0.01 0.01 0.00 0.00 0.00 0.01 0.00 0.00 0.00 0.00 0.01 0.00 0.01 0.01 0.01 0.00 0.00 0.00
0.04 0.07 0.08 0.09 0.12 0.16 0.17 0.18 0.17 0.12 0.08 0.07 0.08 0.09 0.10 0.10 0.12 0.12 0.10 0.11 0.13 0.12 0.09 0.07 0.05 0.04 0.03 0.02 0.01 0.00 0.00 0.00 0.00 0.00 0.00 0.00 0.00 0.00 0.00 0.00 0.00 0.00 0.00
0.12 0.15 0.17 0.20 0.21 0.19 0.17 0.17 0.19 0.16 0.13 0.12 0.11 0.09 0.07 0.08 0.07 0.06 0.06 0.07 0.09 0.09 0.08 0.07 0.06 0.04 0.03 0.04 0.06 0.02 0.00 0.00 0.00 0.00 0.00 0.00 0.00 0.00 0.00 0.00 0.00 0.00 0.00
0.10 0.14 0.15 0.14 0.16 0.20 0.22 0.21 0.17 0.15 0.14 0.11 0.10 0.09 0.08 0.08 0.07 0.05 0.04 0.05 0.07 0.06 0.06 0.07 0.06 0.06 0.06 0.06 0.06 0.06 0.03 0.02 0.02 0.00 0.00 0.00 0.00 0.00 0.00 0.00 0.00 0.00 0.00

GFSGL_prec_precacc24_033.txt.gz
Total_Precipitation_Accumulation
0.00 0.00 0.00 0.00 0.00 0.00 0.00 0.00 0.00 0.00 0.00 0.00 0.00 0.01 0.01 0.00 0.01 0.02 0.04 0.05 0.05 0.04 0.03 0.02 0.01 0.01 0.01 0.01 0.00 0.00 0.00 0.00 0.00 0.00 0.00 0.00 0.00 0.00 0.00 0.00 0.00 0.00 0.01
0.01 0.01 0.01 0.00 0.00 0.00 0.00 0.00 0.00 0.00 0.00 0.00 0.00 0.00 0.00 0.01 0.03 0.05 0.05 0.03 0.02 0.01 0.01 0.00 0.00 0.00 0.00 0.00 0.00 0.00 0.00 0.00 0.00 0.00 0.00 0.00 0.00 0.00 0.00 0.00 0.01 0.00 0.00
0.01 0.01 0.00 0.00 0.00 0.00 0.00 0.00 0.00 0.00 0.00 0.00 0.00 0.00 0.00 0.01 0.02 0.02 0.01 0.00 0.00 0.00 0.00 0.00 0.00 0.00 0.00 0.00 0.00 0.00 0.00 0.01 0.03 0.06 0.02 0.00 0.00 0.00 0.01 0.01 0.01 0.02 0.02
0.01 0.00 0.00 0.00 0.00 0.00 0.00 0.00 0.00 0.00 0.00 0.00 0.00 0.01 0.01 0.00 0.00 0.00 0.00 0.00 0.00 0.01 0.00 0.00 0.00 0.00 0.00 0.00 0.00 0.01 0.01 0.03 0.03 0.03 0.02 0.01 0.00 0.00 0.02 0.03 0.04 0.04 0.03
0.00 0.00 0.00 0.00 0.00 0.00 0.00 0.00 0.00 0.00 0.00 0.01 0.01 0.00 0.00 0.02 0.00 0.00 0.00 0.01 0.01 0.00 0.00 0.00 0.00 0.00 0.00 0.00 0.00 0.01 0.01 0.02 0.03 0.03 0.04 0.04 0.04 0.04 0.05 0.06 0.05 0.03 0.02
0.00 0.00 0.00 0.00 0.00 0.00 0.00 0.00 0.00 0.00 0.00 0.00 0.00 0.01 0.04 0.03 0.00 0.00 0.00 0.00 0.00 0.00 0.00 0.00 0.00 0.00 0.00 0.00 0.00 0.00 0.01 0.04 0.09 0.07 0.05 0.04 0.04 0.05 0.08 0.10 0.11 0.06 0.04
0.00 0.00 0.00 0.00 0.00 0.00 0.00 0.00 0.00 0.01 0.02 0.01 0.01 0.01 0.01 0.00 0.00 0.00 0.00 0.00 0.00 0.00 0.00 0.00 0.00 0.00 0.00 0.00 0.00 0.01 0.02 0.03 0.07 0.10 0.10 0.06 0.07 0.06 0.05 0.05 0.05 0.06 0.05
0.00 0.00 0.00 0.00 0.00 0.00 0.00 0.02 0.05 0.05 0.03 0.01 0.00 0.00 0.00 0.00 0.00 0.00 0.00 0.00 0.00 0.00 0.00 0.00 0.00 0.00 0.00 0.01 0.04 0.05 0.01 0.01 0.01 0.02 0.04 0.04 0.05 0.05 0.05 0.06 0.07 0.06 0.02
0.00 0.00 0.00 0.00 0.01 0.05 0.11 0.12 0.08 0.03 0.01 0.00 0.00 0.00 0.00 0.00 0.00 0.00 0.00 0.00 0.00 0.00 0.00 0.00 0.00 0.00 0.00 0.03 0.04 0.02 0.01 0.00 0.01 0.01 0.02 0.02 0.02 0.04 0.04 0.11 0.10 0.11 0.08
0.00 0.00 0.02 0.10 0.20 0.22 0.16 0.07 0.01 0.00 0.00 0.00 0.00 0.00 0.00 0.00 0.00 0.00 0.00 0.00 0.00 0.00 0.00 0.00 0.00 0.00 0.02 0.02 0.04 0.02 0.02 0.02 0.02 0.01 0.01 0.01 0.01 0.01 0.02 0.05 0.07 0.15 0.15
0.08 0.15 0.23 0.26 0.18 0.09 0.03 0.00 0.00 0.00 0.00 0.00 0.00 0.00 0.00 0.00 0.00 0.00 0.00 0.00 0.00 0.00 0.00 0.00 0.00 0.01 0.01 0.01 0.01 0.02 0.07 0.03 0.01 0.02 0.02 0.02 0.02 0.03 0.04 0.04 0.06 0.10 0.16
0.13 0.15 0.10 0.03 0.00 0.00 0.00 0.00 0.00 0.00 0.00 0.00 0.00 0.00 0.00 0.00 0.00 0.00 0.00 0.00 0.00 0.00 0.00 0.00 0.00 0.00 0.00 0.00 0.00 0.02 0.01 0.00 0.01 0.02 0.02 0.02 0.03 0.03 0.03 0.03 0.05 0.08 0.10
0.02 0.01 0.00 0.00 0.00 0.00 0.00 0.00 0.00 0.00 0.00 0.00 0.00 0.00 0.01 0.01 0.02 0.00 0.00 0.00 0.00 0.01 0.00 0.00 0.00 0.00 0.00 0.00 0.00 0.00 0.00 0.01 0.02 0.02 0.03 0.03 0.04 0.04 0.06 0.10 0.10 0.07 0.04
0.00 0.00 0.00 0.00 0.00 0.00 0.00 0.00 0.00 0.00 0.00 0.00 0.00 0.01 0.01 0.01 0.01 0.01 0.01 0.00 0.01 0.01 0.01 0.00 0.00 0.01 0.00 0.00 0.00 0.00 0.00 0.01 0.03 0.04 0.04 0.04 0.05 0.06 0.10 0.14 0.16 0.18 0.13
0.00 0.00 0.00 0.00 0.00 0.00 0.00 0.00 0.00 0.00 0.00 0.00 0.00 0.01 0.02 0.02 0.02 0.02 0.03 0.04 0.04 0.04 0.05 0.06 0.06 0.03 0.01 0.00 0.00 0.00 0.00 0.00 0.00 0.01 0.02 0.03 0.04 0.05 0.07 0.10 0.15 0.23 0.27
0.00 0.00 0.00 0.01 0.02 0.01 0.00 0.00 0.00 0.00 0.00 0.00 0.00 0.00 0.00 0.00 0.00 0.00 0.00 0.00 0.00 0.02 0.08 0.04 0.02 0.02 0.02 0.01 0.00 0.00 0.00 0.00 0.00 0.00 0.02 0.02 0.03 0.03 0.03 0.04 0.06 0.10 0.14
0.00 0.00 0.00 0.02 0.03 0.02 0.01 0.01 0.01 0.01 0.00 0.00 0.00 0.00 0.00 0.00 0.01 0.00 0.00 0.00 0.01 0.07 0.11 0.02 0.01 0.02 0.01 0.01 0.00 0.00 0.00 0.00 0.00 0.01 0.01 0.02 0.02 0.02 0.02 0.02 0.03 0.03 0.03
0.00 0.00 0.01 0.02 0.02 0.02 0.02 0.03 0.04 0.04 0.04 0.02 0.01 0.01 0.03 0.04 0.03 0.00 0.00 0.05 0.10 0.08 0.07 0.03 0.01 0.01 0.02 0.01 0.00 0.00 0.00 0.00 0.00 0.00 0.01 0.01 0.02 0.02 0.02 0.02 0.02 0.02 0.01
0.00 0.00 0.01 0.01 0.01 0.01 0.02 0.03 0.04 0.06 0.07 0.05 0.02 0.01 0.00 0.00 0.01 0.01 0.02 0.10 0.06 0.04 0.03 0.03 0.03 0.04 0.03 0.02 0.00 0.00 0.00 0.00 0.00 0.00 0.00 0.01 0.01 0.01 0.01 0.01 0.01 0.01 0.00
0.00 0.01 0.01 0.01 0.02 0.02 0.03 0.05 0.06 0.07 0.07 0.06 0.05 0.03 0.02 0.04 0.05 0.03 0.04 0.06 0.06 0.03 0.02 0.03 0.03 0.03 0.03 0.03 0.01 0.01 0.01 0.00 0.01 0.00 0.00 0.00 0.00 0.00 0.01 0.01 0.01 0.01 0.00
0.01 0.02 0.02 0.04 0.04 0.05 0.06 0.07 0.07 0.08 0.08 0.07 0.05 0.03 0.05 0.11 0.11 0.08 0.05 0.04 0.04 0.05 0.05 0.05 0.04 0.04 0.04 0.04 0.03 0.02 0.00 0.00 0.00 0.00 0.00 0.00 0.00 0.00 0.00 0.01 0.01 0.00 0.00
0.02 0.03 0.03 0.05 0.06 0.08 0.07 0.06 0.07 0.08 0.09 0.10 0.09 0.09 0.10 0.13 0.10 0.08 0.09 0.11 0.09 0.08 0.09 0.10 0.09 0.06 0.06 0.05 0.05 0.04 0.01 0.01 0.00 0.00 0.00 0.00 0.00 0.00 0.01 0.00 0.00 0.00 0.00
0.02 0.04 0.05 0.06 0.07 0.07 0.07 0.08 0.13 0.16 0.18 0.20 0.22 0.19 0.15 0.19 0.18 0.17 0.17 0.15 0.15 0.14 0.11 0.13 0.14 0.12 0.09 0.06 0.05 0.04 0.02 0.01 0.00 0.00 0.00 0.00 0.00 0.01 0.01 0.01 0.00 0.00 0.00
0.03 0.06 0.08 0.09 0.12 0.18 0.20 0.19 0.18 0.19 0.21 0.21 0.17 0.16 0.17 0.16 0.18 0.19 0.17 0.15 0.15 0.15 0.17 0.21 0.22 0.21 0.18 0.15 0.13 0.08 0.04 0.01 0.01 0.01 0.02 0.02 0.01 0.01 0.00 0.00 0.00 0.00 0.00
0.11 0.14 0.17 0.20 0.21 0.20 0.18 0.17 0.21 0.21 0.19 0.17 0.16 0.13 0.11 0.11 0.11 0.09 0.08 0.09 0.10 0.09 0.09 0.09 0.09 0.09 0.10 0.13 0.14 0.08 0.05 0.04 0.04 0.03 0.06 0.04 0.02 0.01 0.00 0.00 0.00 0.00 0.00
0.09 0.14 0.15 0.14 0.17 0.20 0.23 0.21 0.18 0.17 0.16 0.14 0.13 0.12 0.11 0.10 0.08 0.06 0.05 0.06 0.07 0.06 0.06 0.07 0.07 0.06 0.07 0.08 0.08 0.09 0.05 0.04 0.05 0.05 0.05 0.05 0.04 0.02 0.01 0.00 0.00 0.00 0.00

GFSGL_prec_precacc24_036.txt.gz
Total_Precipitation_Accumulation
0.01 0.01 0.01 0.04 0.07 0.05 0.03 0.01 0.00 0.00 0.00 0.00 0.00 0.00 0.00 0.00 0.01 0.02 0.04 0.05 0.05 0.04 0.03 0.02 0.01 0.01 0.01 0.01 0.00 0.00 0.00 0.00 0.00 0.00 0.00 0.00 0.00 0.00 0.00 0.00 0.00 0.00 0.01
0.04 0.05 0.05 0.04 0.03 0.01 0.00 0.00 0.00 0.00 0.00 0.00 0.00 0.00 0.00 0.01 0.03 0.05 0.05 0.03 0.02 0.01 0.01 0.00 0.00 0.00 0.00 0.00 0.00 0.00 0.00 0.00 0.00 0.00 0.00 0.00 0.00 0.00 0.00 0.00 0.00 0.00 0.00
0.06 0.06 0.03 0.01 0.01 0.00 0.00 0.00 0.00 0.00 0.00 0.00 0.00 0.00 0.00 0.01 0.02 0.02 0.01 0.00 0.00 0.00 0.00 0.00 0.00 0.00 0.00 0.00 0.00 0.00 0.00 0.00 0.01 0.03 0.01 0.00 0.00 0.00 0.01 0.01 0.01 0.02 0.02
0.04 0.02 0.01 0.01 0.00 0.00 0.00 0.00 0.00 0.00 0.00 0.00 0.00 0.01 0.01 0.00 0.00 0.00 0.00 0.00 0.00 0.01 0.00 0.00 0.00 0.00 0.00 0.00 0.00 0.00 0.00 0.01 0.01 0.01 0.01 0.01 0.00 0.00 0.02 0.03 0.04 0.04 0.03
0.01 0.00 0.01 0.00 0.00 0.00 0.00 0.00 0.00 0.00 0.00 0.01 0.01 0.01 0.01 0.03 0.00 0.00 0.00 0.01 0.01 0.00 0.00 0.00 0.00 0.00 0.00 0.00 0.00 0.00 0.01 0.02 0.02 0.02 0.03 0.02 0.02 0.03 0.05 0.06 0.05 0.03 0.02
0.01 0.00 0.00 0.00 0.00 0.00 0.00 0.00 0.00 0.00 0.00 0.00 0.02 0.05 0.07 0.04 0.00 0.00 0.00 0.00 0.00 0.00 0.00 0.00 0.00 0.00 0.00 0.00 0.00 0.00 0.00 0.03 0.07 0.06 0.05 0.04 0.03 0.04 0.06 0.10 0.11 0.07 0.04
0.00 0.00 0.01 0.00 0.00 0.00 0.00 0.00 0.00 0.01 0.04 0.06 0.07 0.05 0.02 0.00 0.00 0.00 0.00 0.00 0.00 0.00 0.00 0.00 0.00 0.00 0.00 0.00 0.00 0.00 0.01 0.02 0.05 0.06 0.07 0.05 0.06 0.06 0.05 0.05 0.05 0.07 0.06
0.00 0.00 0.00 0.00 0.00 0.00 0.00 0.02 0.06 0.10 0.14 0.09 0.03 0.01 0.00 0.00 0.00 0.00 0.00 0.00 0.00 0.00 0.00 0.00 0.00 0.00 0.00 0.00 0.03 0.03 0.01 0.00 0.01 0.02 0.03 0.04 0.04 0.04 0.05 0.06 0.08 0.06 0.02
0.00 0.00 0.00 0.00 0.01 0.06 0.14 0.19 0.19 0.14 0.05 0.01 0.00 0.00 0.00 0.00 0.00 0.00 0.00 0.00 0.00 0.00 0.00 0.00 0.00 0.00 0.00 0.01 0.02 0.01 0.00 0.00 0.00 0.01 0.02 0.02 0.01 0.01 0.02 0.08 0.09 0.11 0.08
0.00 0.00 0.03 0.10 0.22 0.28 0.23 0.13 0.05 0.02 0.00 0.00 0.00 0.00 0.00 0.00 0.00 0.00 0.00 0.00 0.00 0.00 0.00 0.00 0.00 0.00 0.01 0.01 0.01 0.01 0.01 0.02 0.01 0.01 0.01 0.01 0.01 0.01 0.02 0.04 0.06 0.13 0.13
0.08 0.15 0.24 0.29 0.23 0.13 0.06 0.01 0.00 0.00 0.00 0.00 0.00 0.00 0.00 0.00 0.00 0.00 0.00 0.00 0.00 0.00 0.00 0.00 0.00 0.00 0.00 0.00 0.00 0.00 0.03 0.01 0.01 0.01 0.02 0.01 0.02 0.02 0.04 0.04 0.06 0.10 0.16
0.14 0.16 0.12 0.04 0.00 0.00 0.00 0.00 0.00 0.00 0.00 0.00 0.00 0.00 0.00 0.00 0.00 0.00 0.00 0.00 0.00 0.00 0.00 0.00 0.00 0.00 0.00 0.00 0.00 0.00 0.00 0.00 0.01 0.02 0.02 0.02 0.02 0.02 0.02 0.03 0.05 0.08 0.10
0.02 0.01 0.00 0.00 0.00 0.00 0.00 0.00 0.00 0.00 0.00 0.00 0.00 0.00 0.01 0.01 0.02 0.00 0.00 0.00 0.00 0.01 0.00 0.00 0.01 0.02 0.02 0.01 0.00 0.00 0.00 0.00 0.01 0.02 0.02 0.02 0.02 0.03 0.04 0.09 0.09 0.07 0.04
0.00 0.00 0.00 0.00 0.00 0.00 0.00 0.00 0.00 0.00 0.00 0.00 0.00 0.01 0.01 0.01 0.01 0.01 0.01 0.00 0.01 0.01 0.01 0.01 0.01 0.03 0.04 0.03 0.01 0.01 0.00 0.00 0.01 0.02 0.02 0.03 0.03 0.04 0.08 0.11 0.13 0.16 0.12
0.00 0.00 0.00 0.00 0.00 0.00 0.00 0.00 0.00 0.00 0.00 0.00 0.00 0.01 0.02 0.02 0.02 0.02 0.03 0.04 0.04 0.04 0.05 0.07 0.08 0.07 0.06 0.05 0.04 0.03 0.01 0.00 0.00 0.01 0.02 0.02 0.02 0.03 0.04 0.06 0.10 0.19 0.25
0.00 0.00 0.00 0.00 0.00 0.00 0.00 0.00 0.00 0.00 0.00 0.00 0.00 0.00 0.00 0.00 0.00 0.00 0.00 0.01 0.03 0.04 0.10 0.06 0.03 0.03 0.03 0.02 0.03 0.02 0.02 0.01 0.00 0.00 0.01 0.01 0.02 0.01 0.02 0.03 0.04 0.07 0.12
0.00 0.00 0.00 0.00 0.01 0.01 0.01 0.01 0.01 0.01 0.00 0.00 0.00 0.00 0.00 0.01 0.02 0.05 0.07 0.08 0.07 0.08 0.14 0.03 0.02 0.03 0.03 0.03 0.04 0.03 0.01 0.00 0.00 0.00 0.01 0.01 0.01 0.01 0.02 0.02 0.02 0.02 0.02
0.00 0.00 0.00 0.01 0.01 0.02 0.02 0.03 0.04 0.04 0.04 0.02 0.01 0.01 0.03 0.04 0.05 0.03 0.03 0.10 0.13 0.09 0.07 0.04 0.02 0.02 0.03 0.04 0.04 0.04 0.02 0.00 0.00 0.00 0.00 0.01 0.01 0.01 0.02 0.01 0.02 0.01 0.01
0.00 0.00 0.01 0.01 0.01 0.01 0.02 0.03 0.04 0.06 0.07 0.06 0.03 0.02 0.00 0.00 0.01 0.02 0.03 0.14 0.08 0.04 0.03 0.04 0.03 0.04 0.04 0.04 0.04 0.04 0.02 0.01 0.00 0.00 0.00 0.01 0.01 0.01 0.01 0.01 0.01 0.01 0.00
0.00 0.00 0.01 0.01 0.02 0.03 0.03 0.05 0.06 0.07 0.06 0.06 0.05 0.03 0.02 0.05 0.06 0.03 0.04 0.08 0.09 0.06 0.03 0.04 0.03 0.04 0.04 0.04 0.03 0.04 0.03 0.02 0.01 0.00 0.00 0.00 0.00 0.01 0.01 0.00 0.01 0.01 0.00
0.00 0.01 0.02 0.03 0.04 0.05 0.06 0.08 0.07 0.08 0.08 0.07 0.05 0.04 0.06 0.13 0.14 0.12 0.11 0.11 0.12 0.11 0.11 0.10 0.07 0.06 0.06 0.06 0.07 0.06 0.04 0.02 0.01 0.00 0.00 0.00 0.00 0.01 0.00 0.00 0.00 0.00 0.00
0.01 0.02 0.03 0.04 0.05 0.07 0.07 0.06 0.07 0.09 0.09 0.10 0.09 0.09 0.11 0.14 0.13 0.14 0.16 0.18 0.16 0.16 0.15 0.14 0.11 0.08 0.08 0.10 0.10 0.10 0.06 0.03 0.01 0.01 0.00 0.00 0.00 0.01 0.01 0.01 0.00 0.00 0.00
0.02 0.03 0.04 0.04 0.05 0.06 0.07 0.08 0.13 0.16 0.18 0.20 0.22 0.19 0.15 0.20 0.20 0.19 0.20 0.20 0.20 0.20 0.16 0.16 0.15 0.12 0.10 0.10 0.11 0.12 0.10 0.04 0.02 0.01 0.00 0.00 0.00 0.01 0.01 0.01 0.00 0.00 0.00
0.03 0.05 0.06 0.07 0.10 0.17 0.20 0.19 0.19 0.19 0.21 0.21 0.17 0.16 0.17 0.17 0.18 0.19 0.18 0.17 0.18 0.19 0.22 0.24 0.24 0.21 0.19 0.17 0.17 0.16 0.13 0.09 0.09 0.08 0.05 0.02 0.01 0.01 0.01 0.01 0.00 0.00 0.00
0.10 0.13 0.16 0.18 0.20 0.19 0.17 0.17 0.21 0.21 0.19 0.17 0.16 0.14 0.11 0.11 0.11 0.09 0.08 0.09 0.10 0.10 0.10 0.10 0.10 0.10 0.10 0.13 0.16 0.13 0.10 0.10 0.11 0.09 0.13 0.09 0.05 0.03 0.01 0.00 0.00 0.00 0.00
0.08 0.13 0.14 0.13 0.16 0.19 0.22 0.20 0.17 0.16 0.14 0.12 0.12 0.12 0.11 0.10 0.09 0.07 0.06 0.06 0.07 0.07 0.06 0.07 0.07 0.07 0.07 0.08 0.09 0.11 0.08 0.08 0.11 0.11 0.10 0.10 0.07 0.05 0.03 0.01 0.00 0.00 0.00

GFSGL_prec_precacc24_042.txt.gz
Total_Precipitation_Accumulation
0.04 0.05 0.05 0.10 0.15 0.17 0.19 0.12 0.07 0.04 0.01 0.00 0.00 0.00 0.00 0.00 0.00 0.01 0.02 0.04 0.05 0.04 0.03 0.02 0.01 0.01 0.01 0.01 0.00 0.00 0.00 0.01 0.01 0.00 0.00 0.00 0.00 0.00 0.00 0.00 0.00 0.00 0.00
0.08 0.10 0.11 0.13 0.13 0.13 0.12 0.09 0.05 0.02 0.01 0.00 0.00 0.00 0.00 0.00 0.00 0.02 0.03 0.04 0.04 0.02 0.01 0.00 0.00 0.00 0.00 0.00 0.00 0.00 0.00 0.00 0.00 0.00 0.00 0.00 0.00 0.00 0.00 0.00 0.00 0.00 0.00
0.11 0.10 0.08 0.06 0.09 0.11 0.10 0.07 0.03 0.01 0.01 0.00 0.00 0.00 0.00 0.00 0.00 0.02 0.04 0.05 0.03 0.00 0.00 0.00 0.00 0.00 0.00 0.00 0.00 0.00 0.00 0.00 0.00 0.00 0.00 0.00 0.00 0.00 0.00 0.00 0.00 0.00 0.00
0.09 0.05 0.04 0.04 0.03 0.02 0.02 0.01 0.00 0.00 0.00 0.01 0.01 0.01 0.00 0.00 0.03 0.06 0.09 0.05 0.00 0.01 0.00 0.00 0.00 0.00 0.00 0.00 0.00 0.00 0.00 0.00 0.00 0.00 0.00 0.00 0.00 0.00 0.01 0.01 0.01 0.01 0.01
0.03 0.02 0.02 0.01 0.01 0.00 0.00 0.00 0.00 0.00 0.00 0.00 0.01 0.01 0.03 0.07 0.11 0.11 0.04 0.02 0.01 0.00 0.00 0.00 0.00 0.00 0.00 0.00 0.00 0.00 0.00 0.00 0.00 0.00 0.00 0.01 0.01 0.01 0.02 0.02 0.02 0.01 0.00
0.01 0.00 0.01 0.00 0.00 0.00 0.00 0.00 0.00 0.00 0.00 0.02 0.04 0.06 0.16 0.19 0.07 0.02 0.01 0.00 0.00 0.00 0.00 0.00 0.00 0.00 0.00 0.00 0.00 0.00 0.00 0.00 0.01 0.02 0.01 0.01 0.01 0.02 0.04 0.04 0.03 0.03 0.03
0.00 0.00 0.01 0.00 0.00 0.00 0.00 0.00 0.00 0.03 0.07 0.12 0.21 0.23 0.12 0.02 0.03 0.02 0.01 0.00 0.00 0.00 0.00 0.00 0.00 0.00 0.00 0.00 0.00 0.00 0.00 0.00 0.01 0.01 0.01 0.02 0.03 0.04 0.03 0.03 0.02 0.04 0.04
0.00 0.00 0.00 0.00 0.00 0.00 0.01 0.03 0.09 0.17 0.23 0.21 0.10 0.02 0.00 0.01 0.02 0.00 0.00 0.00 0.00 0.00 0.00 0.00 0.00 0.00 0.00 0.00 0.00 0.00 0.00 0.00 0.00 0.00 0.00 0.00 0.01 0.01 0.02 0.03 0.06 0.05 0.01
0.00 0.00 0.00 0.00 0.01 0.07 0.16 0.24 0.24 0.16 0.06 0.02 0.01 0.00 0.00 0.01 0.00 0.00 0.00 0.00 0.00 0.00 0.00 0.00 0.00 0.00 0.00 0.00 0.00 0.00 0.00 0.00 0.00 0.00 0.00 0.00 0.00 0.00 0.00 0.03 0.03 0.05 0.04
0.00 0.00 0.03 0.10 0.22 0.28 0.23 0.13 0.05 0.02 0.01 0.00 0.00 0.00 0.00 0.00 0.00 0.00 0.00 0.00 0.00 0.00 0.00 0.00 0.00 0.00 0.00 0.00 0.00 0.00 0.00 0.00 0.00 0.00 0.00 0.00 0.00 0.00 0.01 0.03 0.04 0.08 0.06
0.08 0.15 0.24 0.29 0.23 0.14 0.06 0.01 0.00 0.00 0.00 0.00 0.00 0.00 0.00 0.00 0.00 0.00 0.00 0.00 0.00 0.00 0.00 0.00 0.00 0.00 0.00 0.00 0.00 0.00 0.00 0.00 0.02 0.02 0.02 0.01 0.01 0.01 0.03 0.03 0.04 0.09 0.15
0.14 0.16 0.12 0.04 0.00 0.00 0.00 0.00 0.00 0.00 0.00 0.00 0.00 0.00 0.00 0.00 0.00 0.00 0.00 0.00 0.00 0.00 0.00 0.00 0.00 0.00 0.01 0.01 0.02 0.02 0.01 0.02 0.05 0.05 0.02 0.01 0.01 0.01 0.01 0.01 0.03 0.07 0.09
0.02 0.01 0.00 0.00 0.00 0.00 0.00 0.00 0.00 0.00 0.00 0.00 0.00 0.00 0.00 0.01 0.02 0.00 0.00 0.00 0.00 0.01 0.01 0.01 0.01 0.02 0.03 0.03 0.02 0.01 0.03 0.08 0.07 0.07 0.05 0.02 0.01 0.01 0.01 0.05 0.06 0.05 0.03
0.00 0.00 0.00 0.00 0.00 0.00 0.00 0.00 0.00 0.00 0.00 0.00 0.00 0.00 0.01 0.01 0.01 0.01 0.01 0.01 0.01 0.02 0.02 0.02 0.03 0.04 0.05 0.06 0.05 0.06 0.08 0.07 0.06 0.06 0.05 0.04 0.04 0.02 0.01 0.02 0.05 0.10 0.07
0.00 0.00 0.00 0.00 0.00 0.00 0.00 0.00 0.00 0.00 0.00 0.00 0.00 0.01 0.02 0.02 0.02 0.02 0.04 0.05 0.06 0.07 0.10 0.14 0.13 0.11 0.10 0.08 0.07 0.07 0.08 0.10 0.10 0.06 0.06 0.05 0.03 0.01 0.01 0.01 0.02 0.08 0.16
0.00 0.00 0.00 0.00 0.00 0.00 0.00 0.00 0.00 0.00 0.00 0.00 0.00 0.00 0.00 0.00 0.00 0.00 0.00 0.02 0.05 0.10 0.24 0.13 0.06 0.06 0.07 0.06 0.08 0.05 0.06 0.08 0.06 0.06 0.06 0.04 0.02 0.01 0.01 0.01 0.01 0.01 0.03
0.00 0.00 0.00 0.00 0.00 0.00 0.00 0.01 0.01 0.01 0.00 0.00 0.00 0.00 0.00 0.01 0.02 0.05 0.07 0.09 0.08 0.13 0.24 0.11 0.10 0.10 0.10 0.10 0.10 0.06 0.04 0.03 0.06 0.08 0.07 0.05 0.04 0.03 0.02 0.01 0.01 0.01 0.01
0.00 0.00 0.00 0.00 0.00 0.00 0.01 0.01 0.02 0.03 0.03 0.02 0.01 0.01 0.03 0.04 0.05 0.03 0.03 0.10 0.15 0.12 0.13 0.10 0.08 0.07 0.07 0.08 0.08 0.06 0.05 0.04 0.05 0.03 0.03 0.03 0.03 0.02 0.02 0.01 0.01 0.01 0.01
0.00 0.00 0.00 0.00 0.00 0.01 0.01 0.02 0.03 0.05 0.07 0.05 0.02 0.01 0.00 0.00 0.01 0.02 0.03 0.14 0.11 0.07 0.05 0.06 0.06 0.08 0.09 0.11 0.11 0.09 0.07 0.05 0.05 0.06 0.04 0.03 0.03 0.03 0.01 0.00 0.01 0.01 0.00
0.00 0.00 0.00 0.00 0.01 0.02 0.02 0.05 0.06 0.06 0.06 0.05 0.04 0.03 0.02 0.04 0.06 0.03 0.04 0.09 0.12 0.10 0.08 0.10 0.09 0.11 0.13 0.15 0.13 0.13 0.11 0.07 0.06 0.05 0.04 0.04 0.04 0.03 0.01 0.00 0.01 0.01 0.00
0.00 0.01 0.01 0.01 0.02 0.03 0.05 0.06 0.06 0.07 0.07 0.07 0.05 0.04 0.06 0.13 0.14 0.12 0.11 0.11 0.13 0.14 0.15 0.15 0.13 0.13 0.12 0.11 0.12 0.12 0.11 0.09 0.07 0.06 0.06 0.05 0.06 0.04 0.01 0.01 0.01 0.00 0.00
0.01 0.01 0.01 0.03 0.04 0.06 0.05 0.04 0.05 0.07 0.08 0.09 0.08 0.09 0.11 0.14 0.13 0.14 0.16 0.18 0.18 0.19 0.20 0.19 0.16 0.14 0.14 0.16 0.15 0.15 0.11 0.07 0.06 0.07 0.08 0.06 0.05 0.04 0.02 0.01 0.01 0.00 0.00
0.01 0.02 0.03 0.03 0.03 0.04 0.05 0.06 0.10 0.14 0.17 0.19 0.22 0.19 0.15 0.19 0.20 0.19 0.20 0.20 0.20 0.21 0.18 0.19 0.19 0.16 0.14 0.14 0.16 0.17 0.15 0.09 0.08 0.10 0.10 0.09 0.06 0.04 0.02 0.01 0.01 0.01 0.00
0.02 0.05 0.05 0.06 0.08 0.14 0.17 0.17 0.17 0.18 0.20 0.20 0.16 0.15 0.17 0.17 0.18 0.19 0.18 0.17 0.18 0.19 0.22 0.25 0.26 0.24 0.21 0.19 0.20 0.19 0.17 0.15 0.17 0.16 0.16 0.13 0.07 0.05 0.03 0.01 0.01 0.00 0.00
0.10 0.12 0.13 0.15 0.16 0.15 0.14 0.15 0.19 0.19 0.17 0.15 0.14 0.11 0.10 0.10 0.09 0.08 0.08 0.08 0.10 0.10 0.10 0.10 0.11 0.11 0.12 0.15 0.17 0.15 0.13 0.15 0.18 0.19 0.24 0.21 0.14 0.09 0.04 0.02 0.01 0.01 0.01
0.07 0.10 0.09 0.07 0.10 0.15 0.17 0.16 0.14 0.12 0.10 0.08 0.07 0.07 0.07 0.07 0.06 0.05 0.04 0.04 0.04 0.05 0.05 0.07 0.08 0.08 0.08 0.09 0.11 0.13 0.11 0.12 0.16 0.20 0.22 0.23 0.19 0.14 0.09 0.05 0.04 0.02 0.01

GFSGL_prec_precacc24_045.txt.gz
Total_Precipitation_Accumulation
0.04 0.05 0.05 0.11 0.16 0.18 0.23 0.15 0.07 0.04 0.02 0.00 0.01 0.01 0.01 0.01 0.00 0.00 0.00 0.01 0.02 0.03 0.03 0.03 0.01 0.01 0.01 0.01 0.00 0.00 0.00 0.00 0.00 0.00 0.00 0.00 0.00 0.00 0.00 0.00 0.00 0.00 0.00
0.08 0.11 0.12 0.14 0.13 0.14 0.13 0.09 0.05 0.02 0.01 0.01 0.00 0.00 0.00 0.00 0.00 0.00 0.00 0.01 0.04 0.07 0.06 0.01 0.00 0.00 0.00 0.00 0.00 0.00 0.00 0.00 0.00 0.00 0.00 0.00 0.00 0.00 0.00 0.00 0.00 0.00 0.00
0.11 0.11 0.09 0.08 0.10 0.11 0.10 0.07 0.04 0.02 0.01 0.00 0.00 0.01 0.01 0.00 0.00 0.01 0.04 0.08 0.14 0.07 0.01 0.00 0.00 0.00 0.00 0.00 0.00 0.00 0.00 0.00 0.00 0.00 0.00 0.00 0.00 0.00 0.00 0.00 0.00 0.00 0.00
0.09 0.05 0.04 0.05 0.04 0.03 0.03 0.02 0.01 0.00 0.00 0.01 0.01 0.01 0.01 0.01 0.04 0.08 0.13 0.11 0.02 0.01 0.00 0.00 0.00 0.00 0.00 0.00 0.00 0.00 0.00 0.00 0.00 0.00 0.00 0.00 0.00 0.00 0.00 0.01 0.00 0.00 0.00
0.06 0.04 0.05 0.03 0.02 0.02 0.01 0.00 0.00 0.00 0.00 0.00 0.01 0.02 0.05 0.08 0.13 0.13 0.05 0.01 0.00 0.00 0.00 0.00 0.00 0.00 0.00 0.00 0.00 0.00 0.00 0.00 0.00 0.00 0.00 0.00 0.00 0.00 0.00 0.01 0.01 0.00 0.00
0.02 0.02 0.01 0.01 0.00 0.00 0.00 0.00 0.00 0.00 0.00 0.02 0.04 0.06 0.14 0.17 0.07 0.02 0.01 0.00 0.00 0.00 0.00 0.00 0.00 0.00 0.00 0.00 0.00 0.00 0.00 0.00 0.00 0.00 0.00 0.00 0.00 0.01 0.02 0.01 0.01 0.01 0.01
0.00 0.00 0.01 0.00 0.00 0.00 0.00 0.00 0.00 0.03 0.07 0.12 0.21 0.23 0.12 0.02 0.03 0.02 0.01 0.00 0.00 0.00 0.00 0.00 0.00 0.00 0.00 0.00 0.00 0.00 0.00 0.00 0.00 0.00 0.00 0.01 0.01 0.01 0.00 0.00 0.00 0.02 0.02
0.00 0.00 0.00 0.00 0.00 0.00 0.01 0.03 0.09 0.17 0.23 0.21 0.10 0.02 0.00 0.01 0.02 0.00 0.00 0.00 0.00 0.00 0.00 0.00 0.00 0.00 0.00 0.00 0.00 0.00 0.00 0.00 0.00 0.00 0.00 0.00 0.00 0.00 0.00 0.01 0.04 0.03 0.00
0.00 0.00 0.00 0.00 0.01 0.07 0.16 0.24 0.24 0.16 0.06 0.02 0.01 0.00 0.00 0.00 0.00 0.00 0.00 0.00 0.00 0.00 0.00 0.00 0.00 0.00 0.00 0.00 0.00 0.00 0.00 0.01 0.01 0.00 0.00 0.00 0.00 0.00 0.00 0.02 0.03 0.04 0.02
0.00 0.00 0.03 0.10 0.22 0.28 0.23 0.13 0.05 0.02 0.01 0.00 0.00 0.00 0.00 0.00 0.00 0.00 0.00 0.00 0.00 0.00 0.00 0.00 0.00 0.00 0.00 0.00 0.00 0.00 0.01 0.00 0.02 0.03 0.03 0.01 0.00 0.00 0.01 0.02 0.03 0.06 0.05
0.08 0.15 0.24 0.29 0.23 0.14 0.06 0.01 0.00 0.00 0.00 0.00 0.00 0.00 0.00 0.00 0.00 0.00 0.00 0.00 0.00 0.00 0.00 0.00 0.00 0.00 0.00 0.00 0.00 0.00 0.00 0.01 0.04 0.05 0.05 0.02 0.01 0.00 0.01 0.01 0.02 0.06 0.13
0.14 0.16 0.12 0.04 0.00 0.00 0.00 0.00 0.00 0.00 0.00 0.00 0.00 0.00 0.00 0.00 0.00 0.00 0.00 0.00 0.00 0.00 0.01 0.01 0.01 0.01 0.01 0.01 0.02 0.03 0.02 0.02 0.05 0.06 0.03 0.02 0.01 0.00 0.00 0.00 0.01 0.04 0.07
0.01 0.01 0.00 0.00 0.00 0.00 0.00 0.00 0.00 0.00 0.00 0.00 0.00 0.00 0.00 0.00 0.01 0.00 0.00 0.00 0.00 0.01 0.01 0.01 0.01 0.02 0.03 0.04 0.03 0.02 0.03 0.10 0.10 0.10 0.07 0.04 0.02 0.02 0.02 0.02 0.02 0.02 0.02
0.00 0.00 0.00 0.00 0.00 0.00 0.00 0.00 0.00 0.00 0.00 0.00 0.00 0.00 0.00 0.01 0.01 0.01 0.01 0.01 0.01 0.02 0.02 0.02 0.03 0.05 0.06 0.06 0.06 0.07 0.10 0.10 0.11 0.11 0.08 0.06 0.08 0.08 0.05 0.02 0.02 0.02 0.04
0.00 0.00 0.00 0.00 0.00 0.00 0.00 0.00 0.00 0.00 0.00 0.00 0.00 0.01 0.01 0.01 0.01 0.02 0.03 0.05 0.06 0.06 0.10 0.14 0.13 0.12 0.10 0.09 0.09 0.09 0.10 0.12 0.12 0.08 0.07 0.08 0.07 0.05 0.03 0.01 0.01 0.01 0.06
0.00 0.00 0.00 0.00 0.00 0.00 0.00 0.00 0.00 0.00 0.00 0.00 0.00 0.00 0.00 0.00 0.00 0.00 0.00 0.02 0.05 0.10 0.24 0.14 0.07 0.07 0.08 0.08 0.12 0.12 0.11 0.11 0.08 0.07 0.08 0.07 0.07 0.05 0.03 0.02 0.01 0.01 0.01
0.00 0.00 0.00 0.00 0.00 0.00 0.00 0.00 0.00 0.00 0.00 0.00 0.00 0.00 0.00 0.01 0.02 0.05 0.07 0.09 0.08 0.13 0.24 0.11 0.10 0.11 0.12 0.13 0.15 0.15 0.15 0.09 0.07 0.09 0.08 0.06 0.06 0.07 0.06 0.04 0.02 0.01 0.00
0.00 0.00 0.00 0.00 0.00 0.00 0.00 0.00 0.01 0.01 0.01 0.01 0.01 0.01 0.03 0.04 0.05 0.03 0.03 0.10 0.14 0.11 0.12 0.10 0.08 0.07 0.07 0.08 0.10 0.12 0.11 0.11 0.07 0.05 0.05 0.05 0.05 0.05 0.06 0.03 0.02 0.02 0.01
0.00 0.00 0.00 0.00 0.00 0.00 0.01 0.01 0.02 0.04 0.05 0.04 0.02 0.01 0.00 0.00 0.01 0.02 0.03 0.13 0.10 0.07 0.05 0.06 0.06 0.08 0.10 0.11 0.13 0.16 0.16 0.15 0.13 0.09 0.06 0.05 0.05 0.06 0.06 0.03 0.02 0.01 0.01
0.00 0.00 0.00 0.00 0.01 0.01 0.02 0.03 0.04 0.04 0.04 0.04 0.03 0.02 0.02 0.04 0.05 0.02 0.03 0.07 0.11 0.10 0.08 0.10 0.09 0.11 0.13 0.15 0.14 0.15 0.15 0.13 0.14 0.14 0.09 0.06 0.06 0.06 0.06 0.05 0.02 0.02 0.01
0.00 0.01 0.01 0.01 0.01 0.02 0.04 0.05 0.04 0.05 0.06 0.05 0.03 0.03 0.06 0.13 0.13 0.10 0.10 0.10 0.12 0.13 0.14 0.15 0.13 0.12 0.12 0.11 0.12 0.13 0.13 0.12 0.14 0.14 0.12 0.10 0.09 0.07 0.06 0.06 0.03 0.01 0.01
0.01 0.01 0.01 0.01 0.03 0.04 0.04 0.03 0.03 0.05 0.06 0.07 0.07 0.07 0.10 0.14 0.13 0.13 0.16 0.17 0.17 0.18 0.19 0.18 0.15 0.14 0.14 0.16 0.16 0.16 0.12 0.10 0.10 0.12 0.11 0.09 0.08 0.07 0.08 0.07 0.05 0.02 0.00
0.01 0.01 0.02 0.02 0.02 0.02 0.04 0.05 0.08 0.11 0.15 0.17 0.19 0.16 0.13 0.18 0.19 0.19 0.20 0.19 0.20 0.20 0.18 0.19 0.19 0.15 0.14 0.14 0.16 0.18 0.16 0.10 0.10 0.13 0.13 0.10 0.08 0.08 0.08 0.07 0.05 0.03 0.01
0.02 0.04 0.05 0.05 0.08 0.12 0.14 0.14 0.14 0.16 0.18 0.18 0.14 0.13 0.14 0.15 0.16 0.18 0.18 0.17 0.18 0.19 0.21 0.25 0.26 0.24 0.21 0.19 0.20 0.19 0.18 0.16 0.18 0.17 0.18 0.15 0.09 0.08 0.10 0.08 0.05 0.02 0.01
0.08 0.11 0.12 0.13 0.13 0.12 0.10 0.12 0.16 0.16 0.14 0.13 0.11 0.09 0.08 0.07 0.07 0.06 0.06 0.07 0.08 0.08 0.08 0.08 0.11 0.11 0.12 0.15 0.18 0.15 0.14 0.16 0.19 0.21 0.26 0.23 0.16 0.12 0.10 0.09 0.06 0.03 0.01
0.02 0.06 0.06 0.05 0.08 0.12 0.14 0.13 0.10 0.10 0.08 0.07 0.06 0.05 0.05 0.05 0.04 0.03 0.03 0.03 0.02 0.02 0.03 0.03 0.04 0.06 0.08 0.09 0.11 0.13 0.11 0.13 0.18 0.22 0.25 0.25 0.22 0.18 0.15 0.12 0.10 0.06 0.02

GFSGL_prec_precacc24_048.txt.gz
Total_Precipitation_Accumulation
0.05 0.05 0.06 0.14 0.18 0.19 0.24 0.17 0.12 0.07 0.02 0.00 0.01 0.01 0.01 0.01 0.01 0.00 0.00 0.00 0.01 0.01 0.01 0.04 0.03 0.01 0.01 0.00 0.00 0.00 0.00 0.00 0.00 0.00 0.00 0.00 0.00 0.00 0.00 0.00 0.00 0.00 0.00
0.12 0.15 0.16 0.19 0.15 0.19 0.17 0.15 0.10 0.03 0.01 0.01 0.00 0.00 0.00 0.00 0.01 0.00 0.00 0.01 0.03 0.11 0.17 0.09 0.02 0.00 0.00 0.00 0.00 0.00 0.00 0.00 0.00 0.00 0.00 0.00 0.00 0.00 0.00 0.00 0.00 0.00 0.00
0.19 0.24 0.13 0.15 0.16 0.15 0.18 0.11 0.06 0.02 0.02 0.00 0.00 0.01 0.01 0.00 0.01 0.02 0.05 0.09 0.18 0.15 0.04 0.00 0.00 0.00 0.00 0.00 0.00 0.00 0.00 0.00 0.00 0.00 0.00 0.00 0.00 0.00 0.00 0.00 0.00 0.00 0.00
0.16 0.12 0.06 0.14 0.12 0.06 0.04 0.04 0.02 0.01 0.01 0.02 0.02 0.02 0.01 0.03 0.07 0.11 0.15 0.13 0.04 0.01 0.00 0.00 0.00 0.00 0.00 0.00 0.00 0.00 0.00 0.00 0.00 0.00 0.00 0.00 0.00 0.00 0.00 0.00 0.00 0.00 0.00
0.13 0.06 0.07 0.08 0.04 0.04 0.03 0.02 0.01 0.00 0.00 0.00 0.01 0.02 0.05 0.09 0.13 0.13 0.05 0.01 0.00 0.00 0.00 0.00 0.00 0.00 0.00 0.00 0.00 0.00 0.00 0.00 0.00 0.00 0.00 0.00 0.00 0.00 0.00 0.00 0.00 0.00 0.00
0.03 0.03 0.02 0.01 0.01 0.01 0.01 0.00 0.00 0.00 0.00 0.02 0.04 0.06 0.14 0.17 0.07 0.02 0.01 0.00 0.00 0.00 0.00 0.00 0.00 0.00 0.00 0.00 0.00 0.00 0.00 0.00 0.00 0.00 0.00 0.00 0.00 0.00 0.01 0.00 0.00 0.00 0.01
0.02 0.01 0.01 0.01 0.00 0.00 0.00 0.00 0.00 0.03 0.07 0.12 0.21 0.23 0.11 0.02 0.03 0.02 0.01 0.00 0.00 0.00 0.00 0.00 0.00 0.00 0.00 0.00 0.00 0.00 0.00 0.00 0.00 0.00 0.00 0.00 0.00 0.01 0.01 0.00 0.00 0.01 0.01
0.00 0.00 0.00 0.00 0.00 0.00 0.01 0.03 0.09 0.17 0.23 0.21 0.10 0.02 0.00 0.01 0.02 0.00 0.00 0.00 0.00 0.00 0.00 0.00 0.00 0.00 0.00 0.00 0.00 0.00 0.00 0.00 0.00 0.01 0.01 0.00 0.00 0.00 0.01 0.01 0.04 0.03 0.00
0.00 0.00 0.00 0.00 0.01 0.07 0.16 0.24 0.24 0.16 0.06 0.02 0.01 0.00 0.00 0.00 0.00 0.00 0.00 0.00 0.00 0.00 0.00 0.00 0.00 0.00 0.00 0.00 0.00 0.00 0.00 0.01 0.02 0.02 0.02 0.02 0.01 0.00 0.00 0.02 0.02 0.03 0.02
0.00 0.00 0.03 0.10 0.22 0.28 0.23 0.13 0.05 0.02 0.01 0.00 0.00 0.00 0.00 0.00 0.00 0.00 0.00 0.00 0.00 0.00 0.00 0.00 0.00 0.00 0.00 0.00 0.00 0.00 0.02 0.01 0.03 0.05 0.06 0.04 0.01 0.01 0.01 0.02 0.03 0.07 0.05
0.07 0.15 0.24 0.28 0.23 0.14 0.06 0.01 0.00 0.00 0.00 0.00 0.00 0.00 0.00 0.00 0.00 0.00 0.00 0.00 0.00 0.00 0.00 0.00 0.00 0.00 0.00 0.00 0.00 0.01 0.02 0.02 0.06 0.07 0.06 0.06 0.03 0.01 0.00 0.00 0.00 0.02 0.09
0.13 0.15 0.12 0.04 0.00 0.00 0.00 0.00 0.00 0.00 0.00 0.00 0.00 0.00 0.00 0.00 0.00 0.00 0.00 0.00 0.00 0.00 0.01 0.01 0.01 0.01 0.01 0.01 0.02 0.03 0.02 0.04 0.08 0.08 0.04 0.03 0.03 0.02 0.00 0.00 0.00 0.00 0.02
0.01 0.00 0.00 0.00 0.00 0.00 0.00 0.00 0.00 0.00 0.00 0.00 0.00 0.00 0.00 0.00 0.00 0.00 0.00 0.00 0.00 0.01 0.01 0.01 0.01 0.02 0.03 0.04 0.03 0.02 0.03 0.10 0.11 0.12 0.10 0.06 0.04 0.04 0.05 0.05 0.03 0.01 0.01
0.00 0.00 0.00 0.00 0.00 0.00 0.00 0.00 0.00 0.00 0.00 0.00 0.00 0.00 0.00 0.00 0.00 0.00 0.01 0.01 0.01 0.02 0.02 0.02 0.03 0.05 0.06 0.07 0.06 0.08 0.11 0.11 0.12 0.12 0.10 0.08 0.09 0.09 0.06 0.03 0.04 0.03 0.04
0.00 0.00 0.00 0.00 0.00 0.00 0.00 0.00 0.00 0.00 0.00 0.00 0.00 0.00 0.00 0.01 0.01 0.02 0.03 0.04 0.05 0.05 0.10 0.14 0.13 0.12 0.11 0.10 0.09 0.09 0.11 0.12 0.13 0.09 0.10 0.10 0.08 0.06 0.04 0.02 0.02 0.02 0.03
0.00 0.00 0.00 0.00 0.00 0.00 0.00 0.00 0.00 0.00 0.00 0.00 0.00 0.00 0.00 0.00 0.00 0.00 0.00 0.02 0.05 0.10 0.24 0.14 0.07 0.07 0.08 0.08 0.12 0.12 0.12 0.13 0.13 0.16 0.15 0.09 0.08 0.07 0.04 0.04 0.03 0.03 0.01
0.00 0.00 0.00 0.00 0.00 0.00 0.00 0.00 0.00 0.00 0.00 0.00 0.00 0.00 0.00 0.01 0.02 0.05 0.07 0.09 0.08 0.13 0.24 0.11 0.10 0.11 0.12 0.13 0.15 0.16 0.16 0.15 0.16 0.16 0.12 0.07 0.07 0.08 0.08 0.07 0.05 0.04 0.02
0.00 0.00 0.00 0.00 0.00 0.00 0.00 0.00 0.00 0.01 0.01 0.00 0.00 0.01 0.03 0.04 0.05 0.03 0.03 0.10 0.14 0.11 0.12 0.09 0.08 0.07 0.07 0.09 0.10 0.12 0.12 0.12 0.16 0.15 0.14 0.09 0.07 0.06 0.08 0.06 0.04 0.04 0.02
0.00 0.00 0.00 0.00 0.00 0.00 0.01 0.01 0.02 0.03 0.05 0.04 0.02 0.01 0.00 0.00 0.01 0.02 0.03 0.13 0.10 0.07 0.04 0.05 0.05 0.08 0.10 0.12 0.14 0.16 0.17 0.17 0.18 0.19 0.16 0.12 0.09 0.08 0.07 0.05 0.05 0.04 0.03
0.02 0.02 0.01 0.01 0.01 0.01 0.02 0.03 0.04 0.04 0.03 0.02 0.02 0.02 0.01 0.03 0.04 0.02 0.03 0.07 0.11 0.09 0.08 0.10 0.09 0.11 0.13 0.16 0.15 0.15 0.15 0.14 0.16 0.18 0.17 0.15 0.11 0.10 0.08 0.06 0.06 0.06 0.03
0.04 0.02 0.01 0.01 0.01 0.02 0.03 0.04 0.03 0.04 0.04 0.04 0.03 0.02 0.04 0.10 0.10 0.10 0.09 0.10 0.13 0.14 0.14 0.15 0.13 0.13 0.12 0.12 0.13 0.14 0.14 0.12 0.14 0.16 0.16 0.15 0.15 0.12 0.08 0.08 0.08 0.06 0.04
0.02 0.01 0.01 0.01 0.02 0.03 0.03 0.02 0.02 0.04 0.05 0.06 0.06 0.07 0.09 0.12 0.11 0.12 0.15 0.17 0.17 0.18 0.19 0.18 0.15 0.14 0.14 0.17 0.16 0.16 0.12 0.10 0.10 0.12 0.12 0.11 0.10 0.09 0.09 0.09 0.09 0.09 0.04
0.01 0.01 0.02 0.01 0.02 0.02 0.04 0.04 0.07 0.10 0.13 0.15 0.18 0.15 0.11 0.14 0.15 0.16 0.19 0.19 0.20 0.21 0.18 0.19 0.18 0.16 0.14 0.15 0.16 0.19 0.17 0.11 0.11 0.14 0.14 0.11 0.09 0.09 0.09 0.09 0.10 0.11 0.05
0.00 0.01 0.01 0.02 0.05 0.11 0.13 0.13 0.13 0.14 0.16 0.16 0.12 0.11 0.13 0.12 0.11 0.12 0.13 0.15 0.16 0.18 0.21 0.24 0.25 0.23 0.21 0.20 0.20 0.20 0.18 0.16 0.19 0.19 0.20 0.16 0.09 0.08 0.10 0.10 0.09 0.09 0.07
0.01 0.01 0.02 0.03 0.05 0.06 0.07 0.10 0.14 0.13 0.10 0.08 0.08 0.07 0.07 0.06 0.05 0.04 0.04 0.05 0.06 0.06 0.06 0.07 0.09 0.10 0.11 0.14 0.16 0.15 0.15 0.17 0.20 0.21 0.26 0.24 0.17 0.13 0.11 0.11 0.10 0.10 0.08
0.00 0.02 0.03 0.02 0.02 0.05 0.10 0.11 0.10 0.09 0.07 0.06 0.05 0.05 0.04 0.04 0.04 0.03 0.02 0.02 0.01 0.01 0.01 0.02 0.03 0.05 0.06 0.07 0.07 0.11 0.12 0.13 0.18 0.22 0.26 0.26 0.23 0.19 0.16 0.15 0.14 0.14 0.09

GFSGL_prec_precacc24_051.txt.gz
Total_Precipitation_Accumulation
0.10 0.05 0.07 0.17 0.36 0.25 0.24 0.17 0.12 0.09 0.04 0.02 0.02 0.01 0.02 0.02 0.01 0.00 0.00 0.01 0.01 0.02 0.03 0.05 0.04 0.03 0.01 0.00 0.00 0.00 0.00 0.00 0.00 0.00 0.00 0.00 0.00 0.00 0.00 0.00 0.00 0.00 0.00
0.20 0.23 0.42 0.46 0.52 0.41 0.25 0.16 0.15 0.09 0.03 0.01 0.01 0.00 0.00 0.00 0.01 0.01 0.01 0.01 0.05 0.14 0.20 0.11 0.03 0.00 0.00 0.00 0.00 0.00 0.00 0.00 0.00 0.00 0.00 0.00 0.00 0.00 0.00 0.00 0.00 0.00 0.00
0.42 0.48 0.45 0.31 0.24 0.23 0.32 0.21 0.12 0.07 0.04 0.01 0.00 0.01 0.01 0.00 0.01 0.03 0.06 0.12 0.22 0.18 0.05 0.01 0.00 0.00 0.00 0.00 0.00 0.00 0.00 0.00 0.00 0.00 0.00 0.00 0.00 0.00 0.00 0.00 0.00 0.00 0.00
0.27 0.18 0.13 0.22 0.14 0.07 0.09 0.10 0.05 0.03 0.02 0.02 0.02 0.02 0.02 0.03 0.08 0.11 0.16 0.14 0.05 0.01 0.00 0.00 0.00 0.00 0.00 0.00 0.00 0.00 0.00 0.00 0.00 0.00 0.00 0.00 0.00 0.00 0.00 0.00 0.00 0.00 0.00
0.14 0.06 0.09 0.10 0.05 0.08 0.06 0.05 0.03 0.02 0.02 0.01 0.01 0.02 0.05 0.09 0.13 0.14 0.06 0.02 0.00 0.00 0.00 0.00 0.00 0.00 0.00 0.00 0.00 0.00 0.00 0.00 0.00 0.00 0.00 0.00 0.00 0.00 0.00 0.00 0.01 0.00 0.00
0.03 0.04 0.04 0.02 0.02 0.03 0.04 0.03 0.01 0.00 0.01 0.02 0.04 0.06 0.14 0.17 0.07 0.03 0.01 0.00 0.00 0.00 0.00 0.00 0.00 0.00 0.00 0.00 0.00 0.00 0.00 0.00 0.00 0.00 0.00 0.00 0.00 0.00 0.01 0.02 0.01 0.01 0.02
0.02 0.02 0.01 0.01 0.03 0.01 0.01 0.00 0.00 0.03 0.07 0.12 0.21 0.23 0.11 0.02 0.03 0.02 0.01 0.00 0.00 0.00 0.00 0.00 0.00 0.00 0.00 0.00 0.00 0.00 0.00 0.00 0.00 0.00 0.01 0.00 0.01 0.01 0.04 0.03 0.02 0.03 0.03
0.01 0.02 0.02 0.01 0.01 0.01 0.01 0.03 0.09 0.17 0.23 0.21 0.10 0.02 0.00 0.01 0.02 0.00 0.00 0.00 0.00 0.00 0.00 0.00 0.00 0.00 0.00 0.00 0.00 0.00 0.00 0.00 0.00 0.01 0.01 0.00 0.01 0.01 0.03 0.03 0.06 0.05 0.03
0.02 0.03 0.02 0.00 0.01 0.07 0.16 0.24 0.24 0.16 0.06 0.02 0.01 0.00 0.00 0.00 0.00 0.00 0.00 0.00 0.00 0.00 0.00 0.00 0.00 0.00 0.00 0.00 0.00 0.00 0.00 0.01 0.02 0.02 0.02 0.02 0.01 0.01 0.01 0.03 0.02 0.04 0.03
0.00 0.00 0.02 0.10 0.21 0.27 0.22 0.13 0.05 0.02 0.01 0.00 0.00 0.00 0.00 0.00 0.00 0.00 0.00 0.00 0.00 0.00 0.00 0.00 0.00 0.00 0.00 0.00 0.00 0.00 0.02 0.01 0.03 0.05 0.06 0.04 0.02 0.02 0.02 0.03 0.05 0.11 0.09
0.06 0.11 0.20 0.27 0.22 0.14 0.06 0.01 0.00 0.00 0.00 0.00 0.00 0.00 0.00 0.00 0.00 0.00 0.00 0.00 0.00 0.00 0.00 0.00 0.00 0.00 0.00 0.00 0.00 0.01 0.02 0.02 0.06 0.07 0.06 0.06 0.04 0.02 0.01 0.01 0.01 0.02 0.05
0.08 0.12 0.11 0.04 0.00 0.00 0.00 0.00 0.00 0.00 0.00 0.00 0.00 0.00 0.00 0.00 0.00 0.00 0.00 0.00 0.00 0.00 0.01 0.01 0.01 0.01 0.01 0.01 0.02 0.03 0.02 0.04 0.08 0.08 0.04 0.03 0.03 0.03 0.01 0.01 0.01 0.00 0.00
0.00 0.00 0.00 0.00 0.00 0.00 0.00 0.00 0.00 0.00 0.00 0.00 0.00 0.00 0.00 0.00 0.00 0.00 0.00 0.00 0.00 0.01 0.01 0.01 0.01 0.02 0.03 0.04 0.03 0.02 0.03 0.11 0.12 0.13 0.10 0.06 0.04 0.05 0.08 0.11 0.12 0.08 0.02
0.00 0.00 0.00 0.00 0.00 0.00 0.00 0.00 0.00 0.00 0.00 0.00 0.00 0.00 0.00 0.00 0.00 0.00 0.01 0.01 0.01 0.02 0.02 0.02 0.03 0.05 0.06 0.07 0.06 0.08 0.11 0.11 0.13 0.14 0.11 0.08 0.09 0.10 0.08 0.04 0.06 0.06 0.09
0.00 0.00 0.00 0.00 0.00 0.00 0.00 0.00 0.00 0.00 0.00 0.00 0.00 0.00 0.00 0.01 0.00 0.01 0.03 0.04 0.05 0.05 0.10 0.14 0.13 0.12 0.11 0.10 0.09 0.09 0.11 0.12 0.13 0.09 0.11 0.12 0.13 0.10 0.05 0.02 0.03 0.04 0.05
0.00 0.00 0.00 0.00 0.00 0.00 0.00 0.00 0.00 0.00 0.00 0.00 0.00 0.00 0.00 0.00 0.00 0.00 0.00 0.02 0.05 0.10 0.24 0.14 0.07 0.07 0.08 0.08 0.12 0.12 0.12 0.13 0.13 0.16 0.19 0.16 0.13 0.10 0.06 0.05 0.05 0.04 0.02
0.00 0.00 0.00 0.00 0.00 0.00 0.00 0.00 0.00 0.00 0.00 0.00 0.00 0.00 0.00 0.01 0.02 0.05 0.07 0.09 0.08 0.13 0.24 0.11 0.10 0.11 0.12 0.13 0.15 0.16 0.16 0.16 0.16 0.16 0.13 0.10 0.10 0.11 0.10 0.08 0.07 0.05 0.04
0.00 0.00 0.00 0.00 0.00 0.00 0.00 0.00 0.01 0.01 0.01 0.00 0.00 0.01 0.03 0.04 0.05 0.03 0.03 0.08 0.13 0.11 0.12 0.09 0.08 0.07 0.07 0.09 0.10 0.12 0.12 0.12 0.16 0.15 0.15 0.14 0.14 0.14 0.13 0.09 0.06 0.06 0.03
0.00 0.00 0.00 0.00 0.01 0.01 0.02 0.02 0.02 0.03 0.05 0.04 0.02 0.01 0.00 0.00 0.01 0.01 0.02 0.11 0.10 0.07 0.04 0.05 0.05 0.08 0.10 0.12 0.14 0.16 0.17 0.17 0.18 0.20 0.17 0.16 0.15 0.16 0.14 0.10 0.08 0.06 0.06
0.03 0.04 0.05 0.06 0.05 0.04 0.03 0.03 0.03 0.04 0.03 0.02 0.02 0.01 0.01 0.02 0.02 0.01 0.02 0.05 0.10 0.09 0.08 0.10 0.09 0.11 0.13 0.15 0.15 0.15 0.15 0.14 0.16 0.18 0.18 0.18 0.16 0.16 0.15 0.12 0.10 0.09 0.05
0.18 0.16 0.13 0.09 0.06 0.04 0.03 0.04 0.03 0.04 0.04 0.03 0.02 0.02 0.04 0.09 0.08 0.07 0.08 0.09 0.11 0.13 0.14 0.15 0.13 0.13 0.12 0.12 0.13 0.14 0.14 0.12 0.14 0.16 0.16 0.16 0.18 0.18 0.13 0.11 0.10 0.08 0.06
0.15 0.11 0.07 0.05 0.03 0.03 0.02 0.01 0.02 0.03 0.05 0.06 0.06 0.07 0.09 0.11 0.10 0.10 0.10 0.13 0.15 0.17 0.18 0.18 0.15 0.14 0.14 0.17 0.16 0.17 0.13 0.10 0.10 0.12 0.12 0.11 0.11 0.11 0.12 0.11 0.10 0.10 0.08
0.07 0.05 0.03 0.02 0.01 0.01 0.01 0.01 0.02 0.06 0.12 0.15 0.17 0.15 0.10 0.12 0.13 0.14 0.15 0.14 0.13 0.13 0.13 0.16 0.17 0.15 0.14 0.15 0.17 0.20 0.18 0.11 0.11 0.14 0.15 0.12 0.09 0.09 0.09 0.10 0.10 0.12 0.10
0.03 0.02 0.01 0.01 0.00 0.01 0.03 0.02 0.02 0.07 0.13 0.15 0.10 0.07 0.08 0.08 0.08 0.09 0.09 0.08 0.07 0.08 0.14 0.19 0.21 0.20 0.19 0.18 0.20 0.20 0.18 0.16 0.21 0.20 0.20 0.16 0.10 0.08 0.11 0.10 0.09 0.10 0.11
0.02 0.02 0.01 0.01 0.01 0.01 0.01 0.01 0.02 0.06 0.07 0.06 0.06 0.05 0.05 0.04 0.04 0.03 0.03 0.03 0.02 0.02 0.02 0.03 0.05 0.08 0.10 0.11 0.12 0.13 0.15 0.18 0.20 0.21 0.27 0.24 0.17 0.13 0.11 0.11 0.11 0.11 0.11
0.01 0.01 0.00 0.00 0.01 0.01 0.01 0.01 0.02 0.02 0.02 0.03 0.04 0.04 0.03 0.03 0.03 0.02 0.02 0.01 0.01 0.01 0.01 0.01 0.02 0.02 0.03 0.04 0.06 0.08 0.09 0.12 0.16 0.23 0.27 0.28 0.24 0.19 0.17 0.16 0.15 0.16 0.11

GFSGL_prec_precacc24_054.txt.gz
Total_Precipitation_Accumulation
0.17 0.09 0.10 0.25 0.50 0.41 0.29 0.25 0.26 0.29 0.28 0.14 0.06 0.02 0.03 0.02 0.01 0.00 0.00 0.01 0.02 0.03 0.05 0.09 0.10 0.07 0.03 0.01 0.00 0.00 0.00 0.00 0.00 0.00 0.00 0.00 0.00 0.00 0.00 0.00 0.00 0.00 0.00
0.25 0.27 0.47 0.69 0.88 0.77 0.58 0.52 0.30 0.19 0.11 0.07 0.04 0.02 0.01 0.01 0.01 0.01 0.01 0.02 0.05 0.14 0.25 0.19 0.10 0.04 0.01 0.00 0.00 0.00 0.00 0.00 0.00 0.00 0.00 0.00 0.00 0.00 0.00 0.00 0.00 0.00 0.00
0.46 0.52 0.50 0.42 0.65 0.76 0.52 0.33 0.21 0.15 0.13 0.07 0.04 0.03 0.02 0.01 0.01 0.03 0.07 0.13 0.22 0.19 0.08 0.02 0.00 0.00 0.00 0.00 0.00 0.00 0.00 0.00 0.00 0.00 0.00 0.00 0.00 0.00 0.00 0.00 0.00 0.00 0.00
0.30 0.21 0.17 0.28 0.24 0.27 0.19 0.15 0.08 0.07 0.07 0.06 0.04 0.03 0.02 0.03 0.08 0.11 0.16 0.14 0.05 0.01 0.00 0.00 0.01 0.00 0.00 0.00 0.00 0.00 0.00 0.00 0.00 0.01 0.00 0.00 0.00 0.00 0.00 0.00 0.00 0.00 0.00
0.18 0.11 0.16 0.14 0.13 0.16 0.13 0.10 0.06 0.06 0.04 0.03 0.02 0.03 0.05 0.09 0.14 0.15 0.06 0.02 0.00 0.00 0.00 0.00 0.00 0.00 0.00 0.00 0.00 0.00 0.00 0.00 0.00 0.00 0.00 0.00 0.00 0.00 0.00 0.00 0.01 0.01 0.00
0.10 0.08 0.11 0.10 0.10 0.14 0.11 0.07 0.03 0.03 0.03 0.03 0.05 0.07 0.15 0.17 0.09 0.03 0.02 0.00 0.00 0.00 0.00 0.00 0.00 0.00 0.00 0.00 0.00 0.00 0.00 0.00 0.00 0.00 0.00 0.00 0.00 0.00 0.01 0.02 0.02 0.03 0.04
0.05 0.05 0.07 0.06 0.08 0.08 0.07 0.03 0.03 0.05 0.08 0.13 0.22 0.23 0.12 0.02 0.04 0.02 0.01 0.00 0.00 0.00 0.00 0.00 0.00 0.00 0.00 0.00 0.00 0.00 0.00 0.00 0.00 0.00 0.01 0.00 0.01 0.01 0.04 0.03 0.02 0.03 0.05
0.02 0.04 0.04 0.05 0.05 0.04 0.04 0.04 0.09 0.17 0.23 0.21 0.11 0.02 0.00 0.01 0.02 0.00 0.00 0.00 0.00 0.00 0.00 0.00 0.00 0.00 0.00 0.00 0.00 0.00 0.00 0.00 0.00 0.01 0.01 0.00 0.01 0.01 0.03 0.04 0.06 0.06 0.03
0.03 0.06 0.05 0.02 0.03 0.06 0.13 0.21 0.23 0.16 0.06 0.02 0.01 0.00 0.00 0.00 0.00 0.00 0.00 0.00 0.00 0.00 0.00 0.00 0.00 0.00 0.00 0.00 0.00 0.00 0.00 0.01 0.02 0.02 0.02 0.02 0.01 0.01 0.01 0.03 0.03 0.05 0.05
0.01 0.01 0.02 0.07 0.14 0.19 0.19 0.12 0.05 0.02 0.01 0.00 0.00 0.00 0.00 0.00 0.00 0.00 0.00 0.00 0.00 0.00 0.00 0.00 0.00 0.00 0.00 0.00 0.00 0.00 0.02 0.01 0.03 0.05 0.06 0.04 0.02 0.02 0.02 0.03 0.06 0.14 0.13
0.03 0.05 0.09 0.15 0.15 0.12 0.06 0.01 0.00 0.00 0.00 0.00 0.00 0.00 0.00 0.00 0.00 0.00 0.00 0.00 0.00 0.00 0.00 0.00 0.00 0.00 0.00 0.00 0.00 0.01 0.02 0.02 0.06 0.07 0.06 0.06 0.04 0.02 0.01 0.01 0.01 0.03 0.10
0.01 0.03 0.06 0.03 0.00 0.00 0.00 0.00 0.00 0.00 0.00 0.00 0.00 0.00 0.00 0.00 0.00 0.00 0.00 0.00 0.00 0.00 0.01 0.01 0.01 0.01 0.01 0.01 0.02 0.03 0.02 0.04 0.08 0.08 0.04 0.03 0.03 0.03 0.01 0.01 0.01 0.01 0.01
0.00 0.00 0.00 0.00 0.00 0.00 0.00 0.00 0.00 0.00 0.00 0.00 0.00 0.00 0.00 0.00 0.00 0.00 0.00 0.00 0.00 0.01 0.01 0.01 0.01 0.02 0.03 0.04 0.03 0.02 0.03 0.11 0.12 0.13 0.10 0.06 0.04 0.05 0.08 0.11 0.12 0.09 0.07
0.00 0.00 0.00 0.00 0.00 0.00 0.00 0.00 0.00 0.00 0.00 0.00 0.00 0.00 0.00 0.00 0.00 0.00 0.01 0.01 0.01 0.02 0.02 0.02 0.03 0.05 0.06 0.07 0.06 0.08 0.11 0.11 0.13 0.14 0.11 0.08 0.09 0.10 0.08 0.05 0.09 0.08 0.10
0.00 0.00 0.00 0.00 0.00 0.00 0.00 0.00 0.00 0.00 0.00 0.00 0.00 0.00 0.00 0.01 0.00 0.01 0.01 0.01 0.02 0.04 0.09 0.14 0.13 0.12 0.11 0.10 0.09 0.09 0.11 0.12 0.13 0.09 0.11 0.12 0.13 0.11 0.09 0.07 0.08 0.05 0.06
0.00 0.00 0.00 0.00 0.00 0.00 0.00 0.00 0.00 0.00 0.00 0.00 0.00 0.00 0.01 0.01 0.00 0.00 0.00 0.02 0.05 0.10 0.22 0.14 0.07 0.07 0.08 0.08 0.12 0.12 0.12 0.13 0.13 0.16 0.19 0.16 0.13 0.10 0.07 0.06 0.07 0.06 0.02
0.00 0.00 0.00 0.00 0.00 0.00 0.00 0.00 0.00 0.00 0.00 0.00 0.00 0.00 0.01 0.01 0.02 0.05 0.07 0.08 0.07 0.10 0.21 0.11 0.10 0.11 0.12 0.13 0.15 0.16 0.16 0.16 0.16 0.16 0.13 0.10 0.11 0.12 0.12 0.11 0.09 0.09 0.05
0.00 0.00 0.00 0.00 0.00 0.00 0.00 0.01 0.01 0.02 0.03 0.02 0.01 0.01 0.03 0.04 0.05 0.03 0.03 0.06 0.07 0.07 0.11 0.09 0.08 0.07 0.07 0.09 0.10 0.12 0.12 0.13 0.16 0.16 0.15 0.14 0.15 0.15 0.15 0.12 0.11 0.11 0.06
0.00 0.00 0.01 0.03 0.03 0.03 0.04 0.05 0.06 0.06 0.06 0.05 0.03 0.02 0.01 0.00 0.01 0.01 0.01 0.05 0.06 0.05 0.04 0.05 0.05 0.08 0.10 0.12 0.14 0.16 0.17 0.17 0.18 0.20 0.17 0.16 0.15 0.17 0.16 0.15 0.16 0.13 0.10
0.11 0.11 0.11 0.14 0.16 0.17 0.15 0.11 0.07 0.06 0.06 0.04 0.03 0.02 0.01 0.01 0.01 0.01 0.01 0.04 0.07 0.08 0.07 0.08 0.08 0.11 0.13 0.15 0.15 0.16 0.15 0.14 0.16 0.18 0.19 0.18 0.16 0.17 0.18 0.16 0.15 0.13 0.07
0.31 0.30 0.28 0.24 0.21 0.17 0.14 0.10 0.07 0.06 0.04 0.03 0.02 0.01 0.03 0.08 0.08 0.07 0.08 0.09 0.11 0.11 0.12 0.13 0.11 0.12 0.12 0.12 0.13 0.14 0.14 0.13 0.15 0.16 0.16 0.16 0.19 0.18 0.14 0.14 0.13 0.11 0.08
0.25 0.20 0.17 0.14 0.12 0.09 0.06 0.04 0.04 0.04 0.02 0.02 0.02 0.03 0.09 0.11 0.10 0.10 0.10 0.11 0.14 0.16 0.16 0.14 0.12 0.12 0.14 0.17 0.16 0.17 0.13 0.10 0.10 0.12 0.13 0.11 0.11 0.11 0.12 0.12 0.12 0.13 0.10
0.13 0.11 0.08 0.07 0.06 0.04 0.03 0.03 0.03 0.02 0.02 0.03 0.05 0.10 0.10 0.09 0.09 0.10 0.12 0.11 0.10 0.10 0.08 0.08 0.10 0.11 0.13 0.15 0.16 0.20 0.18 0.12 0.11 0.15 0.16 0.13 0.10 0.09 0.09 0.10 0.11 0.13 0.13
0.07 0.06 0.04 0.03 0.03 0.02 0.03 0.03 0.02 0.02 0.02 0.03 0.03 0.04 0.05 0.06 0.06 0.07 0.07 0.07 0.06 0.05 0.05 0.05 0.06 0.08 0.13 0.16 0.18 0.19 0.18 0.17 0.21 0.21 0.20 0.17 0.10 0.09 0.11 0.11 0.09 0.10 0.11
0.04 0.04 0.04 0.03 0.03 0.02 0.02 0.02 0.01 0.01 0.01 0.01 0.02 0.02 0.02 0.02 0.03 0.03 0.03 0.02 0.02 0.01 0.01 0.01 0.02 0.03 0.04 0.06 0.09 0.12 0.15 0.18 0.20 0.20 0.26 0.25 0.18 0.13 0.12 0.12 0.11 0.11 0.11
0.02 0.02 0.01 0.01 0.01 0.01 0.01 0.01 0.01 0.01 0.01 0.01 0.01 0.01 0.01 0.01 0.02 0.02 0.02 0.01 0.01 0.01 0.01 0.01 0.01 0.02 0.02 0.02 0.04 0.06 0.08 0.10 0.15 0.20 0.26 0.28 0.24 0.20 0.17 0.16 0.15 0.16 0.12

GFSGL_prec_precacc24_057.txt.gz
Total_Precipitation_Accumulation
0.18 0.08 0.10 0.25 0.51 0.42 0.32 0.28 0.31 0.42 0.45 0.53 0.25 0.10 0.11 0.13 0.07 0.02 0.01 0.01 0.02 0.03 0.05 0.09 0.11 0.08 0.05 0.03 0.02 0.01 0.01 0.01 0.00 0.00 0.00 0.00 0.00 0.00 0.00 0.00 0.00 0.00 0.00
0.28 0.27 0.48 0.69 0.89 0.80 0.63 0.75 0.52 0.29 0.16 0.17 0.16 0.11 0.08 0.09 0.09 0.06 0.02 0.02 0.05 0.14 0.25 0.19 0.11 0.04 0.02 0.01 0.00 0.00 0.00 0.00 0.00 0.00 0.00 0.00 0.00 0.00 0.00 0.00 0.00 0.00 0.00
0.49 0.57 0.54 0.46 0.67 0.81 0.66 0.48 0.32 0.19 0.17 0.11 0.09 0.09 0.07 0.07 0.05 0.06 0.07 0.13 0.23 0.20 0.09 0.03 0.01 0.00 0.00 0.00 0.00 0.00 0.00 0.00 0.00 0.00 0.00 0.00 0.00 0.00 0.00 0.00 0.00 0.00 0.00
0.30 0.22 0.18 0.31 0.26 0.31 0.31 0.28 0.14 0.09 0.08 0.10 0.09 0.07 0.07 0.07 0.10 0.13 0.17 0.15 0.06 0.02 0.01 0.01 0.01 0.00 0.00 0.00 0.00 0.00 0.00 0.00 0.00 0.01 0.00 0.00 0.00 0.00 0.00 0.00 0.00 0.00 0.00
0.18 0.11 0.16 0.16 0.16 0.18 0.18 0.15 0.13 0.10 0.07 0.05 0.06 0.07 0.09 0.11 0.16 0.15 0.06 0.02 0.00 0.00 0.00 0.00 0.00 0.00 0.00 0.00 0.00 0.00 0.00 0.00 0.00 0.00 0.00 0.00 0.00 0.00 0.00 0.00 0.01 0.01 0.00
0.10 0.08 0.12 0.11 0.14 0.18 0.13 0.08 0.06 0.09 0.09 0.06 0.08 0.11 0.17 0.18 0.10 0.04 0.02 0.00 0.00 0.00 0.00 0.00 0.00 0.00 0.00 0.00 0.00 0.00 0.00 0.00 0.00 0.00 0.00 0.00 0.00 0.00 0.01 0.02 0.02 0.03 0.04
0.04 0.05 0.07 0.08 0.12 0.12 0.11 0.07 0.07 0.12 0.13 0.15 0.24 0.25 0.13 0.03 0.06 0.03 0.01 0.00 0.00 0.00 0.00 0.00 0.00 0.00 0.00 0.00 0.00 0.00 0.00 0.00 0.00 0.00 0.01 0.00 0.01 0.01 0.04 0.03 0.02 0.03 0.05
0.02 0.04 0.05 0.06 0.08 0.08 0.09 0.07 0.11 0.16 0.24 0.25 0.15 0.05 0.02 0.02 0.04 0.01 0.00 0.00 0.00 0.00 0.00 0.00 0.00 0.00 0.00 0.00 0.00 0.00 0.00 0.00 0.00 0.01 0.01 0.00 0.01 0.01 0.03 0.03 0.04 0.04 0.03
0.03 0.06 0.05 0.04 0.06 0.08 0.16 0.21 0.23 0.17 0.09 0.04 0.03 0.02 0.01 0.01 0.01 0.00 0.00 0.00 0.00 0.00 0.00 0.00 0.00 0.00 0.00 0.00 0.00 0.00 0.00 0.01 0.02 0.02 0.02 0.02 0.01 0.01 0.01 0.02 0.04 0.05 0.05
0.01 0.03 0.03 0.04 0.06 0.10 0.11 0.10 0.06 0.03 0.02 0.01 0.00 0.00 0.00 0.00 0.00 0.00 0.00 0.00 0.00 0.00 0.00 0.00 0.00 0.00 0.00 0.00 0.00 0.00 0.02 0.01 0.03 0.05 0.06 0.04 0.02 0.02 0.02 0.03 0.06 0.15 0.14
0.00 0.00 0.01 0.03 0.06 0.05 0.03 0.02 0.01 0.01 0.00 0.00 0.00 0.00 0.00 0.00 0.00 0.00 0.00 0.00 0.00 0.00 0.00 0.00 0.00 0.00 0.00 0.00 0.00 0.01 0.02 0.02 0.06 0.07 0.06 0.06 0.04 0.02 0.01 0.01 0.01 0.05 0.13
0.00 0.01 0.02 0.01 0.00 0.00 0.00 0.00 0.00 0.00 0.00 0.00 0.00 0.00 0.00 0.00 0.00 0.00 0.00 0.00 0.00 0.00 0.01 0.01 0.01 0.01 0.01 0.01 0.02 0.03 0.02 0.04 0.08 0.08 0.04 0.03 0.03 0.03 0.01 0.01 0.01 0.01 0.02
0.00 0.00 0.00 0.00 0.00 0.00 0.00 0.00 0.00 0.00 0.00 0.00 0.00 0.00 0.00 0.00 0.00 0.00 0.00 0.00 0.00 0.00 0.01 0.01 0.01 0.02 0.03 0.04 0.03 0.02 0.03 0.11 0.12 0.13 0.10 0.06 0.04 0.05 0.08 0.11 0.12 0.09 0.07
0.00 0.00 0.00 0.00 0.00 0.00 0.00 0.00 0.00 0.00 0.00 0.00 0.00 0.00 0.00 0.00 0.00 0.00 0.01 0.01 0.01 0.01 0.01 0.02 0.02 0.04 0.06 0.07 0.06 0.08 0.11 0.11 0.13 0.14 0.11 0.08 0.09 0.10 0.08 0.05 0.09 0.09 0.13
0.00 0.00 0.00 0.00 0.00 0.00 0.00 0.00 0.00 0.00 0.00 0.00 0.00 0.00 0.00 0.01 0.00 0.01 0.01 0.02 0.02 0.03 0.05 0.08 0.07 0.09 0.10 0.09 0.09 0.09 0.11 0.12 0.13 0.09 0.11 0.12 0.13 0.11 0.09 0.07 0.09 0.08 0.10
0.00 0.00 0.00 0.00 0.00 0.00 0.00 0.00 0.00 0.00 0.00 0.00 0.00 0.00 0.01 0.01 0.00 0.01 0.01 0.03 0.05 0.08 0.16 0.11 0.06 0.06 0.07 0.08 0.12 0.12 0.12 0.13 0.13 0.16 0.19 0.16 0.13 0.10 0.07 0.06 0.07 0.07 0.05
0.00 0.00 0.00 0.00 0.00 0.00 0.00 0.00 0.00 0.00 0.00 0.00 0.00 0.00 0.01 0.01 0.02 0.05 0.08 0.08 0.07 0.07 0.13 0.09 0.10 0.11 0.11 0.12 0.15 0.16 0.16 0.16 0.16 0.16 0.14 0.10 0.11 0.12 0.12 0.11 0.10 0.10 0.08
0.00 0.00 0.00 0.00 0.00 0.00 0.00 0.01 0.01 0.02 0.03 0.05 0.05 0.03 0.02 0.02 0.04 0.04 0.03 0.05 0.05 0.04 0.06 0.07 0.07 0.06 0.06 0.07 0.10 0.12 0.12 0.13 0.16 0.16 0.15 0.14 0.15 0.15 0.15 0.12 0.11 0.13 0.08
0.03 0.05 0.06 0.08 0.09 0.09 0.08 0.09 0.11 0.13 0.14 0.12 0.09 0.07 0.09 0.08 0.05 0.04 0.03 0.06 0.06 0.04 0.03 0.03 0.04 0.05 0.07 0.10 0.14 0.16 0.17 0.17 0.18 0.20 0.17 0.16 0.15 0.17 0.16 0.15 0.16 0.15 0.14
0.28 0.27 0.24 0.25 0.26 0.26 0.24 0.20 0.16 0.14 0.13 0.11 0.10 0.09 0.06 0.04 0.03 0.03 0.02 0.04 0.07 0.08 0.07 0.07 0.07 0.09 0.11 0.13 0.15 0.15 0.15 0.14 0.16 0.18 0.19 0.18 0.16 0.17 0.18 0.16 0.15 0.15 0.11
0.39 0.36 0.33 0.30 0.27 0.23 0.18 0.14 0.11 0.10 0.08 0.06 0.05 0.04 0.03 0.04 0.04 0.06 0.09 0.10 0.11 0.11 0.11 0.12 0.10 0.09 0.09 0.09 0.11 0.13 0.14 0.13 0.15 0.16 0.16 0.16 0.19 0.18 0.14 0.14 0.13 0.12 0.10
0.29 0.24 0.21 0.17 0.14 0.12 0.08 0.07 0.07 0.06 0.05 0.05 0.04 0.03 0.03 0.04 0.07 0.10 0.10 0.10 0.11 0.13 0.12 0.10 0.08 0.09 0.10 0.12 0.12 0.14 0.12 0.10 0.10 0.12 0.13 0.12 0.12 0.12 0.12 0.12 0.13 0.14 0.12
0.14 0.12 0.10 0.09 0.08 0.06 0.06 0.06 0.05 0.05 0.05 0.05 0.04 0.05 0.05 0.05 0.06 0.06 0.06 0.07 0.08 0.08 0.07 0.07 0.06 0.05 0.06 0.08 0.12 0.16 0.16 0.12 0.11 0.15 0.16 0.13 0.10 0.09 0.10 0.10 0.11 0.13 0.13
0.07 0.06 0.05 0.05 0.05 0.04 0.05 0.05 0.05 0.05 0.05 0.05 0.03 0.03 0.02 0.02 0.01 0.02 0.02 0.04 0.04 0.05 0.05 0.05 0.04 0.04 0.04 0.05 0.08 0.12 0.15 0.16 0.21 0.21 0.20 0.16 0.10 0.09 0.11 0.11 0.10 0.10 0.12
0.05 0.05 0.05 0.04 0.04 0.03 0.03 0.03 0.02 0.01 0.02 0.01 0.01 0.01 0.01 0.01 0.01 0.01 0.01 0.01 0.01 0.01 0.01 0.01 0.02 0.03 0.02 0.03 0.04 0.07 0.11 0.14 0.17 0.18 0.22 0.22 0.16 0.13 0.12 0.12 0.11 0.12 0.11
0.02 0.02 0.01 0.01 0.01 0.01 0.01 0.01 0.00 0.00 0.01 0.01 0.01 0.01 0.01 0.01 0.01 0.01 0.01 0.01 0.01 0.01 0.01 0.01 0.01 0.02 0.02 0.02 0.03 0.06 0.07 0.09 0.13 0.18 0.24 0.24 0.21 0.18 0.17 0.16 0.15 0.16 0.12

GFSGL_prec_precacc24_060.txt.gz
Total_Precipitation_Accumulation
0.17 0.08 0.09 0.22 0.44 0.36 0.29 0.27 0.31 0.43 0.46 0.56 0.40 0.24 0.18 0.18 0.14 0.08 0.05 0.05 0.04 0.05 0.06 0.10 0.11 0.09 0.06 0.04 0.02 0.01 0.01 0.01 0.01 0.00 0.00 0.00 0.00 0.00 0.00 0.00 0.00 0.00 0.00
0.26 0.24 0.44 0.64 0.86 0.78 0.62 0.75 0.52 0.29 0.16 0.17 0.19 0.16 0.12 0.12 0.14 0.11 0.08 0.08 0.08 0.16 0.25 0.20 0.11 0.05 0.02 0.01 0.00 0.00 0.00 0.00 0.00 0.00 0.00 0.00 0.00 0.00 0.00 0.00 0.00 0.00 0.00
0.47 0.54 0.52 0.46 0.66 0.81 0.67 0.48 0.34 0.25 0.21 0.14 0.12 0.14 0.13 0.14 0.14 0.13 0.15 0.19 0.25 0.21 0.09 0.04 0.03 0.02 0.02 0.01 0.01 0.00 0.00 0.00 0.00 0.00 0.00 0.00 0.00 0.00 0.00 0.00 0.00 0.00 0.00
0.26 0.21 0.19 0.30 0.27 0.32 0.32 0.30 0.18 0.19 0.13 0.12 0.10 0.09 0.10 0.10 0.13 0.17 0.21 0.17 0.08 0.03 0.01 0.01 0.02 0.01 0.01 0.00 0.00 0.00 0.00 0.00 0.00 0.01 0.00 0.00 0.00 0.00 0.00 0.00 0.00 0.00 0.00
0.17 0.10 0.16 0.16 0.16 0.20 0.21 0.18 0.16 0.14 0.13 0.12 0.10 0.08 0.08 0.11 0.19 0.18 0.09 0.03 0.01 0.01 0.01 0.01 0.02 0.03 0.02 0.01 0.00 0.00 0.00 0.00 0.00 0.00 0.00 0.00 0.00 0.00 0.00 0.00 0.01 0.01 0.00
0.09 0.08 0.11 0.11 0.14 0.20 0.18 0.12 0.10 0.15 0.17 0.14 0.11 0.11 0.17 0.20 0.14 0.06 0.03 0.01 0.01 0.02 0.02 0.02 0.03 0.04 0.01 0.00 0.00 0.00 0.00 0.00 0.00 0.00 0.00 0.00 0.00 0.00 0.01 0.02 0.02 0.03 0.03
0.04 0.05 0.07 0.08 0.12 0.12 0.15 0.13 0.14 0.19 0.23 0.18 0.23 0.26 0.16 0.05 0.10 0.06 0.03 0.01 0.02 0.03 0.03 0.02 0.01 0.00 0.00 0.00 0.00 0.00 0.00 0.00 0.00 0.00 0.01 0.00 0.01 0.01 0.04 0.03 0.02 0.03 0.05
0.02 0.04 0.04 0.05 0.08 0.09 0.14 0.11 0.14 0.20 0.22 0.24 0.19 0.10 0.06 0.05 0.09 0.05 0.04 0.01 0.02 0.02 0.01 0.01 0.00 0.00 0.00 0.00 0.00 0.00 0.00 0.00 0.00 0.01 0.01 0.00 0.01 0.01 0.03 0.03 0.03 0.04 0.03
0.03 0.05 0.05 0.05 0.06 0.09 0.16 0.17 0.15 0.12 0.11 0.09 0.06 0.05 0.05 0.06 0.08 0.04 0.02 0.00 0.01 0.01 0.00 0.00 0.00 0.00 0.00 0.00 0.00 0.00 0.00 0.01 0.02 0.02 0.02 0.02 0.01 0.01 0.01 0.02 0.04 0.05 0.05
0.01 0.03 0.04 0.05 0.05 0.05 0.05 0.07 0.06 0.05 0.04 0.04 0.04 0.04 0.05 0.04 0.05 0.02 0.01 0.00 0.00 0.00 0.00 0.00 0.01 0.00 0.00 0.00 0.00 0.00 0.02 0.01 0.03 0.05 0.06 0.04 0.02 0.02 0.02 0.03 0.06 0.15 0.14
0.00 0.00 0.01 0.01 0.01 0.01 0.01 0.02 0.02 0.02 0.03 0.02 0.02 0.02 0.02 0.02 0.02 0.01 0.01 0.00 0.00 0.00 0.00 0.00 0.00 0.00 0.00 0.00 0.00 0.01 0.02 0.02 0.06 0.07 0.06 0.06 0.04 0.02 0.01 0.01 0.01 0.05 0.14
0.00 0.00 0.00 0.00 0.00 0.00 0.01 0.01 0.02 0.01 0.02 0.02 0.02 0.01 0.01 0.00 0.01 0.01 0.00 0.00 0.00 0.00 0.01 0.01 0.01 0.00 0.01 0.01 0.02 0.03 0.02 0.04 0.08 0.08 0.04 0.03 0.03 0.03 0.01 0.01 0.01 0.01 0.02
0.00 0.00 0.00 0.00 0.01 0.03 0.03 0.03 0.03 0.02 0.02 0.01 0.00 0.00 0.00 0.00 0.00 0.00 0.00 0.00 0.00 0.00 0.01 0.01 0.00 0.00 0.01 0.03 0.03 0.02 0.03 0.11 0.12 0.13 0.10 0.06 0.04 0.05 0.08 0.11 0.12 0.09 0.07
0.00 0.00 0.00 0.00 0.01 0.01 0.02 0.03 0.02 0.01 0.00 0.00 0.00 0.00 0.00 0.00 0.00 0.00 0.01 0.01 0.01 0.01 0.01 0.02 0.02 0.02 0.02 0.03 0.05 0.07 0.10 0.11 0.13 0.14 0.11 0.08 0.09 0.10 0.08 0.05 0.09 0.09 0.13
0.00 0.00 0.00 0.00 0.00 0.00 0.01 0.01 0.00 0.00 0.00 0.00 0.00 0.00 0.00 0.01 0.00 0.01 0.01 0.02 0.02 0.03 0.06 0.08 0.06 0.05 0.05 0.05 0.05 0.06 0.09 0.12 0.13 0.09 0.11 0.12 0.13 0.11 0.09 0.07 0.09 0.08 0.10
0.00 0.00 0.00 0.00 0.00 0.00 0.00 0.00 0.00 0.00 0.00 0.00 0.01 0.01 0.02 0.02 0.01 0.02 0.02 0.02 0.03 0.06 0.14 0.09 0.05 0.06 0.06 0.06 0.09 0.09 0.10 0.12 0.13 0.16 0.19 0.16 0.13 0.10 0.07 0.06 0.07 0.07 0.05
0.00 0.00 0.00 0.00 0.00 0.00 0.00 0.01 0.03 0.06 0.07 0.07 0.08 0.08 0.07 0.05 0.03 0.01 0.00 0.00 0.01 0.05 0.11 0.09 0.10 0.10 0.10 0.10 0.11 0.13 0.15 0.16 0.16 0.16 0.14 0.10 0.11 0.12 0.12 0.11 0.10 0.10 0.08
0.00 0.01 0.00 0.01 0.05 0.10 0.13 0.13 0.11 0.11 0.12 0.12 0.10 0.06 0.04 0.04 0.03 0.03 0.02 0.02 0.04 0.04 0.07 0.07 0.07 0.06 0.06 0.06 0.07 0.08 0.10 0.12 0.16 0.16 0.16 0.14 0.15 0.15 0.15 0.13 0.11 0.13 0.08
0.03 0.06 0.11 0.19 0.25 0.22 0.17 0.16 0.16 0.16 0.17 0.16 0.15 0.14 0.16 0.14 0.10 0.08 0.06 0.07 0.08 0.07 0.06 0.06 0.06 0.07 0.08 0.09 0.11 0.13 0.15 0.17 0.18 0.20 0.17 0.16 0.15 0.17 0.16 0.15 0.16 0.15 0.15
0.40 0.45 0.40 0.37 0.34 0.31 0.28 0.23 0.20 0.18 0.17 0.16 0.15 0.13 0.10 0.06 0.06 0.05 0.05 0.06 0.08 0.09 0.10 0.10 0.10 0.10 0.12 0.13 0.13 0.13 0.12 0.13 0.16 0.18 0.19 0.18 0.16 0.17 0.18 0.16 0.15 0.15 0.11
0.50 0.46 0.40 0.34 0.30 0.26 0.21 0.16 0.13 0.11 0.10 0.08 0.07 0.06 0.04 0.03 0.03 0.04 0.04 0.05 0.06 0.07 0.08 0.09 0.09 0.08 0.08 0.07 0.07 0.08 0.10 0.11 0.14 0.16 0.16 0.16 0.19 0.18 0.14 0.14 0.14 0.12 0.10
0.33 0.28 0.23 0.19 0.16 0.13 0.09 0.07 0.07 0.06 0.06 0.05 0.05 0.05 0.04 0.03 0.04 0.05 0.04 0.04 0.05 0.06 0.07 0.07 0.06 0.07 0.07 0.07 0.07 0.08 0.08 0.08 0.09 0.12 0.13 0.12 0.12 0.11 0.12 0.12 0.13 0.14 0.12
0.18 0.15 0.12 0.10 0.09 0.07 0.06 0.06 0.06 0.05 0.05 0.06 0.05 0.06 0.05 0.05 0.05 0.03 0.03 0.02 0.02 0.02 0.03 0.04 0.05 0.05 0.05 0.05 0.06 0.08 0.09 0.08 0.10 0.14 0.17 0.13 0.10 0.09 0.09 0.11 0.11 0.14 0.14
0.08 0.07 0.05 0.05 0.05 0.05 0.05 0.06 0.05 0.05 0.05 0.05 0.04 0.03 0.02 0.02 0.01 0.01 0.01 0.01 0.01 0.01 0.01 0.02 0.03 0.03 0.03 0.04 0.04 0.04 0.05 0.09 0.14 0.15 0.17 0.15 0.10 0.08 0.11 0.11 0.10 0.10 0.12
0.05 0.05 0.05 0.05 0.04 0.04 0.03 0.03 0.02 0.02 0.01 0.01 0.01 0.01 0.01 0.01 0.01 0.01 0.01 0.01 0.01 0.01 0.00 0.00 0.01 0.02 0.02 0.02 0.02 0.03 0.06 0.09 0.11 0.13 0.16 0.17 0.14 0.11 0.11 0.12 0.12 0.12 0.11
0.02 0.02 0.01 0.01 0.01 0.01 0.01 0.01 0.00 0.00 0.01 0.01 0.01 0.01 0.01 0.01 0.01 0.01 0.01 0.00 0.01 0.00 0.00 0.01 0.01 0.02 0.02 0.02 0.03 0.04 0.04 0.05 0.08 0.13 0.20 0.21 0.19 0.16 0.16 0.16 0.15 0.17 0.12

GFSGL_prec_precacc24_063.txt.gz
Total_Precipitation_Accumulation
0.14 0.04 0.05 0.16 0.37 0.28 0.17 0.20 0.27 0.42 0.46 0.56 0.40 0.24 0.19 0.20 0.17 0.13 0.12 0.14 0.13 0.13 0.12 0.15 0.15 0.11 0.07 0.04 0.02 0.01 0.01 0.01 0.01 0.00 0.00 0.00 0.00 0.00 0.00 0.00 0.00 0.00 0.00
0.23 0.19 0.39 0.58 0.78 0.69 0.55 0.71 0.51 0.29 0.16 0.17 0.19 0.16 0.13 0.18 0.22 0.19 0.14 0.12 0.15 0.24 0.33 0.29 0.18 0.08 0.03 0.01 0.00 0.00 0.00 0.00 0.00 0.00 0.00 0.00 0.00 0.00 0.00 0.00 0.00 0.00 0.00
0.42 0.49 0.47 0.41 0.61 0.75 0.63 0.47 0.34 0.25 0.21 0.14 0.12 0.15 0.13 0.15 0.17 0.18 0.19 0.26 0.36 0.36 0.24 0.16 0.08 0.04 0.02 0.02 0.01 0.01 0.00 0.00 0.00 0.00 0.00 0.00 0.00 0.00 0.00 0.00 0.00 0.00 0.00
0.21 0.18 0.16 0.27 0.24 0.30 0.31 0.30 0.18 0.20 0.13 0.12 0.10 0.10 0.10 0.10 0.11 0.17 0.28 0.25 0.12 0.07 0.05 0.04 0.03 0.03 0.02 0.02 0.01 0.01 0.01 0.00 0.00 0.01 0.00 0.00 0.00 0.00 0.00 0.00 0.00 0.00 0.00
0.16 0.10 0.16 0.16 0.16 0.20 0.21 0.18 0.17 0.16 0.16 0.16 0.13 0.10 0.10 0.09 0.15 0.16 0.10 0.05 0.03 0.03 0.02 0.02 0.02 0.07 0.07 0.03 0.01 0.01 0.00 0.00 0.00 0.00 0.00 0.00 0.00 0.00 0.00 0.00 0.01 0.01 0.00
0.09 0.08 0.11 0.11 0.14 0.20 0.18 0.12 0.11 0.17 0.21 0.20 0.17 0.21 0.21 0.17 0.17 0.12 0.08 0.04 0.04 0.04 0.03 0.02 0.04 0.08 0.02 0.04 0.03 0.02 0.01 0.00 0.00 0.00 0.00 0.00 0.00 0.00 0.01 0.02 0.02 0.03 0.03
0.04 0.05 0.07 0.08 0.12 0.12 0.15 0.13 0.15 0.22 0.28 0.23 0.21 0.19 0.16 0.10 0.14 0.12 0.08 0.03 0.04 0.04 0.03 0.02 0.02 0.03 0.06 0.02 0.03 0.02 0.00 0.00 0.00 0.00 0.01 0.00 0.01 0.01 0.04 0.03 0.02 0.03 0.05
0.02 0.04 0.04 0.05 0.08 0.09 0.14 0.10 0.12 0.16 0.16 0.14 0.16 0.15 0.12 0.11 0.16 0.09 0.07 0.02 0.03 0.04 0.03 0.03 0.03 0.03 0.03 0.02 0.00 0.00 0.01 0.00 0.00 0.01 0.01 0.00 0.01 0.01 0.03 0.03 0.03 0.04 0.03
0.03 0.05 0.05 0.05 0.06 0.08 0.13 0.12 0.11 0.11 0.12 0.12 0.10 0.10 0.09 0.09 0.14 0.08 0.04 0.01 0.04 0.04 0.04 0.04 0.04 0.02 0.02 0.03 0.01 0.00 0.00 0.01 0.02 0.02 0.02 0.02 0.01 0.01 0.01 0.02 0.03 0.05 0.05
0.01 0.03 0.04 0.05 0.05 0.04 0.05 0.07 0.06 0.07 0.07 0.05 0.07 0.07 0.10 0.07 0.13 0.06 0.03 0.01 0.03 0.03 0.04 0.03 0.05 0.01 0.02 0.01 0.00 0.00 0.02 0.01 0.03 0.05 0.06 0.04 0.03 0.02 0.02 0.03 0.06 0.15 0.14
0.00 0.00 0.01 0.01 0.02 0.02 0.01 0.02 0.03 0.03 0.04 0.03 0.04 0.04 0.05 0.06 0.08 0.08 0.06 0.04 0.04 0.04 0.03 0.01 0.01 0.03 0.01 0.00 0.00 0.01 0.02 0.02 0.06 0.07 0.06 0.06 0.04 0.02 0.01 0.01 0.01 0.05 0.14
0.00 0.00 0.02 0.02 0.03 0.04 0.04 0.02 0.02 0.02 0.02 0.04 0.04 0.04 0.04 0.06 0.10 0.09 0.07 0.05 0.03 0.01 0.01 0.01 0.01 0.02 0.00 0.00 0.01 0.01 0.01 0.03 0.08 0.08 0.04 0.03 0.03 0.03 0.01 0.01 0.01 0.01 0.02
0.01 0.03 0.03 0.03 0.04 0.04 0.03 0.05 0.04 0.04 0.04 0.05 0.04 0.05 0.05 0.05 0.05 0.06 0.03 0.01 0.00 0.00 0.01 0.01 0.00 0.00 0.01 0.01 0.01 0.00 0.01 0.07 0.11 0.13 0.10 0.06 0.04 0.05 0.08 0.11 0.12 0.09 0.07
0.05 0.04 0.04 0.02 0.02 0.02 0.03 0.04 0.05 0.05 0.07 0.08 0.08 0.06 0.04 0.02 0.01 0.01 0.01 0.01 0.01 0.00 0.01 0.02 0.02 0.02 0.02 0.02 0.03 0.03 0.04 0.07 0.10 0.13 0.11 0.08 0.09 0.10 0.08 0.05 0.09 0.09 0.13
0.01 0.01 0.00 0.00 0.00 0.00 0.01 0.02 0.02 0.03 0.04 0.03 0.04 0.04 0.04 0.01 0.00 0.01 0.01 0.02 0.03 0.03 0.03 0.03 0.03 0.04 0.04 0.04 0.04 0.03 0.04 0.05 0.06 0.06 0.10 0.12 0.13 0.11 0.09 0.07 0.09 0.08 0.10
0.01 0.00 0.00 0.00 0.00 0.00 0.00 0.01 0.02 0.01 0.02 0.02 0.04 0.05 0.07 0.07 0.08 0.09 0.08 0.05 0.02 0.01 0.02 0.04 0.04 0.05 0.06 0.06 0.09 0.08 0.06 0.06 0.09 0.15 0.18 0.16 0.13 0.10 0.07 0.06 0.07 0.07 0.05
0.00 0.00 0.00 0.00 0.00 0.00 0.00 0.01 0.05 0.16 0.19 0.20 0.20 0.18 0.13 0.12 0.08 0.04 0.02 0.01 0.01 0.01 0.03 0.04 0.07 0.10 0.11 0.10 0.11 0.13 0.14 0.14 0.12 0.11 0.12 0.10 0.11 0.12 0.12 0.11 0.10 0.10 0.08
0.05 0.05 0.05 0.05 0.07 0.11 0.15 0.17 0.18 0.18 0.19 0.20 0.16 0.10 0.08 0.07 0.06 0.05 0.04 0.03 0.03 0.02 0.03 0.05 0.06 0.06 0.06 0.06 0.07 0.07 0.08 0.09 0.12 0.14 0.15 0.14 0.15 0.15 0.15 0.13 0.11 0.13 0.08
0.12 0.14 0.17 0.25 0.32 0.32 0.27 0.24 0.22 0.21 0.20 0.20 0.18 0.17 0.19 0.16 0.12 0.10 0.07 0.07 0.06 0.05 0.05 0.05 0.05 0.07 0.08 0.09 0.11 0.13 0.14 0.15 0.16 0.18 0.16 0.16 0.15 0.17 0.16 0.15 0.16 0.15 0.15
0.62 0.66 0.58 0.51 0.47 0.42 0.35 0.28 0.23 0.21 0.19 0.18 0.16 0.14 0.10 0.07 0.06 0.06 0.05 0.05 0.06 0.06 0.06 0.06 0.06 0.06 0.08 0.11 0.12 0.12 0.11 0.10 0.13 0.16 0.17 0.17 0.16 0.17 0.18 0.16 0.15 0.15 0.11
0.63 0.60 0.53 0.44 0.37 0.31 0.25 0.19 0.15 0.13 0.12 0.09 0.09 0.07 0.05 0.03 0.04 0.04 0.04 0.04 0.04 0.05 0.05 0.05 0.05 0.04 0.04 0.05 0.05 0.06 0.07 0.09 0.11 0.13 0.13 0.15 0.19 0.18 0.15 0.14 0.14 0.12 0.11
0.38 0.33 0.28 0.23 0.19 0.16 0.12 0.10 0.10 0.08 0.07 0.07 0.07 0.06 0.04 0.04 0.05 0.05 0.05 0.05 0.04 0.03 0.02 0.02 0.01 0.02 0.03 0.04 0.05 0.06 0.06 0.07 0.07 0.08 0.10 0.10 0.12 0.12 0.12 0.12 0.13 0.14 0.12
0.21 0.18 0.15 0.14 0.11 0.09 0.07 0.07 0.06 0.06 0.06 0.06 0.06 0.06 0.05 0.05 0.05 0.04 0.03 0.02 0.02 0.01 0.01 0.01 0.01 0.01 0.01 0.02 0.04 0.06 0.06 0.05 0.06 0.08 0.12 0.11 0.10 0.09 0.10 0.11 0.12 0.14 0.14
0.08 0.07 0.06 0.06 0.05 0.05 0.05 0.06 0.05 0.05 0.05 0.05 0.04 0.03 0.02 0.02 0.01 0.01 0.01 0.01 0.01 0.01 0.01 0.01 0.01 0.01 0.01 0.02 0.02 0.03 0.03 0.04 0.08 0.08 0.11 0.12 0.09 0.08 0.11 0.11 0.10 0.11 0.13
0.05 0.05 0.05 0.05 0.04 0.04 0.03 0.03 0.02 0.02 0.01 0.01 0.01 0.01 0.01 0.01 0.01 0.01 0.01 0.01 0.01 0.01 0.00 0.00 0.01 0.01 0.01 0.01 0.01 0.02 0.05 0.07 0.05 0.05 0.09 0.12 0.11 0.10 0.11 0.13 0.12 0.13 0.12
0.02 0.02 0.01 0.01 0.01 0.01 0.01 0.01 0.00 0.00 0.01 0.01 0.01 0.01 0.01 0.01 0.01 0.01 0.01 0.00 0.01 0.00 0.00 0.01 0.00 0.01 0.01 0.01 0.01 0.03 0.04 0.03 0.04 0.06 0.12 0.14 0.15 0.13 0.15 0.16 0.14 0.17 0.13

GFSGL_prec_precacc24_066.txt.gz
Total_Precipitation_Accumulation
0.14 0.04 0.05 0.15 0.36 0.25 0.13 0.16 0.24 0.39 0.45 0.55 0.40 0.24 0.19 0.20 0.17 0.13 0.12 0.14 0.13 0.14 0.15 0.17 0.18 0.17 0.17 0.17 0.15 0.07 0.02 0.01 0.00 0.00 0.00 0.00 0.00 0.00 0.00 0.00 0.00 0.00 0.00
0.23 0.19 0.38 0.56 0.76 0.66 0.51 0.66 0.48 0.27 0.16 0.17 0.19 0.16 0.13 0.18 0.22 0.19 0.15 0.13 0.16 0.28 0.39 0.38 0.31 0.27 0.30 0.28 0.20 0.09 0.03 0.01 0.00 0.00 0.00 0.00 0.00 0.00 0.00 0.00 0.00 0.00 0.00
0.42 0.49 0.47 0.40 0.59 0.70 0.57 0.41 0.31 0.24 0.20 0.14 0.12 0.15 0.13 0.15 0.17 0.18 0.19 0.23 0.37 0.42 0.32 0.26 0.22 0.20 0.15 0.09 0.06 0.03 0.03 0.02 0.01 0.01 0.00 0.00 0.00 0.00 0.00 0.00 0.00 0.00 0.00
0.21 0.18 0.16 0.27 0.24 0.30 0.30 0.28 0.18 0.19 0.13 0.11 0.09 0.09 0.09 0.10 0.11 0.15 0.19 0.20 0.14 0.12 0.12 0.12 0.10 0.08 0.07 0.06 0.06 0.05 0.03 0.02 0.02 0.02 0.01 0.00 0.00 0.00 0.00 0.00 0.00 0.00 0.00
0.15 0.09 0.15 0.15 0.15 0.19 0.21 0.18 0.17 0.16 0.16 0.16 0.12 0.09 0.08 0.08 0.10 0.07 0.06 0.05 0.04 0.04 0.03 0.04 0.05 0.11 0.12 0.06 0.03 0.02 0.02 0.02 0.02 0.01 0.00 0.00 0.00 0.00 0.00 0.00 0.01 0.01 0.00
0.09 0.08 0.11 0.11 0.14 0.20 0.18 0.12 0.11 0.17 0.21 0.18 0.15 0.20 0.19 0.13 0.17 0.14 0.11 0.06 0.06 0.05 0.05 0.04 0.07 0.14 0.07 0.07 0.05 0.04 0.02 0.01 0.01 0.00 0.00 0.00 0.00 0.00 0.01 0.02 0.02 0.03 0.03
0.04 0.05 0.07 0.08 0.12 0.12 0.15 0.13 0.15 0.21 0.26 0.21 0.20 0.17 0.15 0.11 0.16 0.14 0.14 0.08 0.07 0.06 0.06 0.05 0.05 0.06 0.10 0.03 0.06 0.05 0.03 0.02 0.01 0.00 0.01 0.00 0.01 0.01 0.04 0.03 0.02 0.03 0.05
0.02 0.04 0.04 0.05 0.08 0.09 0.14 0.10 0.11 0.15 0.15 0.15 0.16 0.16 0.13 0.12 0.19 0.16 0.15 0.05 0.04 0.06 0.06 0.05 0.05 0.05 0.07 0.05 0.02 0.02 0.02 0.02 0.01 0.01 0.01 0.00 0.01 0.01 0.03 0.03 0.03 0.04 0.03
0.03 0.05 0.05 0.05 0.06 0.08 0.13 0.12 0.10 0.10 0.12 0.12 0.10 0.11 0.10 0.11 0.20 0.13 0.10 0.02 0.06 0.06 0.07 0.08 0.09 0.08 0.19 0.17 0.10 0.08 0.05 0.02 0.02 0.03 0.02 0.02 0.01 0.01 0.01 0.02 0.03 0.05 0.05
0.01 0.03 0.04 0.05 0.05 0.04 0.05 0.07 0.07 0.07 0.08 0.06 0.07 0.07 0.13 0.08 0.17 0.08 0.05 0.02 0.04 0.05 0.08 0.13 0.22 0.17 0.23 0.19 0.14 0.10 0.05 0.01 0.03 0.05 0.06 0.04 0.03 0.02 0.02 0.03 0.06 0.15 0.14
0.00 0.00 0.01 0.01 0.02 0.01 0.02 0.03 0.04 0.05 0.05 0.04 0.04 0.04 0.05 0.08 0.11 0.11 0.09 0.05 0.07 0.12 0.14 0.15 0.16 0.16 0.10 0.07 0.03 0.02 0.02 0.02 0.04 0.05 0.06 0.06 0.04 0.02 0.01 0.01 0.01 0.05 0.13
0.00 0.00 0.02 0.02 0.03 0.06 0.07 0.07 0.05 0.03 0.02 0.04 0.04 0.04 0.05 0.07 0.15 0.14 0.11 0.10 0.13 0.11 0.13 0.13 0.15 0.15 0.06 0.02 0.01 0.01 0.02 0.02 0.03 0.04 0.03 0.03 0.03 0.03 0.01 0.01 0.01 0.01 0.02
0.01 0.03 0.04 0.05 0.07 0.07 0.06 0.05 0.05 0.04 0.04 0.05 0.05 0.05 0.06 0.07 0.10 0.14 0.10 0.09 0.09 0.07 0.09 0.11 0.09 0.05 0.01 0.01 0.01 0.02 0.02 0.04 0.05 0.07 0.07 0.05 0.04 0.05 0.08 0.11 0.12 0.09 0.07
0.05 0.05 0.05 0.04 0.05 0.03 0.03 0.04 0.05 0.06 0.07 0.09 0.09 0.09 0.09 0.09 0.09 0.10 0.12 0.11 0.10 0.08 0.05 0.02 0.01 0.01 0.02 0.03 0.03 0.03 0.03 0.04 0.07 0.08 0.07 0.04 0.06 0.09 0.08 0.05 0.09 0.09 0.12
0.02 0.01 0.01 0.00 0.01 0.00 0.01 0.03 0.02 0.03 0.06 0.04 0.05 0.08 0.12 0.16 0.18 0.19 0.16 0.13 0.10 0.08 0.06 0.04 0.03 0.02 0.02 0.02 0.03 0.02 0.03 0.02 0.03 0.03 0.06 0.07 0.10 0.11 0.09 0.07 0.08 0.08 0.10
0.03 0.02 0.02 0.02 0.01 0.01 0.01 0.02 0.05 0.04 0.06 0.06 0.08 0.09 0.13 0.13 0.15 0.17 0.16 0.12 0.08 0.06 0.05 0.05 0.04 0.04 0.03 0.03 0.05 0.06 0.06 0.06 0.08 0.12 0.14 0.13 0.12 0.10 0.07 0.06 0.07 0.07 0.05
0.06 0.04 0.02 0.02 0.02 0.03 0.05 0.05 0.08 0.22 0.27 0.29 0.29 0.25 0.18 0.18 0.14 0.10 0.07 0.05 0.03 0.03 0.04 0.04 0.04 0.05 0.05 0.04 0.07 0.12 0.15 0.14 0.11 0.09 0.07 0.06 0.08 0.09 0.10 0.10 0.09 0.10 0.07
0.20 0.22 0.19 0.17 0.20 0.25 0.30 0.31 0.29 0.28 0.29 0.32 0.28 0.19 0.15 0.13 0.11 0.08 0.06 0.04 0.04 0.03 0.02 0.03 0.03 0.03 0.03 0.03 0.04 0.07 0.08 0.09 0.11 0.12 0.13 0.12 0.13 0.14 0.14 0.12 0.11 0.13 0.08
0.31 0.36 0.44 0.53 0.60 0.56 0.46 0.38 0.34 0.32 0.32 0.32 0.29 0.25 0.25 0.20 0.14 0.11 0.08 0.07 0.06 0.05 0.04 0.05 0.04 0.04 0.03 0.03 0.05 0.09 0.12 0.14 0.14 0.15 0.14 0.13 0.13 0.16 0.15 0.15 0.16 0.15 0.15
0.72 0.85 0.81 0.77 0.73 0.64 0.53 0.42 0.35 0.30 0.27 0.24 0.21 0.17 0.13 0.08 0.07 0.07 0.06 0.05 0.06 0.06 0.06 0.06 0.06 0.04 0.04 0.04 0.05 0.05 0.05 0.08 0.11 0.14 0.16 0.15 0.13 0.16 0.18 0.16 0.15 0.15 0.11
0.67 0.66 0.59 0.51 0.45 0.39 0.33 0.26 0.21 0.18 0.15 0.12 0.11 0.09 0.06 0.04 0.04 0.04 0.04 0.04 0.05 0.05 0.05 0.05 0.04 0.03 0.03 0.02 0.02 0.02 0.03 0.05 0.08 0.12 0.11 0.12 0.14 0.16 0.14 0.14 0.14 0.13 0.11
0.39 0.34 0.29 0.24 0.21 0.18 0.14 0.12 0.11 0.10 0.09 0.08 0.08 0.07 0.05 0.04 0.05 0.05 0.05 0.05 0.04 0.03 0.02 0.02 0.01 0.01 0.01 0.02 0.02 0.03 0.04 0.04 0.05 0.06 0.06 0.06 0.07 0.09 0.12 0.12 0.13 0.14 0.13
0.21 0.18 0.15 0.14 0.12 0.10 0.08 0.08 0.07 0.07 0.07 0.07 0.06 0.06 0.06 0.05 0.05 0.04 0.03 0.02 0.01 0.01 0.01 0.01 0.01 0.01 0.00 0.01 0.02 0.03 0.04 0.04 0.05 0.06 0.08 0.06 0.05 0.06 0.09 0.11 0.12 0.14 0.14
0.09 0.07 0.06 0.06 0.05 0.05 0.06 0.06 0.06 0.05 0.05 0.05 0.04 0.04 0.03 0.02 0.01 0.01 0.01 0.01 0.01 0.01 0.01 0.01 0.01 0.00 0.01 0.01 0.01 0.01 0.01 0.03 0.07 0.08 0.07 0.06 0.04 0.05 0.10 0.12 0.10 0.11 0.13
0.05 0.05 0.05 0.05 0.04 0.04 0.03 0.03 0.02 0.02 0.02 0.01 0.01 0.01 0.01 0.01 0.01 0.01 0.01 0.01 0.00 0.00 0.00 0.00 0.01 0.01 0.01 0.01 0.01 0.01 0.02 0.05 0.04 0.03 0.05 0.07 0.06 0.06 0.10 0.13 0.12 0.13 0.12
0.02 0.02 0.01 0.01 0.01 0.01 0.01 0.01 0.00 0.00 0.01 0.01 0.01 0.01 0.01 0.01 0.01 0.01 0.00 0.00 0.01 0.00 0.00 0.00 0.00 0.00 0.01 0.01 0.01 0.02 0.02 0.01 0.02 0.04 0.09 0.08 0.07 0.08 0.12 0.14 0.13 0.16 0.13

GFSGL_prec_precacc24_069.txt.gz
Total_Precipitation_Accumulation
0.14 0.04 0.05 0.15 0.35 0.24 0.09 0.13 0.24 0.39 0.45 0.55 0.40 0.24 0.18 0.19 0.17 0.13 0.12 0.14 0.14 0.15 0.16 0.18 0.19 0.17 0.18 0.19 0.25 0.33 0.39 0.39 0.33 0.14 0.06 0.04 0.00 0.00 0.00 0.00 0.00 0.00 0.00
0.23 0.17 0.36 0.55 0.75 0.66 0.50 0.66 0.47 0.27 0.15 0.16 0.19 0.16 0.13 0.18 0.22 0.19 0.15 0.13 0.15 0.23 0.35 0.38 0.31 0.28 0.31 0.33 0.33 0.30 0.24 0.20 0.23 0.18 0.08 0.03 0.01 0.00 0.00 0.00 0.00 0.00 0.00
0.42 0.48 0.46 0.38 0.58 0.70 0.57 0.41 0.31 0.23 0.19 0.14 0.12 0.14 0.13 0.15 0.17 0.18 0.18 0.20 0.26 0.35 0.31 0.27 0.25 0.26 0.26 0.22 0.20 0.17 0.14 0.12 0.09 0.08 0.06 0.04 0.03 0.00 0.00 0.00 0.00 0.00 0.00
0.21 0.17 0.15 0.26 0.23 0.29 0.29 0.28 0.17 0.19 0.13 0.11 0.09 0.08 0.09 0.09 0.10 0.13 0.15 0.15 0.12 0.12 0.12 0.12 0.12 0.13 0.13 0.13 0.13 0.12 0.10 0.09 0.10 0.07 0.10 0.06 0.02 0.02 0.01 0.00 0.00 0.00 0.00
0.12 0.06 0.12 0.14 0.14 0.18 0.20 0.18 0.17 0.16 0.16 0.16 0.12 0.09 0.06 0.05 0.08 0.06 0.05 0.05 0.04 0.04 0.03 0.04 0.05 0.11 0.12 0.09 0.08 0.10 0.11 0.14 0.13 0.04 0.03 0.01 0.01 0.01 0.00 0.00 0.01 0.01 0.00
0.08 0.06 0.10 0.10 0.14 0.19 0.18 0.12 0.11 0.17 0.21 0.18 0.15 0.19 0.19 0.13 0.17 0.14 0.11 0.06 0.06 0.06 0.06 0.05 0.07 0.15 0.10 0.13 0.13 0.14 0.14 0.13 0.07 0.02 0.02 0.02 0.01 0.02 0.03 0.03 0.02 0.03 0.03
0.04 0.05 0.07 0.08 0.12 0.12 0.15 0.13 0.15 0.21 0.26 0.21 0.20 0.17 0.15 0.11 0.16 0.14 0.14 0.08 0.08 0.07 0.08 0.08 0.08 0.10 0.16 0.09 0.15 0.15 0.10 0.09 0.07 0.03 0.04 0.07 0.08 0.05 0.06 0.04 0.02 0.03 0.05
0.02 0.04 0.04 0.05 0.08 0.09 0.14 0.10 0.11 0.15 0.15 0.15 0.16 0.16 0.13 0.13 0.20 0.18 0.19 0.07 0.06 0.07 0.07 0.07 0.06 0.07 0.11 0.10 0.06 0.07 0.05 0.07 0.07 0.06 0.08 0.12 0.12 0.06 0.04 0.03 0.03 0.04 0.03
0.03 0.05 0.05 0.05 0.06 0.08 0.13 0.12 0.10 0.10 0.12 0.12 0.10 0.11 0.10 0.12 0.21 0.16 0.14 0.04 0.09 0.11 0.11 0.13 0.15 0.12 0.32 0.27 0.17 0.25 0.31 0.34 0.36 0.33 0.30 0.25 0.15 0.05 0.02 0.03 0.03 0.05 0.05
0.01 0.03 0.04 0.05 0.05 0.04 0.05 0.07 0.07 0.07 0.08 0.06 0.08 0.08 0.15 0.09 0.21 0.13 0.09 0.03 0.06 0.08 0.11 0.19 0.35 0.25 0.38 0.28 0.22 0.21 0.24 0.23 0.20 0.17 0.13 0.09 0.05 0.03 0.03 0.04 0.07 0.15 0.14
0.00 0.00 0.01 0.01 0.02 0.01 0.02 0.03 0.04 0.05 0.06 0.06 0.07 0.06 0.06 0.09 0.14 0.15 0.12 0.06 0.07 0.14 0.17 0.20 0.23 0.27 0.18 0.17 0.15 0.14 0.17 0.17 0.13 0.09 0.05 0.06 0.04 0.03 0.01 0.01 0.01 0.05 0.13
0.00 0.00 0.02 0.02 0.03 0.06 0.07 0.07 0.06 0.05 0.05 0.07 0.06 0.06 0.05 0.08 0.18 0.16 0.13 0.12 0.17 0.13 0.18 0.20 0.26 0.30 0.21 0.20 0.18 0.14 0.11 0.08 0.06 0.04 0.03 0.02 0.02 0.02 0.01 0.01 0.01 0.01 0.02
0.01 0.03 0.04 0.05 0.07 0.08 0.08 0.09 0.08 0.07 0.08 0.08 0.07 0.08 0.07 0.07 0.11 0.16 0.11 0.11 0.12 0.09 0.13 0.21 0.27 0.26 0.21 0.16 0.13 0.10 0.07 0.04 0.03 0.03 0.04 0.03 0.02 0.03 0.06 0.09 0.11 0.09 0.07
0.07 0.07 0.06 0.07 0.11 0.07 0.07 0.08 0.08 0.08 0.10 0.10 0.10 0.10 0.10 0.10 0.11 0.12 0.15 0.16 0.19 0.20 0.25 0.28 0.27 0.23 0.19 0.16 0.11 0.06 0.03 0.02 0.03 0.04 0.04 0.02 0.01 0.02 0.03 0.03 0.08 0.08 0.12
0.06 0.06 0.05 0.05 0.05 0.05 0.04 0.07 0.05 0.06 0.10 0.07 0.08 0.11 0.14 0.19 0.24 0.25 0.24 0.24 0.23 0.23 0.22 0.18 0.15 0.10 0.06 0.04 0.02 0.01 0.01 0.01 0.01 0.02 0.03 0.04 0.07 0.07 0.06 0.06 0.08 0.07 0.09
0.09 0.08 0.08 0.05 0.03 0.03 0.02 0.04 0.08 0.08 0.09 0.10 0.12 0.13 0.20 0.21 0.25 0.25 0.24 0.19 0.14 0.11 0.08 0.06 0.05 0.04 0.03 0.02 0.01 0.00 0.01 0.02 0.06 0.11 0.12 0.10 0.07 0.05 0.05 0.05 0.06 0.06 0.05
0.17 0.14 0.13 0.12 0.09 0.07 0.07 0.08 0.15 0.32 0.40 0.45 0.47 0.45 0.37 0.39 0.32 0.24 0.18 0.13 0.10 0.08 0.07 0.07 0.07 0.06 0.04 0.03 0.03 0.03 0.04 0.09 0.10 0.08 0.06 0.04 0.06 0.06 0.06 0.07 0.08 0.09 0.07
0.36 0.38 0.32 0.33 0.38 0.44 0.48 0.49 0.50 0.51 0.54 0.59 0.53 0.41 0.34 0.27 0.22 0.18 0.14 0.10 0.08 0.05 0.04 0.05 0.05 0.04 0.03 0.02 0.02 0.02 0.02 0.03 0.10 0.11 0.11 0.10 0.11 0.11 0.10 0.10 0.10 0.11 0.08
0.41 0.51 0.61 0.70 0.79 0.78 0.71 0.66 0.62 0.58 0.55 0.53 0.47 0.39 0.37 0.29 0.20 0.16 0.13 0.11 0.09 0.07 0.05 0.05 0.04 0.04 0.03 0.03 0.03 0.03 0.02 0.04 0.07 0.11 0.12 0.12 0.11 0.13 0.11 0.12 0.15 0.15 0.14
0.76 0.91 0.89 0.89 0.87 0.79 0.69 0.58 0.50 0.44 0.40 0.36 0.32 0.28 0.22 0.14 0.12 0.10 0.09 0.07 0.07 0.07 0.06 0.06 0.06 0.04 0.04 0.03 0.03 0.03 0.02 0.01 0.03 0.06 0.10 0.13 0.11 0.13 0.14 0.13 0.14 0.14 0.11
0.69 0.69 0.62 0.54 0.48 0.44 0.37 0.31 0.26 0.22 0.19 0.16 0.15 0.12 0.08 0.05 0.05 0.05 0.05 0.05 0.05 0.05 0.05 0.04 0.04 0.03 0.02 0.02 0.02 0.01 0.01 0.01 0.01 0.03 0.05 0.07 0.12 0.12 0.10 0.09 0.12 0.12 0.11
0.40 0.35 0.30 0.26 0.23 0.20 0.16 0.14 0.13 0.12 0.10 0.09 0.09 0.07 0.05 0.05 0.05 0.06 0.05 0.05 0.04 0.03 0.02 0.02 0.01 0.01 0.01 0.01 0.01 0.02 0.02 0.02 0.01 0.02 0.03 0.03 0.04 0.05 0.06 0.07 0.09 0.13 0.13
0.21 0.18 0.15 0.14 0.12 0.10 0.08 0.08 0.08 0.07 0.07 0.07 0.07 0.07 0.06 0.05 0.05 0.04 0.03 0.02 0.01 0.01 0.01 0.00 0.00 0.00 0.00 0.01 0.01 0.02 0.03 0.02 0.02 0.03 0.06 0.04 0.03 0.03 0.03 0.06 0.08 0.13 0.15
0.09 0.07 0.06 0.06 0.06 0.05 0.06 0.06 0.06 0.05 0.06 0.05 0.04 0.04 0.03 0.02 0.01 0.01 0.01 0.01 0.01 0.01 0.01 0.01 0.01 0.00 0.00 0.01 0.01 0.01 0.01 0.02 0.06 0.06 0.05 0.05 0.03 0.02 0.04 0.05 0.06 0.10 0.13
0.05 0.05 0.05 0.05 0.04 0.03 0.03 0.03 0.02 0.02 0.02 0.01 0.01 0.01 0.01 0.01 0.01 0.01 0.01 0.01 0.00 0.00 0.00 0.00 0.00 0.00 0.00 0.00 0.00 0.00 0.02 0.04 0.03 0.01 0.04 0.05 0.04 0.03 0.04 0.06 0.07 0.11 0.12
0.02 0.02 0.01 0.01 0.00 0.01 0.01 0.01 0.00 0.00 0.01 0.01 0.01 0.01 0.01 0.01 0.01 0.01 0.00 0.00 0.00 0.00 0.00 0.00 0.00 0.00 0.00 0.00 0.00 0.01 0.01 0.00 0.01 0.02 0.06 0.07 0.05 0.04 0.05 0.07 0.08 0.13 0.12

GFSGL_prec_precacc24_072.txt.gz
Total_Precipitation_Accumulation
0.14 0.04 0.04 0.12 0.33 0.23 0.08 0.11 0.19 0.36 0.44 0.55 0.40 0.24 0.18 0.19 0.16 0.12 0.12 0.14 0.14 0.15 0.16 0.16 0.17 0.18 0.19 0.22 0.28 0.35 0.40 0.40 0.40 0.23 0.13 0.13 0.09 0.03 0.01 0.00 0.00 0.00 0.00
0.19 0.13 0.32 0.50 0.74 0.60 0.46 0.60 0.42 0.26 0.15 0.16 0.19 0.16 0.13 0.18 0.22 0.18 0.15 0.13 0.15 0.18 0.23 0.30 0.30 0.28 0.33 0.34 0.35 0.31 0.27 0.24 0.29 0.25 0.13 0.09 0.07 0.05 0.03 0.01 0.01 0.00 0.00
0.33 0.35 0.42 0.31 0.51 0.67 0.49 0.37 0.28 0.22 0.19 0.14 0.12 0.14 0.13 0.15 0.16 0.17 0.17 0.19 0.22 0.28 0.28 0.27 0.25 0.26 0.26 0.22 0.21 0.19 0.16 0.18 0.21 0.26 0.20 0.10 0.07 0.05 0.04 0.03 0.02 0.02 0.00
0.15 0.11 0.13 0.17 0.15 0.26 0.28 0.26 0.16 0.18 0.12 0.10 0.09 0.08 0.08 0.07 0.07 0.10 0.14 0.13 0.11 0.12 0.12 0.12 0.12 0.13 0.13 0.13 0.13 0.11 0.10 0.11 0.16 0.20 0.26 0.19 0.12 0.08 0.05 0.05 0.03 0.02 0.02
0.05 0.04 0.09 0.09 0.13 0.16 0.18 0.16 0.16 0.16 0.16 0.16 0.12 0.09 0.06 0.04 0.07 0.05 0.05 0.04 0.04 0.04 0.03 0.04 0.05 0.11 0.12 0.09 0.08 0.10 0.12 0.16 0.21 0.22 0.24 0.19 0.15 0.09 0.03 0.03 0.06 0.08 0.09
0.07 0.06 0.10 0.10 0.13 0.19 0.17 0.12 0.11 0.17 0.21 0.18 0.15 0.19 0.19 0.13 0.17 0.14 0.11 0.06 0.06 0.06 0.06 0.05 0.07 0.15 0.10 0.15 0.16 0.20 0.23 0.25 0.25 0.22 0.22 0.22 0.16 0.10 0.14 0.22 0.20 0.18 0.18
0.03 0.04 0.06 0.07 0.12 0.12 0.15 0.13 0.15 0.21 0.26 0.21 0.20 0.17 0.15 0.11 0.16 0.14 0.14 0.08 0.08 0.07 0.08 0.08 0.09 0.11 0.17 0.12 0.22 0.31 0.30 0.33 0.24 0.16 0.18 0.19 0.20 0.21 0.27 0.29 0.24 0.22 0.23
0.02 0.04 0.04 0.05 0.08 0.09 0.14 0.10 0.11 0.15 0.15 0.15 0.16 0.16 0.13 0.13 0.20 0.18 0.19 0.07 0.06 0.07 0.07 0.07 0.07 0.07 0.12 0.12 0.07 0.11 0.14 0.19 0.20 0.15 0.18 0.29 0.38 0.43 0.42 0.38 0.30 0.25 0.19
0.03 0.06 0.05 0.05 0.06 0.08 0.13 0.12 0.10 0.10 0.12 0.12 0.10 0.11 0.10 0.12 0.21 0.16 0.14 0.04 0.09 0.12 0.12 0.14 0.18 0.17 0.44 0.38 0.24 0.32 0.43 0.51 0.57 0.52 0.49 0.46 0.42 0.35 0.28 0.25 0.21 0.16 0.11
0.01 0.03 0.04 0.05 0.05 0.04 0.05 0.07 0.07 0.07 0.08 0.06 0.08 0.08 0.15 0.09 0.21 0.14 0.11 0.04 0.08 0.10 0.14 0.24 0.47 0.32 0.49 0.37 0.28 0.24 0.32 0.34 0.29 0.28 0.26 0.24 0.20 0.16 0.12 0.10 0.11 0.16 0.14
0.00 0.00 0.01 0.03 0.03 0.02 0.03 0.03 0.04 0.05 0.06 0.06 0.07 0.06 0.06 0.10 0.16 0.19 0.16 0.09 0.10 0.18 0.22 0.25 0.31 0.38 0.24 0.23 0.20 0.16 0.23 0.28 0.28 0.24 0.21 0.18 0.15 0.08 0.04 0.03 0.02 0.06 0.13
0.00 0.00 0.02 0.02 0.04 0.09 0.11 0.09 0.07 0.05 0.05 0.07 0.07 0.08 0.08 0.10 0.22 0.21 0.18 0.18 0.25 0.18 0.23 0.24 0.35 0.40 0.28 0.27 0.25 0.25 0.26 0.24 0.22 0.21 0.19 0.13 0.06 0.03 0.02 0.01 0.01 0.01 0.02
0.01 0.03 0.04 0.05 0.07 0.09 0.10 0.12 0.08 0.08 0.09 0.11 0.11 0.13 0.14 0.15 0.19 0.24 0.20 0.22 0.25 0.21 0.21 0.30 0.38 0.34 0.28 0.24 0.22 0.22 0.20 0.16 0.12 0.09 0.07 0.05 0.03 0.01 0.03 0.06 0.09 0.08 0.06
0.08 0.08 0.08 0.09 0.13 0.08 0.07 0.09 0.10 0.11 0.15 0.19 0.21 0.22 0.23 0.24 0.24 0.22 0.22 0.23 0.24 0.24 0.30 0.34 0.34 0.31 0.30 0.28 0.25 0.19 0.14 0.11 0.09 0.08 0.05 0.02 0.01 0.01 0.02 0.02 0.05 0.06 0.09
0.07 0.07 0.08 0.08 0.09 0.09 0.10 0.14 0.12 0.14 0.20 0.19 0.25 0.31 0.39 0.47 0.57 0.53 0.40 0.35 0.32 0.32 0.30 0.28 0.25 0.20 0.17 0.14 0.11 0.07 0.05 0.03 0.02 0.01 0.02 0.02 0.05 0.06 0.05 0.05 0.06 0.06 0.07
0.09 0.10 0.12 0.10 0.11 0.12 0.14 0.19 0.26 0.24 0.24 0.27 0.31 0.30 0.38 0.36 0.39 0.38 0.37 0.33 0.29 0.26 0.22 0.22 0.22 0.19 0.16 0.13 0.10 0.06 0.03 0.02 0.01 0.01 0.05 0.08 0.06 0.04 0.03 0.03 0.04 0.05 0.04
0.19 0.20 0.22 0.23 0.22 0.23 0.24 0.27 0.35 0.50 0.55 0.61 0.64 0.64 0.57 0.62 0.57 0.51 0.45 0.39 0.35 0.29 0.26 0.25 0.21 0.17 0.12 0.08 0.05 0.04 0.04 0.02 0.01 0.01 0.02 0.04 0.05 0.04 0.04 0.04 0.05 0.07 0.06
0.37 0.43 0.44 0.48 0.52 0.59 0.64 0.67 0.68 0.71 0.75 0.82 0.78 0.67 0.60 0.53 0.47 0.39 0.32 0.22 0.19 0.15 0.13 0.12 0.11 0.09 0.06 0.04 0.03 0.02 0.01 0.02 0.01 0.01 0.02 0.06 0.09 0.10 0.08 0.07 0.07 0.10 0.07
0.41 0.52 0.64 0.77 0.88 0.87 0.81 0.76 0.72 0.69 0.66 0.65 0.60 0.53 0.51 0.43 0.33 0.28 0.22 0.19 0.17 0.14 0.12 0.10 0.09 0.07 0.05 0.03 0.03 0.02 0.02 0.02 0.01 0.01 0.02 0.05 0.08 0.11 0.10 0.10 0.12 0.12 0.12
0.75 0.90 0.90 0.91 0.90 0.83 0.75 0.65 0.58 0.53 0.50 0.46 0.44 0.42 0.34 0.23 0.19 0.17 0.14 0.11 0.10 0.09 0.07 0.06 0.05 0.04 0.03 0.03 0.03 0.02 0.01 0.01 0.01 0.01 0.02 0.04 0.05 0.09 0.12 0.11 0.10 0.11 0.10
0.67 0.68 0.62 0.55 0.50 0.47 0.41 0.35 0.31 0.27 0.24 0.20 0.20 0.18 0.12 0.08 0.08 0.08 0.07 0.05 0.05 0.05 0.05 0.04 0.04 0.03 0.02 0.01 0.01 0.01 0.01 0.01 0.01 0.01 0.01 0.02 0.05 0.08 0.08 0.07 0.07 0.08 0.08
0.39 0.36 0.31 0.27 0.24 0.21 0.18 0.16 0.15 0.13 0.12 0.11 0.11 0.08 0.05 0.05 0.05 0.06 0.05 0.05 0.04 0.03 0.02 0.01 0.01 0.00 0.01 0.01 0.00 0.01 0.02 0.02 0.01 0.01 0.02 0.02 0.02 0.04 0.05 0.05 0.05 0.06 0.10
0.21 0.19 0.16 0.15 0.13 0.11 0.09 0.09 0.08 0.08 0.07 0.08 0.07 0.06 0.06 0.05 0.05 0.04 0.03 0.02 0.01 0.01 0.00 0.00 0.00 0.00 0.00 0.00 0.01 0.02 0.02 0.01 0.02 0.03 0.04 0.03 0.02 0.02 0.03 0.04 0.03 0.05 0.11
0.09 0.07 0.06 0.06 0.06 0.05 0.06 0.06 0.06 0.06 0.06 0.05 0.04 0.04 0.03 0.02 0.01 0.01 0.01 0.00 0.00 0.01 0.00 0.00 0.00 0.00 0.00 0.00 0.00 0.00 0.01 0.02 0.04 0.05 0.04 0.04 0.03 0.02 0.03 0.03 0.02 0.03 0.08
0.05 0.05 0.05 0.05 0.04 0.04 0.03 0.03 0.02 0.02 0.02 0.01 0.01 0.01 0.01 0.01 0.00 0.01 0.01 0.00 0.00 0.00 0.00 0.00 0.00 0.00 0.00 0.00 0.00 0.00 0.01 0.02 0.02 0.01 0.03 0.04 0.03 0.03 0.03 0.04 0.03 0.04 0.06
0.02 0.02 0.01 0.01 0.01 0.00 0.00 0.00 0.00 0.00 0.01 0.01 0.01 0.01 0.01 0.01 0.00 0.01 0.00 0.00 0.00 0.00 0.00 0.00 0.00 0.00 0.00 0.00 0.00 0.01 0.01 0.00 0.00 0.02 0.05 0.05 0.04 0.03 0.04 0.05 0.04 0.05 0.05

GFSGL_prec_precacc24_075.txt.gz
Total_Precipitation_Accumulation
0.08 0.03 0.03 0.09 0.15 0.17 0.08 0.11 0.19 0.34 0.42 0.54 0.38 0.23 0.17 0.18 0.16 0.12 0.12 0.14 0.13 0.14 0.15 0.15 0.16 0.16 0.18 0.22 0.29 0.36 0.41 0.41 0.40 0.23 0.13 0.13 0.09 0.03 0.01 0.00 0.00 0.01 0.00
0.11 0.06 0.07 0.23 0.37 0.39 0.38 0.59 0.37 0.20 0.13 0.16 0.18 0.16 0.13 0.18 0.21 0.18 0.14 0.13 0.13 0.15 0.19 0.29 0.29 0.28 0.33 0.34 0.35 0.31 0.27 0.24 0.29 0.25 0.13 0.09 0.08 0.07 0.06 0.03 0.01 0.01 0.01
0.11 0.11 0.10 0.16 0.43 0.58 0.34 0.27 0.23 0.18 0.17 0.13 0.12 0.14 0.13 0.15 0.16 0.16 0.15 0.16 0.18 0.24 0.27 0.27 0.25 0.26 0.26 0.22 0.21 0.19 0.16 0.18 0.22 0.26 0.20 0.11 0.09 0.08 0.08 0.06 0.05 0.04 0.02
0.03 0.05 0.07 0.09 0.13 0.25 0.23 0.20 0.14 0.16 0.11 0.10 0.08 0.07 0.08 0.07 0.06 0.10 0.12 0.12 0.10 0.11 0.12 0.11 0.12 0.13 0.13 0.13 0.13 0.12 0.11 0.13 0.17 0.20 0.26 0.20 0.13 0.10 0.12 0.13 0.09 0.07 0.08
0.04 0.04 0.08 0.07 0.11 0.12 0.16 0.13 0.14 0.14 0.15 0.15 0.11 0.09 0.06 0.04 0.07 0.05 0.04 0.04 0.04 0.04 0.03 0.04 0.05 0.11 0.12 0.09 0.09 0.10 0.12 0.17 0.23 0.25 0.27 0.21 0.17 0.16 0.15 0.14 0.16 0.17 0.19
0.06 0.05 0.08 0.09 0.12 0.16 0.14 0.09 0.09 0.16 0.21 0.18 0.15 0.19 0.18 0.13 0.17 0.14 0.11 0.06 0.06 0.06 0.06 0.05 0.07 0.15 0.10 0.15 0.16 0.20 0.24 0.28 0.28 0.25 0.25 0.28 0.26 0.27 0.27 0.31 0.32 0.33 0.35
0.05 0.04 0.06 0.07 0.09 0.11 0.14 0.13 0.15 0.21 0.26 0.21 0.20 0.17 0.15 0.11 0.16 0.14 0.14 0.08 0.08 0.07 0.08 0.08 0.09 0.11 0.17 0.12 0.22 0.31 0.31 0.35 0.30 0.27 0.30 0.32 0.31 0.32 0.35 0.44 0.44 0.45 0.47
0.06 0.07 0.07 0.07 0.09 0.10 0.14 0.10 0.11 0.15 0.15 0.15 0.16 0.16 0.13 0.13 0.20 0.18 0.19 0.07 0.06 0.07 0.07 0.07 0.07 0.07 0.12 0.12 0.07 0.11 0.15 0.21 0.25 0.25 0.32 0.46 0.55 0.59 0.56 0.53 0.49 0.46 0.41
0.02 0.07 0.12 0.12 0.11 0.14 0.16 0.13 0.11 0.11 0.12 0.12 0.10 0.11 0.10 0.12 0.21 0.16 0.14 0.04 0.09 0.12 0.12 0.14 0.18 0.17 0.45 0.40 0.25 0.34 0.49 0.58 0.71 0.66 0.60 0.59 0.57 0.48 0.38 0.32 0.32 0.28 0.24
0.01 0.05 0.08 0.09 0.09 0.13 0.12 0.12 0.11 0.11 0.10 0.08 0.09 0.08 0.15 0.10 0.22 0.14 0.11 0.05 0.09 0.11 0.15 0.25 0.49 0.33 0.53 0.42 0.33 0.26 0.37 0.44 0.35 0.36 0.36 0.34 0.30 0.26 0.25 0.21 0.19 0.18 0.16
0.00 0.00 0.01 0.03 0.07 0.05 0.10 0.07 0.09 0.16 0.14 0.11 0.11 0.08 0.07 0.12 0.18 0.22 0.17 0.09 0.10 0.19 0.24 0.28 0.36 0.48 0.30 0.31 0.29 0.20 0.34 0.40 0.38 0.31 0.28 0.27 0.24 0.19 0.13 0.10 0.09 0.11 0.16
0.00 0.00 0.02 0.02 0.04 0.10 0.13 0.14 0.12 0.11 0.11 0.11 0.09 0.09 0.09 0.12 0.26 0.24 0.21 0.22 0.30 0.21 0.29 0.33 0.47 0.54 0.40 0.43 0.44 0.44 0.43 0.38 0.32 0.31 0.30 0.25 0.18 0.13 0.08 0.05 0.03 0.02 0.02
0.01 0.03 0.04 0.05 0.07 0.09 0.11 0.14 0.12 0.11 0.13 0.15 0.16 0.19 0.20 0.20 0.24 0.33 0.28 0.31 0.36 0.34 0.48 0.66 0.75 0.66 0.56 0.53 0.49 0.44 0.33 0.26 0.22 0.19 0.17 0.15 0.10 0.06 0.04 0.02 0.02 0.02 0.05
0.08 0.08 0.08 0.09 0.13 0.08 0.07 0.09 0.11 0.13 0.17 0.24 0.27 0.30 0.32 0.34 0.35 0.39 0.41 0.46 0.53 0.60 0.76 0.85 0.85 0.77 0.62 0.51 0.43 0.32 0.24 0.20 0.19 0.18 0.15 0.12 0.09 0.07 0.04 0.03 0.04 0.03 0.04
0.07 0.07 0.08 0.08 0.09 0.09 0.10 0.15 0.14 0.19 0.26 0.27 0.34 0.45 0.54 0.65 0.80 0.83 0.81 0.82 0.77 0.76 0.68 0.63 0.56 0.45 0.34 0.30 0.27 0.24 0.21 0.18 0.16 0.14 0.12 0.08 0.05 0.03 0.04 0.04 0.06 0.04 0.05
0.09 0.10 0.12 0.10 0.11 0.12 0.14 0.20 0.30 0.33 0.36 0.39 0.45 0.46 0.63 0.71 0.77 0.72 0.66 0.61 0.55 0.50 0.41 0.39 0.38 0.35 0.33 0.30 0.26 0.22 0.17 0.13 0.10 0.06 0.04 0.02 0.01 0.01 0.02 0.01 0.02 0.03 0.03
0.19 0.20 0.22 0.23 0.22 0.23 0.24 0.27 0.39 0.64 0.79 0.93 0.99 1.02 0.96 1.06 0.98 0.82 0.67 0.56 0.51 0.41 0.38 0.37 0.33 0.29 0.22 0.16 0.12 0.09 0.08 0.05 0.03 0.01 0.01 0.01 0.01 0.01 0.01 0.03 0.03 0.05 0.04
0.39 0.44 0.46 0.48 0.52 0.59 0.65 0.69 0.71 0.75 0.81 0.92 0.92 0.81 0.75 0.66 0.59 0.50 0.41 0.29 0.26 0.21 0.19 0.18 0.17 0.14 0.10 0.07 0.05 0.03 0.02 0.02 0.01 0.01 0.01 0.01 0.02 0.02 0.03 0.04 0.05 0.07 0.05
0.44 0.54 0.65 0.78 0.89 0.88 0.81 0.77 0.75 0.72 0.71 0.73 0.68 0.62 0.60 0.51 0.41 0.35 0.28 0.25 0.23 0.20 0.16 0.14 0.12 0.09 0.06 0.04 0.03 0.02 0.02 0.02 0.01 0.01 0.01 0.02 0.02 0.02 0.03 0.05 0.09 0.09 0.09
0.76 0.90 0.87 0.87 0.86 0.81 0.74 0.65 0.60 0.55 0.52 0.49 0.48 0.48 0.39 0.27 0.23 0.20 0.17 0.14 0.12 0.12 0.09 0.07 0.06 0.04 0.03 0.03 0.03 0.02 0.01 0.01 0.01 0.01 0.01 0.01 0.01 0.02 0.04 0.05 0.06 0.08 0.07
0.54 0.55 0.52 0.47 0.46 0.44 0.40 0.35 0.32 0.27 0.25 0.21 0.23 0.20 0.14 0.09 0.10 0.09 0.08 0.06 0.06 0.05 0.05 0.05 0.04 0.03 0.02 0.01 0.01 0.01 0.01 0.01 0.01 0.01 0.01 0.01 0.02 0.02 0.02 0.04 0.05 0.06 0.06
0.28 0.28 0.25 0.24 0.23 0.21 0.18 0.16 0.15 0.14 0.13 0.11 0.11 0.08 0.05 0.05 0.05 0.06 0.05 0.05 0.04 0.03 0.02 0.01 0.01 0.00 0.01 0.00 0.00 0.01 0.01 0.01 0.01 0.01 0.02 0.02 0.02 0.02 0.02 0.03 0.04 0.05 0.06
0.15 0.14 0.13 0.14 0.12 0.10 0.09 0.09 0.08 0.08 0.07 0.08 0.07 0.06 0.06 0.05 0.05 0.04 0.03 0.02 0.02 0.01 0.00 0.00 0.00 0.00 0.00 0.00 0.00 0.01 0.01 0.01 0.02 0.02 0.04 0.03 0.02 0.02 0.02 0.03 0.03 0.04 0.05
0.06 0.06 0.05 0.06 0.05 0.05 0.06 0.06 0.06 0.06 0.06 0.05 0.05 0.04 0.03 0.02 0.01 0.01 0.01 0.00 0.00 0.01 0.00 0.00 0.00 0.00 0.00 0.00 0.00 0.00 0.01 0.01 0.03 0.04 0.03 0.04 0.03 0.02 0.03 0.03 0.02 0.02 0.04
0.03 0.04 0.04 0.04 0.04 0.03 0.03 0.03 0.02 0.02 0.02 0.01 0.01 0.01 0.01 0.01 0.01 0.01 0.01 0.00 0.00 0.00 0.00 0.00 0.00 0.00 0.00 0.00 0.00 0.00 0.01 0.01 0.02 0.01 0.02 0.03 0.03 0.02 0.03 0.03 0.03 0.04 0.03
0.02 0.01 0.01 0.01 0.01 0.00 0.00 0.00 0.00 0.00 0.01 0.01 0.01 0.01 0.01 0.01 0.00 0.01 0.00 0.00 0.00 0.00 0.00 0.00 0.00 0.00 0.00 0.00 0.00 0.01 0.00 0.00 0.00 0.01 0.04 0.04 0.03 0.03 0.04 0.05 0.03 0.04 0.03

GFSGL_prec_precacc24_078.txt.gz
Total_Precipitation_Accumulation
0.00 0.00 0.00 0.00 0.01 0.01 0.03 0.03 0.05 0.15 0.18 0.42 0.34 0.22 0.16 0.18 0.16 0.12 0.12 0.13 0.12 0.14 0.13 0.11 0.11 0.12 0.16 0.21 0.29 0.36 0.41 0.41 0.40 0.23 0.13 0.13 0.09 0.03 0.01 0.00 0.00 0.01 0.00
0.06 0.02 0.01 0.00 0.01 0.02 0.05 0.23 0.22 0.10 0.06 0.10 0.15 0.15 0.12 0.17 0.21 0.18 0.14 0.13 0.13 0.15 0.15 0.20 0.22 0.25 0.32 0.34 0.35 0.31 0.27 0.24 0.29 0.25 0.13 0.09 0.08 0.07 0.06 0.03 0.01 0.01 0.01
0.07 0.07 0.05 0.04 0.02 0.05 0.14 0.15 0.14 0.10 0.08 0.07 0.08 0.12 0.12 0.14 0.16 0.16 0.15 0.16 0.18 0.23 0.24 0.25 0.25 0.26 0.26 0.22 0.21 0.19 0.16 0.18 0.22 0.26 0.20 0.11 0.09 0.08 0.08 0.06 0.05 0.04 0.02
0.00 0.01 0.03 0.02 0.03 0.05 0.13 0.15 0.10 0.12 0.06 0.06 0.06 0.07 0.08 0.07 0.06 0.09 0.12 0.11 0.09 0.11 0.11 0.11 0.11 0.13 0.13 0.13 0.13 0.12 0.11 0.13 0.17 0.20 0.26 0.20 0.13 0.10 0.12 0.13 0.10 0.08 0.08
0.01 0.00 0.01 0.03 0.04 0.04 0.08 0.09 0.11 0.10 0.12 0.14 0.11 0.08 0.06 0.04 0.06 0.04 0.04 0.04 0.04 0.04 0.03 0.04 0.05 0.11 0.12 0.09 0.09 0.10 0.12 0.17 0.23 0.25 0.27 0.21 0.17 0.16 0.16 0.15 0.20 0.22 0.27
0.01 0.03 0.03 0.04 0.05 0.06 0.07 0.05 0.07 0.13 0.19 0.17 0.14 0.19 0.18 0.12 0.16 0.14 0.10 0.06 0.06 0.05 0.06 0.05 0.07 0.15 0.10 0.15 0.16 0.20 0.24 0.28 0.28 0.25 0.25 0.28 0.26 0.27 0.27 0.32 0.37 0.39 0.41
0.10 0.08 0.06 0.06 0.06 0.06 0.09 0.11 0.13 0.19 0.25 0.20 0.19 0.16 0.15 0.11 0.15 0.14 0.14 0.08 0.08 0.07 0.08 0.08 0.09 0.11 0.17 0.12 0.22 0.31 0.31 0.36 0.31 0.27 0.32 0.33 0.32 0.33 0.37 0.47 0.50 0.53 0.56
0.07 0.08 0.06 0.06 0.07 0.09 0.12 0.08 0.11 0.16 0.17 0.16 0.16 0.16 0.13 0.13 0.20 0.18 0.19 0.07 0.06 0.07 0.07 0.07 0.07 0.07 0.12 0.12 0.08 0.11 0.15 0.21 0.27 0.28 0.35 0.49 0.61 0.67 0.65 0.66 0.64 0.61 0.55
0.01 0.05 0.11 0.14 0.13 0.17 0.16 0.12 0.12 0.13 0.14 0.14 0.14 0.13 0.11 0.13 0.23 0.16 0.14 0.04 0.09 0.12 0.13 0.15 0.18 0.17 0.46 0.41 0.26 0.34 0.49 0.59 0.76 0.75 0.68 0.71 0.72 0.61 0.49 0.39 0.39 0.35 0.32
0.01 0.04 0.07 0.08 0.09 0.15 0.15 0.14 0.13 0.13 0.12 0.12 0.14 0.10 0.16 0.10 0.23 0.16 0.12 0.05 0.10 0.13 0.16 0.26 0.52 0.36 0.55 0.45 0.34 0.26 0.38 0.48 0.41 0.45 0.48 0.48 0.44 0.41 0.41 0.35 0.30 0.25 0.20
0.00 0.00 0.01 0.03 0.07 0.05 0.10 0.08 0.13 0.21 0.19 0.17 0.15 0.10 0.08 0.13 0.20 0.25 0.19 0.10 0.11 0.20 0.28 0.33 0.41 0.56 0.35 0.37 0.37 0.28 0.52 0.62 0.64 0.52 0.49 0.50 0.49 0.46 0.39 0.30 0.20 0.19 0.19
0.00 0.00 0.02 0.02 0.04 0.10 0.13 0.14 0.13 0.14 0.16 0.16 0.13 0.11 0.10 0.13 0.30 0.28 0.25 0.27 0.36 0.27 0.39 0.44 0.60 0.69 0.49 0.53 0.55 0.66 0.76 0.68 0.64 0.67 0.66 0.59 0.47 0.36 0.24 0.14 0.08 0.05 0.05
0.01 0.03 0.04 0.05 0.07 0.09 0.11 0.14 0.12 0.11 0.14 0.17 0.19 0.23 0.25 0.24 0.29 0.43 0.36 0.41 0.49 0.49 0.67 0.89 1.02 0.91 0.79 0.78 0.80 0.85 0.86 0.83 0.79 0.73 0.66 0.55 0.38 0.24 0.14 0.10 0.08 0.06 0.05
0.08 0.08 0.08 0.09 0.13 0.08 0.07 0.09 0.11 0.13 0.18 0.25 0.30 0.35 0.38 0.42 0.46 0.53 0.60 0.63 0.75 0.87 1.07 1.19 1.21 1.17 1.13 1.06 0.97 0.83 0.72 0.63 0.53 0.43 0.33 0.25 0.18 0.13 0.10 0.07 0.05 0.03 0.03
0.07 0.07 0.08 0.08 0.09 0.09 0.10 0.16 0.14 0.19 0.26 0.27 0.35 0.46 0.58 0.70 0.91 0.95 0.95 0.98 1.00 1.02 0.93 0.87 0.83 0.74 0.65 0.59 0.51 0.43 0.36 0.30 0.25 0.21 0.17 0.13 0.09 0.05 0.03 0.01 0.01 0.03 0.04
0.09 0.10 0.12 0.10 0.11 0.12 0.14 0.21 0.31 0.34 0.37 0.40 0.46 0.47 0.64 0.75 0.84 0.82 0.80 0.76 0.71 0.67 0.59 0.60 0.61 0.58 0.53 0.47 0.40 0.33 0.25 0.19 0.15 0.10 0.07 0.04 0.02 0.01 0.00 0.00 0.00 0.01 0.03
0.20 0.20 0.22 0.23 0.23 0.23 0.24 0.28 0.39 0.65 0.79 0.94 1.01 1.03 0.98 1.10 1.04 0.93 0.81 0.69 0.62 0.49 0.45 0.46 0.42 0.37 0.30 0.23 0.18 0.14 0.12 0.09 0.05 0.03 0.01 0.01 0.01 0.01 0.00 0.00 0.01 0.01 0.03
0.39 0.44 0.46 0.49 0.53 0.60 0.65 0.69 0.71 0.74 0.79 0.91 0.92 0.82 0.76 0.68 0.61 0.54 0.46 0.32 0.30 0.26 0.24 0.24 0.22 0.19 0.15 0.11 0.08 0.05 0.03 0.02 0.01 0.01 0.01 0.01 0.01 0.01 0.01 0.01 0.01 0.03 0.03
0.44 0.54 0.64 0.76 0.87 0.86 0.80 0.74 0.70 0.67 0.67 0.71 0.68 0.62 0.61 0.53 0.42 0.37 0.30 0.28 0.26 0.24 0.20 0.18 0.16 0.12 0.08 0.05 0.03 0.02 0.02 0.02 0.01 0.01 0.01 0.01 0.01 0.01 0.01 0.01 0.01 0.03 0.05
0.69 0.83 0.81 0.78 0.76 0.68 0.62 0.57 0.54 0.51 0.49 0.48 0.48 0.49 0.41 0.27 0.24 0.22 0.19 0.16 0.14 0.14 0.10 0.08 0.06 0.04 0.03 0.03 0.02 0.02 0.01 0.01 0.01 0.01 0.01 0.01 0.01 0.02 0.02 0.01 0.02 0.04 0.05
0.41 0.41 0.37 0.32 0.32 0.31 0.30 0.28 0.27 0.24 0.23 0.22 0.25 0.22 0.15 0.10 0.11 0.09 0.08 0.07 0.06 0.05 0.05 0.05 0.04 0.03 0.02 0.01 0.01 0.01 0.01 0.01 0.01 0.01 0.01 0.01 0.01 0.02 0.01 0.02 0.02 0.03 0.04
0.18 0.18 0.16 0.15 0.15 0.15 0.15 0.14 0.13 0.12 0.12 0.11 0.11 0.08 0.05 0.05 0.05 0.06 0.05 0.05 0.04 0.03 0.02 0.01 0.01 0.00 0.00 0.00 0.00 0.01 0.01 0.01 0.01 0.01 0.01 0.01 0.01 0.01 0.02 0.02 0.02 0.02 0.04
0.09 0.09 0.08 0.08 0.07 0.07 0.06 0.06 0.06 0.06 0.06 0.06 0.06 0.05 0.05 0.04 0.04 0.03 0.03 0.02 0.01 0.01 0.00 0.00 0.00 0.00 0.00 0.00 0.00 0.01 0.01 0.01 0.01 0.02 0.03 0.02 0.02 0.02 0.02 0.03 0.02 0.03 0.03
0.02 0.02 0.02 0.03 0.03 0.03 0.03 0.04 0.04 0.04 0.04 0.04 0.04 0.03 0.03 0.02 0.01 0.01 0.01 0.00 0.00 0.01 0.01 0.00 0.00 0.00 0.00 0.00 0.00 0.00 0.00 0.01 0.02 0.03 0.03 0.03 0.02 0.01 0.02 0.03 0.02 0.02 0.03
0.01 0.01 0.01 0.02 0.02 0.02 0.02 0.02 0.01 0.01 0.01 0.01 0.01 0.01 0.02 0.01 0.01 0.01 0.01 0.00 0.00 0.00 0.00 0.00 0.00 0.00 0.00 0.00 0.00 0.00 0.00 0.01 0.01 0.01 0.02 0.02 0.02 0.02 0.03 0.03 0.03 0.04 0.03
0.00 0.00 0.00 0.00 0.00 0.00 0.00 0.00 0.01 0.01 0.01 0.01 0.01 0.01 0.01 0.01 0.01 0.01 0.00 0.00 0.00 0.00 0.00 0.00 0.00 0.00 0.00 0.00 0.00 0.00 0.00 0.00 0.00 0.01 0.02 0.02 0.02 0.03 0.04 0.04 0.03 0.03 0.02

GFSGL_prec_precacc24_081.txt.gz
Total_Precipitation_Accumulation
0.00 0.00 0.00 0.00 0.00 0.00 0.00 0.00 0.00 0.01 0.01 0.03 0.15 0.14 0.08 0.07 0.10 0.11 0.12 0.13 0.13 0.13 0.13 0.11 0.10 0.11 0.15 0.19 0.27 0.35 0.40 0.41 0.41 0.23 0.13 0.13 0.09 0.03 0.01 0.00 0.00 0.01 0.00
0.02 0.00 0.00 0.00 0.00 0.00 0.00 0.00 0.00 0.00 0.00 0.00 0.03 0.06 0.06 0.09 0.13 0.13 0.13 0.12 0.13 0.15 0.15 0.20 0.21 0.24 0.31 0.33 0.35 0.31 0.27 0.24 0.29 0.25 0.13 0.09 0.08 0.07 0.06 0.03 0.01 0.01 0.01
0.02 0.01 0.00 0.00 0.00 0.00 0.00 0.00 0.02 0.05 0.04 0.03 0.03 0.06 0.06 0.08 0.12 0.14 0.15 0.15 0.17 0.22 0.23 0.25 0.24 0.26 0.26 0.22 0.21 0.19 0.16 0.18 0.22 0.26 0.20 0.11 0.09 0.08 0.08 0.06 0.05 0.04 0.02
0.00 0.00 0.01 0.00 0.01 0.01 0.01 0.01 0.04 0.11 0.05 0.02 0.01 0.02 0.03 0.03 0.04 0.08 0.11 0.11 0.09 0.11 0.11 0.11 0.11 0.13 0.13 0.13 0.13 0.12 0.11 0.13 0.17 0.20 0.26 0.20 0.13 0.10 0.12 0.13 0.10 0.08 0.08
0.01 0.01 0.01 0.00 0.01 0.02 0.03 0.03 0.04 0.06 0.09 0.11 0.07 0.04 0.02 0.02 0.04 0.03 0.04 0.04 0.04 0.03 0.03 0.04 0.05 0.10 0.12 0.09 0.09 0.10 0.12 0.17 0.23 0.25 0.27 0.21 0.17 0.16 0.16 0.15 0.20 0.22 0.27
0.04 0.06 0.05 0.04 0.02 0.03 0.05 0.04 0.04 0.08 0.13 0.14 0.10 0.15 0.16 0.11 0.14 0.13 0.10 0.06 0.06 0.05 0.06 0.05 0.07 0.15 0.10 0.15 0.16 0.20 0.24 0.28 0.28 0.25 0.25 0.28 0.26 0.27 0.27 0.32 0.37 0.39 0.40
0.11 0.09 0.06 0.05 0.04 0.03 0.07 0.09 0.11 0.14 0.19 0.18 0.18 0.15 0.13 0.10 0.13 0.13 0.14 0.08 0.08 0.07 0.08 0.08 0.09 0.11 0.17 0.12 0.22 0.31 0.31 0.36 0.31 0.27 0.32 0.33 0.32 0.33 0.37 0.47 0.51 0.55 0.60
0.07 0.08 0.06 0.05 0.04 0.07 0.10 0.10 0.09 0.14 0.16 0.14 0.16 0.16 0.13 0.15 0.19 0.18 0.19 0.07 0.06 0.07 0.07 0.07 0.07 0.07 0.12 0.12 0.08 0.11 0.15 0.21 0.27 0.28 0.35 0.50 0.61 0.67 0.68 0.71 0.74 0.76 0.73
0.01 0.05 0.11 0.12 0.09 0.13 0.08 0.06 0.07 0.11 0.13 0.16 0.16 0.13 0.11 0.14 0.25 0.18 0.15 0.04 0.10 0.13 0.14 0.16 0.21 0.17 0.47 0.43 0.26 0.34 0.49 0.59 0.77 0.76 0.70 0.74 0.76 0.68 0.57 0.46 0.48 0.50 0.54
0.00 0.02 0.05 0.06 0.06 0.12 0.12 0.11 0.12 0.12 0.12 0.14 0.17 0.11 0.19 0.12 0.26 0.17 0.13 0.06 0.12 0.16 0.21 0.32 0.62 0.42 0.58 0.48 0.37 0.27 0.41 0.51 0.44 0.50 0.54 0.55 0.52 0.51 0.57 0.45 0.39 0.39 0.42
0.00 0.00 0.00 0.03 0.06 0.05 0.10 0.08 0.12 0.20 0.20 0.18 0.17 0.12 0.11 0.16 0.24 0.29 0.22 0.12 0.17 0.34 0.40 0.43 0.49 0.69 0.42 0.44 0.47 0.38 0.71 0.79 0.81 0.62 0.57 0.59 0.59 0.57 0.54 0.53 0.50 0.50 0.50
0.00 0.00 0.02 0.02 0.04 0.10 0.13 0.14 0.13 0.14 0.16 0.16 0.15 0.14 0.14 0.16 0.37 0.32 0.28 0.29 0.44 0.40 0.56 0.61 0.79 0.92 0.69 0.75 0.83 1.04 1.19 1.06 0.96 1.03 1.04 0.98 0.84 0.72 0.64 0.56 0.48 0.38 0.30
0.01 0.03 0.04 0.05 0.07 0.09 0.11 0.14 0.12 0.11 0.14 0.17 0.19 0.24 0.27 0.27 0.34 0.50 0.41 0.46 0.56 0.57 0.84 1.19 1.37 1.27 1.10 1.02 1.06 1.14 1.19 1.17 1.19 1.18 1.13 1.05 0.88 0.68 0.47 0.31 0.21 0.15 0.11
0.08 0.08 0.08 0.09 0.13 0.08 0.07 0.09 0.11 0.13 0.18 0.25 0.30 0.36 0.38 0.42 0.47 0.55 0.64 0.73 0.86 0.99 1.24 1.36 1.36 1.30 1.25 1.21 1.14 1.04 0.94 0.85 0.75 0.64 0.54 0.46 0.36 0.28 0.22 0.17 0.13 0.08 0.06
0.07 0.07 0.08 0.08 0.09 0.09 0.11 0.16 0.15 0.20 0.27 0.27 0.35 0.47 0.58 0.72 0.93 0.96 0.96 0.99 1.01 1.04 0.95 0.91 0.86 0.77 0.69 0.63 0.57 0.51 0.46 0.40 0.36 0.32 0.27 0.22 0.16 0.10 0.06 0.02 0.01 0.00 0.00
0.09 0.10 0.12 0.10 0.11 0.12 0.14 0.21 0.32 0.35 0.37 0.40 0.47 0.47 0.66 0.77 0.85 0.82 0.80 0.76 0.72 0.67 0.59 0.61 0.62 0.59 0.55 0.50 0.43 0.37 0.30 0.23 0.19 0.14 0.10 0.06 0.03 0.01 0.01 0.00 0.00 0.00 0.00
0.20 0.21 0.22 0.23 0.23 0.23 0.24 0.28 0.40 0.65 0.79 0.94 1.01 1.03 0.99 1.11 1.04 0.93 0.81 0.69 0.62 0.50 0.45 0.47 0.44 0.40 0.33 0.27 0.22 0.18 0.16 0.12 0.07 0.04 0.02 0.01 0.01 0.01 0.00 0.01 0.00 0.00 0.00
0.39 0.44 0.46 0.49 0.53 0.60 0.65 0.69 0.71 0.74 0.78 0.88 0.89 0.80 0.75 0.67 0.61 0.54 0.45 0.31 0.31 0.26 0.25 0.25 0.24 0.21 0.17 0.13 0.10 0.07 0.04 0.02 0.01 0.01 0.01 0.01 0.01 0.01 0.01 0.01 0.00 0.01 0.00
0.41 0.50 0.60 0.70 0.81 0.80 0.75 0.69 0.64 0.60 0.59 0.62 0.61 0.56 0.54 0.46 0.38 0.34 0.29 0.27 0.27 0.25 0.21 0.18 0.16 0.12 0.09 0.05 0.03 0.02 0.02 0.02 0.01 0.01 0.01 0.01 0.01 0.01 0.01 0.01 0.01 0.01 0.01
0.51 0.67 0.68 0.68 0.66 0.60 0.54 0.48 0.45 0.43 0.41 0.40 0.40 0.42 0.36 0.24 0.22 0.21 0.19 0.16 0.14 0.14 0.10 0.08 0.06 0.04 0.03 0.03 0.02 0.02 0.01 0.01 0.01 0.01 0.01 0.01 0.01 0.02 0.01 0.01 0.01 0.02 0.01
0.33 0.35 0.31 0.26 0.26 0.26 0.25 0.23 0.23 0.19 0.19 0.18 0.21 0.19 0.13 0.08 0.09 0.08 0.07 0.06 0.05 0.05 0.05 0.04 0.04 0.03 0.02 0.01 0.01 0.01 0.01 0.01 0.01 0.01 0.01 0.01 0.01 0.01 0.01 0.01 0.02 0.02 0.01
0.15 0.15 0.12 0.12 0.12 0.12 0.12 0.10 0.10 0.08 0.08 0.07 0.07 0.05 0.03 0.02 0.03 0.03 0.03 0.04 0.03 0.02 0.02 0.01 0.01 0.00 0.00 0.00 0.00 0.01 0.01 0.01 0.01 0.01 0.01 0.01 0.01 0.01 0.02 0.02 0.02 0.02 0.02
0.08 0.07 0.06 0.06 0.05 0.04 0.03 0.03 0.03 0.03 0.03 0.03 0.02 0.02 0.01 0.01 0.01 0.01 0.02 0.01 0.01 0.01 0.00 0.00 0.00 0.00 0.00 0.00 0.00 0.01 0.01 0.01 0.01 0.01 0.02 0.02 0.02 0.01 0.02 0.03 0.02 0.03 0.02
0.02 0.01 0.01 0.01 0.01 0.01 0.01 0.01 0.01 0.01 0.01 0.01 0.01 0.01 0.01 0.01 0.01 0.01 0.01 0.00 0.00 0.01 0.01 0.00 0.00 0.00 0.00 0.00 0.00 0.00 0.00 0.01 0.01 0.02 0.02 0.02 0.02 0.01 0.02 0.02 0.02 0.02 0.03
0.00 0.00 0.00 0.01 0.01 0.00 0.00 0.00 0.00 0.01 0.01 0.01 0.01 0.01 0.02 0.01 0.01 0.01 0.01 0.00 0.00 0.00 0.00 0.00 0.00 0.00 0.00 0.00 0.00 0.00 0.00 0.01 0.01 0.01 0.01 0.02 0.02 0.02 0.02 0.03 0.03 0.03 0.03
0.00 0.00 0.00 0.00 0.00 0.00 0.00 0.00 0.01 0.01 0.01 0.01 0.01 0.01 0.01 0.01 0.01 0.01 0.00 0.00 0.00 0.00 0.00 0.00 0.00 0.00 0.00 0.00 0.00 0.00 0.00 0.00 0.00 0.01 0.01 0.02 0.02 0.02 0.03 0.04 0.03 0.03 0.02

GFSGL_prec_precacc24_084.txt.gz
Total_Precipitation_Accumulation
0.00 0.00 0.00 0.00 0.00 0.00 0.00 0.00 0.00 0.00 0.00 0.00 0.00 0.02 0.02 0.03 0.03 0.05 0.07 0.09 0.11 0.13 0.14 0.13 0.11 0.12 0.17 0.21 0.29 0.37 0.41 0.42 0.42 0.23 0.13 0.13 0.09 0.03 0.01 0.00 0.00 0.01 0.00
0.01 0.00 0.00 0.00 0.00 0.00 0.00 0.00 0.00 0.00 0.00 0.00 0.00 0.00 0.02 0.06 0.08 0.08 0.07 0.07 0.10 0.14 0.15 0.20 0.21 0.25 0.32 0.35 0.36 0.32 0.28 0.25 0.30 0.26 0.13 0.09 0.08 0.07 0.06 0.03 0.01 0.01 0.01
0.00 0.00 0.00 0.00 0.00 0.00 0.00 0.00 0.00 0.00 0.00 0.00 0.01 0.01 0.00 0.01 0.03 0.07 0.07 0.09 0.15 0.21 0.23 0.24 0.23 0.26 0.25 0.22 0.20 0.19 0.16 0.18 0.22 0.26 0.20 0.11 0.09 0.08 0.08 0.06 0.05 0.04 0.02
0.00 0.00 0.00 0.00 0.00 0.00 0.00 0.00 0.00 0.01 0.00 0.00 0.00 0.00 0.00 0.00 0.00 0.03 0.08 0.08 0.07 0.09 0.10 0.10 0.10 0.12 0.12 0.12 0.13 0.12 0.11 0.14 0.17 0.21 0.26 0.20 0.13 0.10 0.12 0.13 0.10 0.08 0.08
0.01 0.01 0.01 0.00 0.00 0.00 0.00 0.00 0.01 0.02 0.03 0.04 0.03 0.02 0.02 0.01 0.01 0.01 0.01 0.02 0.03 0.02 0.02 0.02 0.03 0.07 0.10 0.08 0.09 0.10 0.12 0.17 0.23 0.25 0.27 0.21 0.17 0.16 0.16 0.15 0.20 0.22 0.27
0.05 0.07 0.06 0.04 0.02 0.01 0.00 0.00 0.01 0.02 0.04 0.06 0.06 0.11 0.13 0.09 0.10 0.11 0.09 0.06 0.05 0.04 0.03 0.03 0.04 0.11 0.10 0.15 0.16 0.20 0.24 0.28 0.28 0.25 0.25 0.28 0.26 0.27 0.27 0.32 0.37 0.39 0.40
0.12 0.10 0.06 0.06 0.04 0.03 0.03 0.02 0.05 0.06 0.08 0.11 0.13 0.11 0.11 0.08 0.10 0.11 0.12 0.07 0.06 0.04 0.05 0.06 0.08 0.11 0.17 0.12 0.22 0.31 0.31 0.36 0.31 0.28 0.32 0.34 0.32 0.34 0.38 0.48 0.51 0.55 0.60
0.07 0.09 0.06 0.06 0.06 0.07 0.07 0.08 0.08 0.06 0.08 0.09 0.11 0.10 0.10 0.14 0.16 0.15 0.15 0.06 0.04 0.05 0.07 0.06 0.07 0.07 0.13 0.13 0.08 0.11 0.15 0.22 0.27 0.28 0.36 0.51 0.63 0.69 0.69 0.73 0.76 0.80 0.81
0.01 0.05 0.10 0.11 0.09 0.12 0.06 0.03 0.04 0.07 0.08 0.12 0.16 0.10 0.08 0.11 0.25 0.15 0.14 0.05 0.10 0.14 0.16 0.22 0.27 0.19 0.50 0.46 0.28 0.34 0.51 0.62 0.81 0.82 0.76 0.83 0.86 0.74 0.61 0.49 0.51 0.58 0.70
0.00 0.02 0.04 0.05 0.06 0.11 0.10 0.07 0.08 0.10 0.11 0.13 0.16 0.10 0.18 0.11 0.26 0.16 0.13 0.07 0.16 0.24 0.31 0.42 0.74 0.48 0.63 0.52 0.41 0.33 0.60 0.72 0.60 0.62 0.64 0.67 0.64 0.63 0.70 0.52 0.43 0.48 0.58
0.00 0.00 0.00 0.02 0.05 0.04 0.09 0.06 0.10 0.19 0.17 0.16 0.15 0.10 0.10 0.18 0.26 0.31 0.23 0.13 0.21 0.45 0.52 0.55 0.62 0.83 0.53 0.55 0.60 0.55 1.07 1.22 1.25 1.02 0.94 0.92 0.90 0.88 0.84 0.79 0.72 0.69 0.68
0.00 0.00 0.02 0.02 0.04 0.10 0.13 0.13 0.11 0.13 0.14 0.14 0.13 0.13 0.13 0.17 0.39 0.34 0.29 0.31 0.46 0.42 0.60 0.69 0.91 1.06 0.84 0.93 1.04 1.29 1.52 1.45 1.41 1.46 1.40 1.30 1.16 1.04 0.93 0.81 0.69 0.59 0.51
0.01 0.03 0.04 0.04 0.06 0.06 0.08 0.11 0.09 0.09 0.12 0.16 0.19 0.24 0.27 0.27 0.34 0.50 0.41 0.47 0.56 0.57 0.85 1.22 1.41 1.32 1.17 1.13 1.17 1.24 1.28 1.27 1.31 1.31 1.26 1.16 0.98 0.78 0.58 0.43 0.31 0.24 0.19
0.08 0.08 0.08 0.09 0.11 0.06 0.05 0.06 0.09 0.11 0.17 0.25 0.31 0.36 0.39 0.42 0.47 0.55 0.64 0.73 0.86 0.99 1.24 1.36 1.36 1.30 1.26 1.22 1.15 1.04 0.95 0.87 0.77 0.67 0.57 0.48 0.39 0.31 0.25 0.21 0.17 0.14 0.10
0.07 0.07 0.08 0.08 0.09 0.09 0.11 0.16 0.15 0.21 0.27 0.27 0.36 0.47 0.58 0.73 0.94 0.97 0.96 1.00 1.01 1.03 0.95 0.90 0.86 0.77 0.69 0.64 0.57 0.52 0.47 0.41 0.37 0.34 0.28 0.23 0.17 0.11 0.06 0.02 0.01 0.00 0.00
0.09 0.10 0.12 0.11 0.11 0.12 0.15 0.22 0.32 0.36 0.37 0.41 0.46 0.47 0.66 0.77 0.84 0.81 0.79 0.76 0.71 0.67 0.59 0.61 0.62 0.60 0.55 0.50 0.44 0.37 0.30 0.24 0.20 0.14 0.10 0.06 0.03 0.01 0.00 0.00 0.00 0.00 0.00
0.20 0.21 0.23 0.24 0.23 0.23 0.24 0.26 0.37 0.60 0.73 0.88 0.94 0.96 0.94 1.07 1.02 0.93 0.81 0.70 0.62 0.50 0.45 0.47 0.44 0.40 0.34 0.27 0.23 0.18 0.16 0.12 0.07 0.04 0.02 0.01 0.01 0.01 0.00 0.01 0.00 0.00 0.00
0.38 0.44 0.46 0.48 0.48 0.50 0.53 0.57 0.61 0.65 0.70 0.81 0.84 0.78 0.74 0.65 0.59 0.52 0.44 0.30 0.29 0.25 0.24 0.24 0.24 0.20 0.17 0.14 0.10 0.07 0.04 0.02 0.01 0.01 0.01 0.01 0.01 0.01 0.01 0.00 0.00 0.00 0.00
0.41 0.49 0.55 0.59 0.65 0.67 0.66 0.63 0.59 0.56 0.55 0.58 0.55 0.49 0.47 0.40 0.33 0.29 0.24 0.23 0.23 0.22 0.18 0.16 0.14 0.10 0.07 0.04 0.03 0.02 0.02 0.02 0.01 0.01 0.01 0.01 0.01 0.01 0.01 0.01 0.01 0.01 0.00
0.40 0.50 0.52 0.55 0.58 0.54 0.50 0.44 0.41 0.38 0.36 0.35 0.35 0.38 0.32 0.21 0.19 0.18 0.15 0.13 0.10 0.10 0.07 0.04 0.03 0.02 0.02 0.02 0.02 0.02 0.01 0.01 0.01 0.01 0.01 0.01 0.01 0.01 0.01 0.01 0.01 0.02 0.01
0.22 0.26 0.25 0.22 0.23 0.23 0.22 0.21 0.20 0.17 0.17 0.16 0.18 0.17 0.11 0.07 0.08 0.07 0.05 0.04 0.03 0.03 0.03 0.02 0.02 0.02 0.01 0.01 0.01 0.01 0.01 0.01 0.01 0.01 0.01 0.01 0.01 0.01 0.01 0.01 0.02 0.02 0.01
0.10 0.11 0.09 0.10 0.11 0.11 0.11 0.10 0.09 0.08 0.07 0.06 0.06 0.03 0.01 0.01 0.01 0.02 0.02 0.02 0.01 0.01 0.01 0.01 0.00 0.00 0.00 0.00 0.00 0.01 0.01 0.01 0.01 0.01 0.01 0.01 0.01 0.01 0.01 0.02 0.02 0.02 0.02
0.04 0.04 0.04 0.05 0.04 0.04 0.03 0.03 0.03 0.02 0.02 0.02 0.01 0.01 0.01 0.01 0.01 0.01 0.01 0.01 0.01 0.01 0.00 0.00 0.00 0.00 0.00 0.00 0.00 0.01 0.01 0.01 0.01 0.01 0.01 0.01 0.01 0.01 0.02 0.02 0.02 0.02 0.02
0.01 0.00 0.00 0.01 0.00 0.00 0.00 0.01 0.01 0.01 0.01 0.01 0.01 0.01 0.01 0.01 0.01 0.01 0.01 0.01 0.01 0.01 0.01 0.00 0.00 0.00 0.00 0.00 0.00 0.00 0.00 0.00 0.01 0.01 0.01 0.02 0.02 0.01 0.02 0.02 0.02 0.02 0.02
0.00 0.00 0.00 0.00 0.00 0.00 0.00 0.00 0.00 0.01 0.01 0.01 0.01 0.01 0.02 0.01 0.01 0.01 0.01 0.00 0.00 0.00 0.00 0.00 0.00 0.00 0.00 0.00 0.00 0.00 0.00 0.00 0.00 0.00 0.01 0.01 0.01 0.02 0.02 0.02 0.02 0.03 0.03
0.00 0.00 0.00 0.00 0.00 0.00 0.00 0.00 0.01 0.01 0.01 0.01 0.01 0.01 0.01 0.00 0.01 0.01 0.00 0.00 0.00 0.00 0.00 0.00 0.00 0.00 0.00 0.00 0.00 0.00 0.00 0.00 0.00 0.00 0.01 0.01 0.01 0.02 0.03 0.03 0.02 0.02 0.02

GFSGL_prec_precacc24_087.txt.gz
Total_Precipitation_Accumulation
0.00 0.00 0.00 0.00 0.01 0.00 0.00 0.00 0.00 0.01 0.03 0.08 0.12 0.13 0.11 0.05 0.02 0.02 0.01 0.01 0.04 0.06 0.09 0.10 0.11 0.12 0.20 0.25 0.32 0.40 0.44 0.44 0.45 0.25 0.13 0.13 0.10 0.04 0.01 0.00 0.00 0.01 0.00
0.00 0.00 0.00 0.00 0.00 0.00 0.00 0.00 0.00 0.00 0.00 0.00 0.03 0.05 0.07 0.11 0.04 0.03 0.02 0.03 0.05 0.07 0.09 0.13 0.16 0.27 0.35 0.37 0.39 0.36 0.30 0.26 0.31 0.27 0.14 0.10 0.08 0.07 0.06 0.03 0.01 0.01 0.01
0.00 0.00 0.00 0.00 0.00 0.00 0.00 0.00 0.00 0.00 0.00 0.00 0.00 0.00 0.00 0.01 0.03 0.03 0.02 0.02 0.04 0.07 0.10 0.15 0.19 0.26 0.26 0.22 0.21 0.19 0.17 0.19 0.22 0.27 0.21 0.12 0.09 0.08 0.08 0.06 0.05 0.04 0.02
0.00 0.00 0.00 0.00 0.00 0.00 0.00 0.00 0.00 0.00 0.00 0.00 0.00 0.00 0.00 0.00 0.00 0.00 0.00 0.01 0.03 0.06 0.07 0.09 0.10 0.12 0.11 0.12 0.13 0.12 0.12 0.15 0.18 0.22 0.26 0.20 0.13 0.10 0.12 0.13 0.10 0.08 0.08
0.01 0.01 0.01 0.00 0.00 0.00 0.00 0.00 0.00 0.00 0.00 0.00 0.00 0.00 0.00 0.00 0.00 0.00 0.00 0.00 0.01 0.01 0.01 0.02 0.03 0.04 0.05 0.06 0.08 0.10 0.12 0.17 0.24 0.25 0.27 0.21 0.17 0.16 0.16 0.15 0.20 0.22 0.27
0.05 0.07 0.06 0.04 0.02 0.01 0.00 0.00 0.00 0.00 0.00 0.00 0.00 0.01 0.02 0.03 0.04 0.04 0.04 0.03 0.02 0.02 0.02 0.03 0.03 0.07 0.08 0.11 0.13 0.18 0.23 0.29 0.28 0.25 0.26 0.29 0.27 0.28 0.27 0.32 0.37 0.39 0.40
0.13 0.11 0.07 0.07 0.04 0.04 0.04 0.03 0.04 0.03 0.02 0.01 0.02 0.02 0.02 0.03 0.04 0.05 0.07 0.05 0.04 0.03 0.04 0.06 0.06 0.08 0.12 0.10 0.18 0.29 0.31 0.36 0.32 0.30 0.35 0.37 0.35 0.37 0.42 0.49 0.52 0.56 0.60
0.08 0.10 0.07 0.08 0.07 0.08 0.08 0.09 0.10 0.06 0.08 0.07 0.07 0.05 0.05 0.11 0.11 0.11 0.12 0.06 0.03 0.04 0.06 0.06 0.05 0.06 0.14 0.15 0.07 0.11 0.15 0.23 0.30 0.33 0.41 0.59 0.72 0.74 0.74 0.80 0.89 0.95 1.00
0.02 0.06 0.11 0.12 0.10 0.12 0.07 0.04 0.05 0.07 0.07 0.09 0.13 0.08 0.08 0.12 0.22 0.12 0.12 0.05 0.08 0.12 0.17 0.23 0.27 0.20 0.56 0.49 0.29 0.37 0.61 0.74 0.97 0.97 0.89 0.98 1.03 0.91 0.77 0.67 0.77 0.91 1.10
0.00 0.02 0.04 0.05 0.06 0.11 0.10 0.07 0.07 0.08 0.08 0.12 0.16 0.10 0.18 0.10 0.24 0.14 0.11 0.07 0.18 0.29 0.38 0.47 0.77 0.49 0.64 0.54 0.45 0.41 0.77 0.98 0.88 0.89 0.88 0.88 0.80 0.78 0.83 0.62 0.52 0.57 0.70
0.00 0.00 0.00 0.02 0.04 0.04 0.09 0.06 0.10 0.18 0.17 0.16 0.14 0.09 0.08 0.16 0.23 0.27 0.18 0.09 0.17 0.42 0.50 0.55 0.64 0.89 0.58 0.61 0.69 0.68 1.30 1.48 1.50 1.24 1.13 1.10 1.06 1.00 0.94 0.89 0.82 0.79 0.78
0.00 0.00 0.00 0.00 0.01 0.06 0.09 0.12 0.11 0.12 0.14 0.12 0.11 0.10 0.10 0.12 0.31 0.26 0.23 0.26 0.43 0.41 0.60 0.69 0.91 1.06 0.85 0.94 1.05 1.31 1.55 1.50 1.45 1.49 1.43 1.34 1.19 1.07 0.96 0.84 0.72 0.61 0.52
0.00 0.00 0.01 0.02 0.03 0.05 0.07 0.09 0.08 0.07 0.09 0.12 0.15 0.19 0.22 0.22 0.29 0.45 0.38 0.45 0.56 0.57 0.86 1.22 1.41 1.32 1.17 1.13 1.17 1.24 1.28 1.27 1.31 1.31 1.27 1.17 0.99 0.80 0.59 0.43 0.32 0.24 0.19
0.03 0.04 0.04 0.07 0.11 0.06 0.04 0.04 0.06 0.07 0.11 0.17 0.23 0.30 0.35 0.40 0.47 0.54 0.64 0.73 0.86 0.99 1.24 1.36 1.36 1.30 1.25 1.22 1.15 1.04 0.95 0.87 0.77 0.67 0.57 0.49 0.39 0.31 0.25 0.21 0.17 0.14 0.10
0.05 0.06 0.07 0.08 0.08 0.09 0.11 0.15 0.14 0.20 0.23 0.24 0.33 0.43 0.55 0.73 0.95 0.96 0.95 0.99 0.99 1.01 0.94 0.89 0.86 0.77 0.69 0.64 0.57 0.52 0.47 0.41 0.37 0.34 0.28 0.23 0.17 0.11 0.06 0.02 0.01 0.00 0.00
0.08 0.10 0.13 0.11 0.11 0.12 0.15 0.22 0.32 0.36 0.36 0.39 0.43 0.44 0.62 0.72 0.78 0.74 0.73 0.72 0.70 0.66 0.58 0.60 0.62 0.59 0.55 0.50 0.44 0.37 0.30 0.23 0.20 0.14 0.10 0.06 0.03 0.01 0.00 0.00 0.00 0.00 0.00
0.20 0.21 0.23 0.23 0.23 0.23 0.24 0.26 0.36 0.50 0.61 0.75 0.82 0.87 0.88 1.01 0.97 0.90 0.79 0.68 0.62 0.49 0.44 0.46 0.43 0.39 0.33 0.26 0.22 0.17 0.15 0.11 0.07 0.04 0.02 0.01 0.01 0.01 0.00 0.01 0.00 0.00 0.00
0.34 0.40 0.41 0.44 0.46 0.49 0.51 0.52 0.54 0.57 0.62 0.74 0.78 0.75 0.71 0.63 0.57 0.50 0.42 0.29 0.27 0.25 0.24 0.23 0.22 0.19 0.16 0.12 0.09 0.06 0.03 0.02 0.01 0.01 0.01 0.01 0.01 0.01 0.01 0.00 0.00 0.00 0.00
0.33 0.41 0.48 0.54 0.58 0.57 0.56 0.55 0.54 0.52 0.51 0.54 0.51 0.46 0.44 0.37 0.31 0.28 0.23 0.22 0.22 0.21 0.17 0.15 0.13 0.10 0.06 0.03 0.02 0.01 0.01 0.01 0.01 0.01 0.01 0.01 0.01 0.01 0.01 0.01 0.01 0.01 0.00
0.18 0.28 0.35 0.41 0.45 0.44 0.42 0.39 0.38 0.36 0.34 0.33 0.34 0.37 0.31 0.21 0.18 0.17 0.15 0.12 0.09 0.09 0.05 0.03 0.01 0.01 0.01 0.01 0.01 0.01 0.01 0.01 0.01 0.01 0.01 0.01 0.01 0.01 0.01 0.01 0.01 0.01 0.01
0.10 0.11 0.12 0.13 0.16 0.18 0.18 0.18 0.18 0.16 0.15 0.14 0.17 0.15 0.10 0.06 0.07 0.06 0.05 0.03 0.02 0.02 0.02 0.01 0.01 0.01 0.01 0.00 0.01 0.01 0.01 0.01 0.01 0.01 0.01 0.01 0.01 0.01 0.01 0.01 0.01 0.02 0.01
0.05 0.06 0.05 0.06 0.07 0.08 0.08 0.07 0.06 0.06 0.05 0.04 0.04 0.02 0.01 0.01 0.01 0.01 0.01 0.01 0.01 0.01 0.00 0.01 0.00 0.00 0.00 0.00 0.00 0.01 0.01 0.01 0.01 0.01 0.01 0.01 0.01 0.01 0.01 0.02 0.01 0.01 0.01
0.01 0.01 0.01 0.01 0.01 0.02 0.02 0.02 0.02 0.02 0.01 0.01 0.01 0.00 0.00 0.00 0.00 0.00 0.01 0.01 0.01 0.01 0.00 0.00 0.00 0.00 0.00 0.00 0.00 0.01 0.01 0.01 0.01 0.01 0.01 0.01 0.01 0.01 0.01 0.02 0.01 0.02 0.02
0.00 0.00 0.00 0.00 0.00 0.00 0.00 0.01 0.01 0.01 0.01 0.01 0.01 0.01 0.01 0.01 0.01 0.01 0.01 0.01 0.01 0.01 0.01 0.00 0.00 0.00 0.00 0.00 0.00 0.00 0.00 0.00 0.01 0.01 0.01 0.01 0.01 0.01 0.01 0.01 0.01 0.01 0.02
0.00 0.00 0.00 0.00 0.00 0.00 0.00 0.00 0.00 0.01 0.01 0.01 0.01 0.01 0.01 0.01 0.01 0.01 0.01 0.00 0.00 0.00 0.00 0.00 0.00 0.00 0.00 0.00 0.00 0.00 0.00 0.00 0.00 0.00 0.00 0.01 0.01 0.01 0.01 0.01 0.02 0.02 0.02
0.00 0.00 0.00 0.00 0.00 0.00 0.00 0.00 0.01 0.01 0.01 0.01 0.00 0.01 0.01 0.00 0.01 0.01 0.00 0.00 0.00 0.00 0.00 0.00 0.00 0.00 0.00 0.00 0.01 0.01 0.00 0.00 0.00 0.00 0.00 0.01 0.01 0.01 0.02 0.02 0.02 0.02 0.01

GFSGL_prec_precacc24_090.txt.gz
Total_Precipitation_Accumulation
0.00 0.00 0.00 0.01 0.01 0.00 0.00 0.00 0.01 0.07 0.20 0.20 0.30 0.19 0.14 0.09 0.05 0.04 0.02 0.01 0.03 0.04 0.06 0.08 0.07 0.07 0.11 0.13 0.21 0.38 0.46 0.50 0.50 0.26 0.15 0.14 0.11 0.04 0.01 0.00 0.00 0.01 0.00
0.00 0.00 0.00 0.00 0.00 0.00 0.00 0.00 0.00 0.01 0.03 0.04 0.11 0.12 0.14 0.19 0.11 0.05 0.04 0.01 0.01 0.03 0.03 0.03 0.03 0.08 0.12 0.13 0.23 0.30 0.30 0.28 0.35 0.31 0.14 0.10 0.09 0.08 0.07 0.03 0.01 0.01 0.01
0.00 0.00 0.00 0.00 0.00 0.00 0.00 0.00 0.00 0.00 0.01 0.01 0.02 0.03 0.05 0.07 0.15 0.11 0.05 0.02 0.01 0.01 0.03 0.04 0.05 0.11 0.16 0.16 0.18 0.18 0.15 0.17 0.22 0.27 0.20 0.13 0.12 0.11 0.11 0.08 0.06 0.05 0.02
0.00 0.00 0.00 0.00 0.00 0.00 0.00 0.00 0.00 0.00 0.00 0.00 0.00 0.00 0.01 0.01 0.01 0.04 0.03 0.01 0.00 0.00 0.01 0.01 0.03 0.06 0.06 0.08 0.09 0.08 0.10 0.14 0.17 0.20 0.26 0.20 0.14 0.11 0.14 0.14 0.10 0.08 0.09
0.02 0.01 0.01 0.01 0.01 0.00 0.00 0.00 0.00 0.00 0.00 0.00 0.00 0.01 0.01 0.00 0.00 0.00 0.00 0.00 0.00 0.00 0.00 0.00 0.00 0.00 0.00 0.04 0.10 0.12 0.15 0.19 0.24 0.26 0.28 0.21 0.17 0.16 0.16 0.16 0.20 0.22 0.27
0.05 0.08 0.06 0.05 0.04 0.03 0.01 0.01 0.01 0.00 0.00 0.00 0.00 0.00 0.00 0.00 0.00 0.00 0.00 0.00 0.00 0.01 0.01 0.00 0.01 0.01 0.04 0.08 0.12 0.18 0.25 0.31 0.31 0.27 0.28 0.33 0.30 0.29 0.27 0.32 0.37 0.39 0.41
0.13 0.11 0.08 0.07 0.05 0.04 0.05 0.04 0.05 0.04 0.02 0.01 0.01 0.01 0.01 0.01 0.01 0.00 0.00 0.01 0.01 0.01 0.02 0.03 0.04 0.05 0.09 0.09 0.17 0.26 0.29 0.36 0.37 0.34 0.39 0.42 0.41 0.42 0.47 0.56 0.59 0.64 0.69
0.08 0.10 0.08 0.08 0.08 0.09 0.09 0.11 0.11 0.07 0.09 0.08 0.08 0.06 0.04 0.10 0.08 0.04 0.05 0.03 0.02 0.02 0.04 0.05 0.04 0.05 0.14 0.15 0.06 0.10 0.16 0.25 0.34 0.39 0.53 0.76 0.91 0.94 1.00 1.14 1.23 1.28 1.29
0.03 0.06 0.12 0.12 0.11 0.14 0.08 0.06 0.07 0.10 0.10 0.11 0.16 0.11 0.10 0.13 0.19 0.08 0.08 0.04 0.08 0.13 0.16 0.21 0.23 0.14 0.45 0.40 0.23 0.34 0.66 0.83 1.06 1.02 0.94 1.06 1.12 0.98 0.83 0.73 0.85 1.01 1.23
0.04 0.04 0.06 0.06 0.07 0.12 0.12 0.08 0.08 0.08 0.08 0.12 0.16 0.12 0.19 0.11 0.22 0.13 0.11 0.07 0.20 0.32 0.37 0.40 0.63 0.36 0.45 0.39 0.33 0.35 0.78 1.09 1.03 1.06 1.05 0.98 0.87 0.82 0.86 0.64 0.53 0.58 0.71
0.11 0.06 0.02 0.03 0.05 0.04 0.09 0.06 0.09 0.17 0.16 0.15 0.14 0.09 0.08 0.15 0.22 0.25 0.16 0.08 0.15 0.35 0.42 0.44 0.52 0.80 0.50 0.56 0.68 0.69 1.34 1.55 1.57 1.28 1.15 1.10 1.06 1.00 0.94 0.89 0.82 0.79 0.78
0.12 0.04 0.01 0.00 0.01 0.03 0.06 0.07 0.08 0.11 0.14 0.13 0.11 0.10 0.09 0.11 0.26 0.21 0.19 0.21 0.33 0.31 0.48 0.57 0.78 0.93 0.79 0.93 1.05 1.31 1.55 1.49 1.45 1.49 1.43 1.34 1.20 1.07 0.97 0.84 0.72 0.61 0.53
0.06 0.03 0.01 0.00 0.00 0.01 0.05 0.08 0.08 0.07 0.09 0.12 0.15 0.19 0.21 0.20 0.24 0.37 0.32 0.38 0.47 0.50 0.77 1.12 1.32 1.27 1.16 1.13 1.16 1.22 1.26 1.27 1.31 1.31 1.27 1.17 1.00 0.80 0.59 0.44 0.32 0.24 0.19
0.05 0.03 0.03 0.05 0.08 0.05 0.04 0.05 0.06 0.07 0.11 0.16 0.22 0.27 0.30 0.34 0.38 0.45 0.53 0.62 0.77 0.91 1.19 1.35 1.35 1.30 1.24 1.20 1.13 1.03 0.95 0.88 0.77 0.67 0.58 0.49 0.39 0.31 0.25 0.21 0.17 0.14 0.10
0.08 0.08 0.08 0.08 0.08 0.09 0.11 0.15 0.14 0.20 0.22 0.23 0.32 0.39 0.47 0.59 0.78 0.78 0.79 0.87 0.91 0.95 0.90 0.86 0.84 0.76 0.68 0.63 0.57 0.52 0.47 0.41 0.37 0.34 0.28 0.23 0.17 0.11 0.06 0.02 0.01 0.00 0.00
0.08 0.09 0.11 0.09 0.10 0.11 0.14 0.21 0.30 0.33 0.32 0.36 0.40 0.41 0.56 0.67 0.71 0.66 0.65 0.65 0.64 0.62 0.54 0.57 0.61 0.59 0.54 0.50 0.43 0.37 0.30 0.23 0.19 0.13 0.10 0.06 0.03 0.01 0.00 0.00 0.00 0.00 0.00
0.15 0.17 0.21 0.22 0.20 0.20 0.20 0.23 0.33 0.45 0.53 0.67 0.74 0.80 0.83 0.95 0.91 0.84 0.75 0.65 0.59 0.47 0.42 0.44 0.42 0.38 0.32 0.26 0.21 0.17 0.15 0.10 0.06 0.03 0.01 0.01 0.01 0.01 0.00 0.01 0.00 0.00 0.00
0.19 0.23 0.27 0.32 0.34 0.35 0.37 0.39 0.44 0.48 0.53 0.62 0.67 0.65 0.63 0.58 0.52 0.47 0.40 0.28 0.26 0.24 0.23 0.23 0.22 0.19 0.15 0.12 0.09 0.06 0.03 0.02 0.01 0.01 0.01 0.01 0.01 0.01 0.00 0.00 0.00 0.00 0.00
0.14 0.19 0.22 0.26 0.30 0.33 0.38 0.41 0.42 0.41 0.40 0.43 0.41 0.38 0.39 0.34 0.29 0.26 0.23 0.21 0.21 0.20 0.17 0.15 0.13 0.09 0.06 0.03 0.01 0.01 0.01 0.01 0.01 0.01 0.01 0.01 0.01 0.01 0.01 0.00 0.00 0.00 0.00
0.07 0.10 0.11 0.16 0.20 0.22 0.24 0.25 0.26 0.26 0.27 0.28 0.29 0.33 0.29 0.19 0.17 0.16 0.14 0.11 0.09 0.08 0.05 0.02 0.01 0.00 0.00 0.00 0.00 0.01 0.00 0.00 0.00 0.00 0.00 0.00 0.00 0.01 0.01 0.01 0.01 0.01 0.01
0.05 0.05 0.05 0.06 0.08 0.10 0.10 0.11 0.12 0.11 0.12 0.12 0.15 0.14 0.09 0.06 0.07 0.05 0.04 0.03 0.02 0.01 0.01 0.01 0.00 0.00 0.00 0.00 0.00 0.00 0.00 0.00 0.00 0.00 0.00 0.00 0.00 0.01 0.00 0.01 0.01 0.01 0.01
0.04 0.04 0.04 0.04 0.05 0.06 0.06 0.05 0.05 0.04 0.04 0.03 0.03 0.01 0.01 0.01 0.01 0.01 0.01 0.01 0.01 0.00 0.00 0.00 0.00 0.00 0.00 0.00 0.00 0.00 0.00 0.00 0.00 0.00 0.00 0.00 0.00 0.00 0.01 0.01 0.01 0.01 0.01
0.01 0.01 0.01 0.01 0.01 0.01 0.01 0.01 0.01 0.01 0.01 0.01 0.00 0.00 0.00 0.00 0.00 0.00 0.01 0.01 0.01 0.01 0.00 0.00 0.00 0.00 0.00 0.00 0.00 0.01 0.00 0.01 0.01 0.00 0.00 0.00 0.00 0.00 0.01 0.01 0.01 0.01 0.01
0.00 0.00 0.00 0.00 0.00 0.00 0.00 0.01 0.01 0.01 0.01 0.01 0.01 0.01 0.01 0.01 0.01 0.01 0.01 0.01 0.01 0.01 0.01 0.00 0.00 0.00 0.00 0.00 0.00 0.00 0.00 0.00 0.00 0.00 0.00 0.01 0.01 0.00 0.00 0.01 0.01 0.01 0.01
0.00 0.00 0.00 0.01 0.01 0.00 0.00 0.01 0.01 0.01 0.01 0.01 0.01 0.01 0.01 0.01 0.00 0.01 0.00 0.00 0.00 0.00 0.01 0.01 0.00 0.00 0.00 0.00 0.00 0.00 0.00 0.00 0.00 0.00 0.00 0.01 0.01 0.01 0.01 0.01 0.01 0.02 0.02
0.00 0.00 0.00 0.00 0.00 0.00 0.00 0.00 0.01 0.01 0.01 0.01 0.01 0.01 0.01 0.00 0.00 0.01 0.00 0.00 0.00 0.00 0.00 0.00 0.00 0.00 0.00 0.01 0.01 0.01 0.00 0.00 0.00 0.00 0.00 0.00 0.01 0.01 0.01 0.02 0.01 0.01 0.01

GFSGL_prec_precacc24_093.txt.gz
Total_Precipitation_Accumulation
0.00 0.00 0.00 0.01 0.01 0.00 0.01 0.00 0.02 0.11 0.34 0.27 0.43 0.45 0.31 0.24 0.18 0.14 0.05 0.03 0.04 0.04 0.04 0.06 0.07 0.07 0.10 0.11 0.14 0.13 0.11 0.16 0.19 0.13 0.09 0.10 0.16 0.09 0.02 0.00 0.00 0.01 0.00
0.00 0.00 0.00 0.00 0.00 0.00 0.00 0.00 0.00 0.02 0.13 0.11 0.21 0.33 0.25 0.25 0.17 0.09 0.06 0.04 0.04 0.04 0.04 0.03 0.03 0.08 0.10 0.08 0.09 0.09 0.10 0.09 0.14 0.14 0.06 0.08 0.09 0.09 0.08 0.05 0.01 0.01 0.01
0.00 0.00 0.00 0.00 0.00 0.00 0.00 0.01 0.01 0.01 0.03 0.04 0.08 0.09 0.09 0.10 0.18 0.16 0.10 0.05 0.03 0.02 0.03 0.03 0.02 0.05 0.04 0.03 0.04 0.05 0.04 0.08 0.15 0.21 0.15 0.10 0.09 0.11 0.12 0.10 0.08 0.07 0.03
0.00 0.00 0.00 0.00 0.01 0.01 0.01 0.01 0.01 0.01 0.01 0.02 0.02 0.03 0.05 0.09 0.05 0.08 0.10 0.06 0.02 0.01 0.01 0.01 0.01 0.02 0.01 0.01 0.02 0.02 0.04 0.07 0.11 0.18 0.20 0.15 0.12 0.09 0.15 0.16 0.13 0.12 0.13
0.02 0.01 0.02 0.01 0.01 0.01 0.01 0.00 0.01 0.01 0.01 0.02 0.02 0.02 0.02 0.03 0.03 0.02 0.01 0.01 0.01 0.00 0.00 0.00 0.00 0.00 0.00 0.01 0.04 0.06 0.07 0.09 0.15 0.27 0.28 0.22 0.18 0.18 0.20 0.18 0.23 0.23 0.28
0.06 0.08 0.07 0.06 0.04 0.03 0.02 0.02 0.01 0.00 0.00 0.01 0.01 0.02 0.03 0.01 0.03 0.01 0.01 0.01 0.01 0.01 0.02 0.02 0.02 0.01 0.01 0.02 0.05 0.10 0.19 0.27 0.29 0.30 0.31 0.34 0.30 0.29 0.27 0.32 0.37 0.39 0.42
0.15 0.12 0.08 0.07 0.05 0.05 0.06 0.05 0.06 0.05 0.03 0.01 0.01 0.01 0.01 0.01 0.03 0.01 0.01 0.02 0.04 0.02 0.01 0.01 0.02 0.02 0.05 0.03 0.09 0.18 0.24 0.31 0.33 0.32 0.37 0.37 0.39 0.44 0.55 0.69 0.77 0.83 0.83
0.09 0.11 0.09 0.09 0.08 0.09 0.10 0.11 0.12 0.08 0.09 0.08 0.08 0.06 0.05 0.10 0.07 0.02 0.01 0.01 0.02 0.02 0.03 0.03 0.03 0.03 0.10 0.11 0.03 0.06 0.16 0.27 0.38 0.51 0.68 0.89 1.02 1.09 1.19 1.33 1.41 1.43 1.45
0.04 0.07 0.12 0.13 0.12 0.14 0.09 0.07 0.08 0.11 0.11 0.13 0.16 0.12 0.11 0.13 0.19 0.07 0.05 0.02 0.06 0.10 0.13 0.19 0.20 0.11 0.42 0.37 0.22 0.31 0.59 0.70 0.87 0.83 0.76 0.90 1.03 0.97 0.85 0.76 0.89 1.06 1.28
0.08 0.07 0.07 0.09 0.09 0.15 0.14 0.10 0.11 0.11 0.11 0.15 0.18 0.12 0.20 0.10 0.20 0.11 0.10 0.09 0.23 0.36 0.41 0.40 0.61 0.31 0.36 0.33 0.28 0.24 0.59 0.87 0.86 0.95 1.01 1.00 0.90 0.84 0.87 0.64 0.53 0.58 0.71
0.18 0.18 0.14 0.08 0.10 0.12 0.17 0.12 0.15 0.22 0.19 0.18 0.16 0.12 0.11 0.16 0.20 0.23 0.17 0.12 0.23 0.42 0.47 0.48 0.54 0.78 0.48 0.55 0.62 0.58 1.20 1.42 1.49 1.23 1.13 1.09 1.05 1.00 0.94 0.89 0.82 0.79 0.78
0.29 0.20 0.20 0.17 0.11 0.08 0.13 0.18 0.15 0.16 0.17 0.13 0.11 0.12 0.12 0.13 0.24 0.20 0.18 0.20 0.30 0.30 0.43 0.49 0.66 0.78 0.64 0.74 0.87 1.17 1.44 1.43 1.42 1.48 1.41 1.33 1.20 1.07 0.97 0.84 0.72 0.61 0.53
0.33 0.27 0.23 0.21 0.17 0.10 0.05 0.09 0.09 0.05 0.07 0.10 0.13 0.18 0.21 0.20 0.23 0.35 0.30 0.35 0.44 0.48 0.73 1.02 1.15 1.05 0.96 0.97 1.04 1.14 1.21 1.25 1.31 1.31 1.27 1.17 1.00 0.80 0.59 0.44 0.32 0.24 0.19
0.28 0.22 0.20 0.16 0.11 0.05 0.02 0.02 0.04 0.05 0.09 0.15 0.21 0.26 0.29 0.33 0.37 0.43 0.50 0.57 0.67 0.79 0.99 1.09 1.09 1.08 1.07 1.07 1.04 0.98 0.93 0.87 0.76 0.66 0.57 0.49 0.39 0.31 0.25 0.21 0.17 0.14 0.10
0.15 0.16 0.14 0.09 0.07 0.06 0.09 0.12 0.12 0.19 0.18 0.21 0.30 0.38 0.45 0.56 0.73 0.72 0.73 0.77 0.78 0.80 0.74 0.73 0.72 0.67 0.63 0.60 0.56 0.51 0.46 0.41 0.37 0.34 0.28 0.23 0.16 0.11 0.06 0.02 0.01 0.00 0.00
0.12 0.09 0.12 0.14 0.15 0.15 0.17 0.22 0.29 0.31 0.30 0.32 0.36 0.37 0.50 0.60 0.61 0.58 0.57 0.58 0.58 0.57 0.51 0.55 0.58 0.57 0.53 0.49 0.43 0.37 0.30 0.23 0.19 0.13 0.09 0.06 0.03 0.01 0.00 0.00 0.00 0.00 0.00
0.04 0.07 0.11 0.14 0.17 0.20 0.21 0.23 0.30 0.37 0.42 0.52 0.56 0.61 0.64 0.75 0.73 0.70 0.64 0.57 0.53 0.42 0.38 0.40 0.38 0.35 0.31 0.25 0.20 0.16 0.14 0.10 0.06 0.03 0.01 0.01 0.00 0.00 0.00 0.00 0.00 0.00 0.00
0.03 0.07 0.14 0.16 0.16 0.16 0.18 0.21 0.23 0.25 0.29 0.35 0.42 0.44 0.45 0.43 0.41 0.37 0.32 0.22 0.22 0.21 0.21 0.21 0.20 0.17 0.15 0.12 0.09 0.06 0.03 0.01 0.00 0.00 0.00 0.00 0.00 0.00 0.00 0.00 0.00 0.00 0.00
0.04 0.04 0.06 0.09 0.12 0.12 0.13 0.13 0.14 0.16 0.18 0.22 0.23 0.23 0.27 0.25 0.22 0.21 0.18 0.17 0.19 0.19 0.16 0.14 0.12 0.09 0.06 0.03 0.01 0.00 0.00 0.00 0.00 0.00 0.00 0.00 0.00 0.00 0.00 0.00 0.00 0.00 0.00
0.04 0.04 0.03 0.05 0.06 0.07 0.08 0.10 0.11 0.13 0.14 0.16 0.18 0.23 0.20 0.13 0.13 0.13 0.11 0.09 0.08 0.07 0.04 0.02 0.00 0.00 0.00 0.00 0.00 0.00 0.00 0.00 0.00 0.00 0.00 0.00 0.00 0.00 0.00 0.00 0.00 0.00 0.00
0.03 0.03 0.03 0.03 0.05 0.06 0.06 0.06 0.07 0.06 0.07 0.08 0.11 0.11 0.07 0.05 0.06 0.05 0.04 0.02 0.01 0.01 0.01 0.00 0.00 0.00 0.00 0.00 0.00 0.00 0.00 0.00 0.00 0.00 0.00 0.00 0.00 0.00 0.00 0.00 0.00 0.01 0.00
0.03 0.03 0.02 0.03 0.04 0.04 0.04 0.03 0.03 0.02 0.02 0.02 0.02 0.01 0.00 0.00 0.00 0.00 0.00 0.00 0.01 0.00 0.00 0.00 0.00 0.00 0.00 0.00 0.00 0.00 0.00 0.00 0.00 0.00 0.00 0.00 0.00 0.00 0.00 0.00 0.00 0.00 0.00
0.01 0.01 0.01 0.01 0.00 0.00 0.01 0.01 0.01 0.01 0.00 0.00 0.00 0.00 0.00 0.00 0.00 0.00 0.01 0.01 0.01 0.01 0.00 0.00 0.00 0.01 0.00 0.00 0.00 0.01 0.00 0.01 0.01 0.00 0.00 0.00 0.00 0.00 0.00 0.01 0.01 0.01 0.01
0.00 0.00 0.00 0.00 0.00 0.00 0.00 0.01 0.01 0.01 0.01 0.01 0.01 0.01 0.01 0.01 0.01 0.01 0.01 0.01 0.01 0.01 0.01 0.00 0.00 0.00 0.00 0.00 0.00 0.00 0.01 0.00 0.00 0.00 0.00 0.00 0.00 0.00 0.00 0.00 0.00 0.01 0.01
0.00 0.00 0.00 0.01 0.01 0.01 0.01 0.01 0.01 0.01 0.01 0.01 0.01 0.01 0.01 0.01 0.00 0.01 0.00 0.00 0.00 0.00 0.01 0.01 0.00 0.00 0.00 0.00 0.00 0.01 0.01 0.00 0.00 0.00 0.00 0.00 0.00 0.00 0.00 0.00 0.01 0.01 0.01
0.00 0.00 0.00 0.00 0.01 0.00 0.00 0.00 0.01 0.01 0.01 0.01 0.01 0.01 0.01 0.00 0.00 0.01 0.00 0.00 0.00 0.00 0.00 0.00 0.01 0.00 0.00 0.01 0.01 0.01 0.00 0.00 0.00 0.00 0.00 0.00 0.00 0.01 0.01 0.01 0.01 0.01 0.01